GFSGBSN_con_sbcape_000.txt.gz
CAPE
44 37 26 34 17 3 5 11 8 11 9 7 4 20 19 20 16 14 1 35 46 83 103 141 152 187 63 26 0 0 0 0 0 0 11 44 0 0 0 0 0 0 0 0 0 0 0
28 22 40 34 31 28 16 10 10 15 12 28 39 34 22 23 32 28 30 15 35 98 132 232 376 309 33 15 0 0 0 0 0 0 8 39 8 0 0 0 0 0 0 0 0 0 0
29 15 30 26 22 29 18 6 10 6 15 12 47 46 35 25 16 37 47 39 36 106 146 275 424 103 31 0 0 0 0 0 0 0 0 23 65 0 0 3 0 0 0 0 0 0 0
34 19 15 13 14 27 14 6 7 10 18 21 49 57 34 36 20 31 34 57 67 176 169 283 385 38 5 0 0 0 0 0 0 0 0 120 134 1 1 0 0 0 0 0 0 0 0
46 33 16 13 15 29 29 24 6 9 8 13 27 35 40 50 54 70 52 72 97 132 171 269 112 25 28 0 0 0 0 0 0 0 3 178 4 12 14 2 1 0 0 0 0 0 0
36 41 42 25 21 29 26 35 10 10 2 6 46 46 20 23 44 56 74 46 90 61 58 55 64 13 0 0 0 0 0 0 6 0 14 171 41 24 24 14 12 0 0 0 0 0 0
37 29 39 37 24 28 3 25 13 4 6 4 50 71 40 23 15 71 71 33 4 22 26 0 0 0 1 0 0 0 0 0 6 0 34 121 77 28 2 0 0 0 0 0 0 0 0
32 34 36 31 20 24 4 7 10 1 7 6 55 90 40 14 33 87 10 0 0 4 7 0 37 0 28 34 74 4 1 5 25 0 31 108 24 4 0 0 5 0 0 0 0 0 0
32 36 33 32 26 13 2 3 9 1 2 6 53 55 39 24 64 62 0 0 68 30 36 0 0 25 7 24 38 8 0 13 20 0 8 35 16 8 5 0 0 0 0 0 0 0 0
44 38 36 36 30 23 12 5 3 5 5 23 22 18 6 46 35 22 1 1 47 43 18 16 12 1 15 18 26 30 5 34 21 0 5 39 5 3 4 1 0 1 0 0 0 0 0
61 40 61 54 31 37 29 19 7 3 10 22 36 7 39 58 55 47 41 1 42 67 0 0 10 3 11 5 24 62 0 5 7 0 44 39 5 35 15 1 0 0 0 0 0 0 0
77 60 59 70 60 53 39 32 11 13 11 6 19 3 45 34 49 43 10 28 26 21 0 3 36 9 7 0 61 62 75 73 30 3 26 2 1 14 19 0 0 0 0 0 0 0 0
97 74 69 66 65 58 50 40 17 24 8 9 3 17 25 43 40 59 13 12 6 28 1 16 26 26 23 10 51 39 11 10 18 34 46 0 5 0 0 0 0 0 0 0 0 0 0
81 72 53 40 51 68 48 40 23 27 12 7 4 16 18 18 19 12 32 3 26 10 0 31 46 12 22 28 43 31 62 51 9 0 5 3 44 0 0 0 0 0 0 0 0 0 0
67 59 51 46 29 65 47 22 13 25 11 8 10 0 10 16 28 14 10 5 8 5 4 42 29 0 40 22 30 84 21 15 16 2 0 4 1 0 0 0 0 0 0 0 0 0 0
65 54 36 32 24 58 58 15 6 20 8 11 0 0 0 6 27 29 13 7 15 4 1 8 3 13 65 27 25 13 30 17 7 0 0 0 0 0 0 0 0 0 0 0 0 0 0
62 44 33 28 33 45 42 12 3 20 9 4 0 0 3 5 33 42 13 3 10 0 0 12 12 3 4 1 10 2 1 0 0 0 0 0 0 0 0 0 0 0 0 0 0 0 0
60 37 24 37 26 31 37 14 5 16 2 0 0 0 11 9 26 48 22 42 2 11 43 18 10 1 0 3 2 7 4 0 0 0 0 0 0 0 0 0 0 0 0 0 0 0 0
62 31 21 29 16 15 30 18 9 13 0 0 0 5 4 8 5 2 21 16 23 13 26 32 0 0 0 0 1 1 0 0 0 0 0 0 0 0 0 0 0 0 0 0 0 0 0
57 27 22 20 14 9 15 14 5 9 5 0 0 0 8 9 1 0 4 13 33 15 6 0 0 0 0 8 0 0 0 0 0 0 0 0 0 0 0 0 0 0 0 0 0 0 0
57 32 24 16 27 11 13 11 4 7 9 0 0 0 0 0 0 0 0 6 13 4 0 0 22 0 0 0 0 0 0 0 0 0 0 0 0 0 0 0 0 0 0 0 0 0 0
54 33 22 14 25 23 14 7 4 4 0 0 0 0 0 0 0 0 0 0 0 0 0 1 2 0 0 0 0 0 0 0 0 0 0 0 0 0 0 0 0 0 0 0 0 0 0
53 33 16 10 17 18 10 7 6 3 0 0 0 0 0 0 0 0 0 0 0 0 0 0 0 0 0 0 0 0 0 0 0 0 0 0 0 0 0 0 0 0 0 0 0 0 0
54 31 7 6 10 13 10 8 7 2 0 0 0 0 0 0 0 0 0 0 0 0 0 0 0 0 0 0 0 0 0 0 0 0 0 0 0 0 0 0 0 0 0 0 0 0 0
53 29 9 7 11 10 12 12 7 2 0 0 0 0 0 0 0 0 0 0 0 0 0 0 0 0 0 0 0 0 0 0 0 0 0 0 0 0 0 0 0 0 0 0 0 0 0
36 39 14 10 6 9 13 16 8 2 0 0 0 0 0 0 0 0 0 0 0 0 0 0 0 0 0 0 0 0 0 0 0 0 0 0 0 0 0 0 0 0 0 0 0 0 0
68 39 12 5 4 10 19 13 2 0 0 0 0 0 0 0 0 0 0 0 0 0 0 0 0 0 0 0 0 0 0 0 0 0 0 0 0 0 0 0 0 0 0 0 0 0 0
14 26 3 0 4 20 24 11 1 0 0 0 0 0 0 0 0 0 0 0 0 0 0 0 0 0 0 0 0 0 0 0 0 0 0 0 0 0 0 0 0 0 0 0 0 0 0
11 10 0 0 2 22 17 11 6 1 0 0 0 0 0 0 0 0 0 0 0 0 0 0 0 0 0 0 0 0 0 0 0 0 0 0 0 0 0 0 0 0 0 0 0 0 0

GFSGBSN_con_sbcape_003.txt.gz
CAPE
66 35 37 55 44 33 20 3 5 7 4 11 8 2 3 0 15 20 25 6 25 48 63 69 73 103 14 34 3 0 0 0 0 9 0 4 47 0 0 0 0 0 0 0 0 0 0
54 39 30 45 34 44 51 31 4 6 3 3 8 1 1 0 1 41 34 23 17 41 92 93 115 100 2 12 0 0 0 0 0 11 2 0 12 0 0 0 0 0 0 0 0 0 0
40 41 29 27 17 24 45 39 5 4 2 9 4 15 15 12 46 28 32 44 29 23 97 108 125 28 30 0 0 0 0 0 0 3 5 0 7 1 0 0 0 0 5 0 0 0 0
45 46 42 24 18 18 23 34 19 2 9 12 13 22 33 14 33 32 46 52 77 104 94 105 69 10 16 1 0 0 0 0 0 0 0 0 35 12 4 1 0 12 0 1 0 0 0
42 42 61 40 23 26 29 33 39 5 4 6 6 14 31 36 45 55 72 76 91 105 110 69 28 31 12 4 0 0 0 0 0 25 13 2 95 97 14 1 6 0 1 0 0 0 0
28 42 54 52 38 29 38 21 45 13 6 2 7 55 65 37 35 42 67 85 79 78 38 44 15 18 3 2 0 0 0 0 1 67 80 93 198 61 48 39 49 0 0 0 0 0 0
33 54 51 62 45 31 29 27 30 14 4 7 20 41 69 48 7 29 47 37 15 20 13 0 0 0 10 0 0 5 0 0 0 74 4 38 74 65 28 20 0 0 0 0 0 0 0
37 56 52 55 40 34 19 22 6 5 2 3 11 26 70 39 13 26 58 0 0 0 0 0 0 0 0 36 171 32 0 0 27 1 0 78 81 47 0 2 0 0 0 0 0 0 0
46 40 71 54 42 35 26 13 2 0 5 2 8 28 30 0 6 45 8 0 2 11 7 1 0 3 9 0 46 69 0 1 67 0 7 23 16 17 11 13 24 0 0 0 0 0 0
74 72 83 62 43 41 46 33 6 0 2 11 14 36 31 3 46 9 4 8 0 1 12 6 4 1 12 68 20 32 0 5 60 0 0 69 6 19 16 1 0 1 0 0 0 0 0
68 81 74 71 65 56 44 49 30 10 3 9 8 19 43 5 31 42 7 15 2 10 5 1 5 2 0 1 16 14 0 40 39 0 43 31 28 14 15 0 0 0 0 0 0 0 0
77 101 89 78 67 63 54 46 49 34 19 10 12 5 47 28 26 30 5 24 53 10 0 23 15 24 20 12 63 73 1 35 55 5 2 13 5 91 10 0 0 0 0 0 0 0 0
71 99 103 85 68 64 55 51 51 44 32 13 13 29 37 31 46 11 6 29 7 5 4 24 18 24 6 0 12 38 7 21 24 15 16 10 27 2 28 0 0 0 2 2 1 0 0
90 85 72 69 67 60 59 58 49 46 37 15 14 29 23 14 55 4 38 11 8 2 0 21 6 31 13 0 36 47 3 6 26 7 1 10 8 0 0 0 0 0 0 0 0 0 0
79 83 80 59 61 55 55 67 41 28 20 11 12 1 17 8 39 33 2 6 0 3 0 13 26 6 17 18 36 35 5 6 8 7 0 3 1 0 0 0 0 0 0 0 0 0 0
85 74 64 63 45 46 46 66 31 20 15 7 0 2 3 3 6 13 4 6 12 3 14 0 0 0 0 13 5 11 31 18 50 0 0 0 0 0 0 0 0 0 0 0 0 0 0
102 79 66 67 51 41 48 51 25 16 19 0 1 0 3 29 16 32 5 3 6 15 0 0 15 9 10 0 7 1 0 53 38 0 0 0 0 0 0 0 0 0 0 0 0 0 0
78 89 62 56 36 36 38 41 29 13 0 0 0 0 9 8 16 26 16 7 1 0 10 0 0 17 0 0 0 12 2 1 14 0 0 0 0 0 0 0 0 0 0 0 0 0 0
40 90 68 45 28 15 23 33 24 1 1 0 0 3 24 18 13 13 18 10 8 18 38 22 1 0 0 0 19 31 11 0 0 2 0 0 0 0 0 0 0 0 0 0 0 0 0
10 86 71 37 26 11 11 22 17 0 2 0 0 3 22 18 8 7 21 26 21 34 38 38 0 0 0 0 0 0 0 0 0 0 0 0 0 0 0 0 0 0 0 0 0 0 0
6 82 77 44 30 19 10 18 14 1 5 0 0 0 0 2 2 0 0 20 9 25 18 1 1 0 0 0 0 0 0 0 0 0 0 0 0 0 0 0 0 0 0 0 0 0 0
20 25 80 48 30 17 12 19 10 1 4 0 0 0 0 0 0 1 0 25 20 4 2 0 0 0 0 4 0 0 0 0 0 0 0 0 0 0 0 0 0 0 0 0 0 0 0
32 20 82 57 25 14 9 12 10 11 0 0 0 0 0 0 0 0 0 0 0 0 0 0 0 0 0 0 0 0 0 0 0 0 0 0 0 0 0 0 0 0 0 0 0 0 0
53 23 26 53 15 3 7 11 9 15 0 0 0 0 0 0 0 0 0 0 0 0 0 0 0 0 0 0 0 0 0 0 0 0 0 0 0 0 0 0 0 0 0 0 0 0 0
38 28 9 46 3 1 6 10 17 18 5 0 0 0 0 0 0 0 0 0 0 0 0 0 0 0 0 0 0 0 0 0 0 0 0 0 0 0 0 0 0 0 0 0 0 0 0
29 27 10 51 6 5 5 9 21 21 14 0 0 0 0 0 0 0 0 0 0 0 0 0 0 0 0 0 0 0 0 0 0 0 0 0 0 0 0 0 0 0 0 0 0 0 0
39 35 12 37 2 1 3 9 19 20 6 0 0 0 0 0 0 0 0 0 0 0 0 0 0 0 0 0 0 0 0 0 0 0 0 0 0 0 0 0 0 0 0 0 0 0 0
26 15 12 17 0 0 4 19 15 14 1 0 0 0 0 0 0 0 0 0 0 0 0 0 0 0 0 0 0 0 0 0 0 0 0 0 0 0 0 0 0 0 0 0 0 0 0
35 22 15 7 0 0 10 21 15 8 1 0 0 0 0 0 0 0 0 0 0 0 0 0 0 0 0 0 0 0 0 0 0 0 0 0 0 0 0 0 0 0 0 0 0 0 0

GFSGBSN_con_sbcape_006.txt.gz
CAPE
38 83 35 31 40 33 39 19 2 0 7 8 9 2 0 0 0 0 0 0 0 13 32 51 51 58 60 55 24 28 0 0 0 8 14 0 47 42 164 105 33 0 1 0 0 0 0
32 64 69 28 35 38 23 60 34 0 2 3 13 8 0 0 0 0 0 0 0 1 37 76 73 80 37 39 1 0 2 0 0 2 9 6 45 45 24 154 83 3 0 0 0 0 0
21 42 68 40 28 28 20 34 44 7 1 3 15 14 0 0 0 4 0 0 13 37 29 67 81 66 40 1 0 0 0 0 0 0 5 6 6 181 38 175 140 58 25 20 0 0 0
34 50 68 59 37 26 27 21 41 19 4 2 8 34 31 8 1 1 0 6 51 117 53 42 36 44 16 0 0 0 0 0 0 0 0 5 15 57 202 137 171 153 77 59 0 4 0
33 66 58 50 50 44 37 41 56 39 24 0 6 27 16 39 32 31 8 24 74 79 86 54 28 38 8 0 0 0 0 0 0 0 0 1 51 106 270 55 142 145 53 18 12 3 0
25 36 79 64 62 47 36 44 36 17 39 1 13 34 50 65 53 41 11 18 72 56 47 28 33 31 0 0 0 0 0 0 34 144 123 106 67 179 283 137 65 31 42 18 22 2 0
52 38 71 78 59 62 39 35 28 0 30 14 15 36 43 71 64 18 13 28 7 28 8 0 0 0 0 0 0 3 0 0 46 223 90 78 52 44 62 50 61 23 21 19 9 0 0
75 52 44 74 72 72 42 28 20 0 3 2 10 32 46 67 82 32 30 39 0 0 8 0 0 0 19 8 34 28 18 0 11 19 153 54 42 45 14 100 67 34 9 13 18 0 0
74 80 52 74 99 77 52 39 23 3 0 4 6 22 42 39 12 14 29 14 0 0 2 7 2 11 13 8 71 100 53 0 2 9 23 13 21 26 94 98 60 39 13 7 6 0 0
82 84 96 88 80 81 78 66 43 14 1 0 8 22 51 9 14 36 40 2 0 0 2 7 12 6 32 67 20 23 71 4 52 16 34 5 14 98 93 72 93 49 33 8 0 20 46
106 108 106 83 63 70 69 76 61 48 26 3 6 11 54 16 44 16 4 1 0 0 4 0 10 3 7 19 31 3 125 19 38 59 7 0 31 3 148 40 41 47 15 21 14 22 3
98 91 112 109 70 62 68 62 58 59 53 17 10 30 48 46 53 15 2 1 1 5 3 24 15 22 31 31 53 134 123 28 57 29 4 0 30 19 56 17 39 0 0 0 0 0 20
98 94 118 108 87 63 58 55 59 55 54 40 15 23 29 11 17 12 12 6 15 19 4 29 25 32 13 9 9 37 68 36 27 60 23 0 6 70 112 25 0 34 38 30 63 19 10
42 92 124 120 82 62 62 64 61 62 55 30 10 15 11 12 27 24 9 18 23 2 16 9 30 29 13 26 23 40 39 28 24 30 0 16 20 58 41 18 0 5 31 13 11 1 1
22 128 114 87 82 65 67 64 57 51 35 16 2 5 9 11 71 5 3 10 6 21 2 24 35 36 31 28 7 42 18 9 20 4 0 16 3 11 28 0 0 0 1 0 0 0 0
31 10 105 88 78 77 73 54 53 47 20 4 0 0 6 0 50 15 5 17 10 11 5 17 3 9 13 15 75 67 15 1 7 1 21 0 7 0 0 2 0 0 0 0 0 0 0
33 29 124 105 78 66 58 49 53 38 32 2 1 6 3 10 17 14 11 14 12 10 0 3 0 2 3 3 5 27 6 2 0 7 2 5 1 0 0 1 0 3 0 0 0 0 1
71 44 61 108 77 58 56 40 58 41 0 0 6 17 11 14 11 23 25 9 6 16 6 0 0 0 0 0 0 12 1 6 0 25 4 0 5 2 0 0 0 2 0 0 18 0 0
75 34 34 110 75 48 41 34 44 42 0 0 2 7 13 7 11 12 22 16 15 17 3 0 4 0 0 0 0 7 8 0 0 11 18 0 10 10 1 0 0 0 0 0 0 0 0
72 45 28 43 72 41 29 20 29 32 13 0 1 12 35 37 13 20 15 14 24 16 12 25 9 7 0 0 0 0 10 7 7 0 0 0 0 0 0 0 0 0 0 0 0 1 0
80 37 52 10 84 53 30 10 19 29 5 0 0 3 1 6 6 7 15 17 7 37 49 32 5 0 0 0 15 4 5 2 2 0 9 1 4 0 0 0 0 0 0 0 0 0 0
67 52 58 14 17 65 33 5 18 23 5 0 0 0 0 1 2 7 2 25 10 14 1 0 5 0 0 0 0 5 0 0 7 5 19 5 6 0 0 0 0 0 0 0 0 0 0
57 62 57 23 10 60 33 2 14 18 0 0 0 0 0 0 0 1 0 12 5 14 1 0 5 0 1 1 3 1 0 0 0 0 0 1 1 0 0 0 0 0 0 0 0 0 0
62 79 52 27 20 54 22 3 8 22 0 0 0 0 0 0 0 0 0 1 1 5 7 0 0 0 0 0 0 0 0 0 0 0 1 2 0 0 0 0 0 0 0 0 0 0 0
55 69 46 56 12 39 8 6 13 29 6 0 0 0 0 0 0 0 0 0 0 0 0 0 0 0 0 0 0 0 0 0 0 0 0 0 0 0 0 1 0 0 0 0 0 0 0
70 74 35 17 12 14 0 4 13 21 21 0 0 0 0 0 0 0 0 0 0 0 0 0 0 0 0 0 11 2 7 5 0 0 0 0 0 1 0 0 0 0 0 0 0 0 0
73 65 46 29 25 10 1 2 10 22 10 0 0 0 0 0 0 0 0 0 0 0 0 0 0 0 0 0 0 0 2 0 0 0 0 0 0 4 0 0 0 0 0 0 0 0 0
63 61 58 42 29 10 0 0 6 27 11 0 0 0 0 0 0 0 0 0 0 0 0 0 0 0 0 0 0 0 0 0 0 0 0 0 0 0 0 0 0 0 0 0 0 0 0
59 52 52 35 10 10 1 0 9 28 11 0 0 0 0 0 0 0 0 0 0 0 0 0 0 0 0 0 0 0 0 0 0 0 0 0 0 0 0 0 0 0 0 0 0 0 0

GFSGBSN_con_sbcape_009.txt.gz
CAPE
23 36 38 66 36 31 45 36 2 0 0 1 5 15 10 2 10 8 4 0 0 0 0 23 44 48 54 46 25 25 0 0 0 23 17 9 0 0 27 35 85 56 19 6 5 10 0
42 31 39 56 72 35 37 31 53 10 0 0 2 11 11 2 4 3 0 0 0 0 0 5 65 73 53 24 2 28 24 0 0 9 15 45 4 0 4 19 58 54 88 28 23 14 0
57 25 35 55 70 71 36 27 33 55 13 0 1 4 17 0 2 28 12 0 1 0 0 0 36 49 47 2 1 4 0 0 0 0 25 33 49 33 23 33 1 54 100 45 26 35 3
52 36 51 53 70 75 71 63 44 42 20 6 0 4 26 22 21 45 43 8 1 0 0 0 0 47 56 0 2 1 0 0 0 0 0 13 56 16 20 75 17 25 124 58 25 39 4
29 53 65 67 63 58 75 80 64 38 37 19 8 3 10 43 44 70 57 44 36 45 21 2 16 62 17 0 0 0 0 0 3 0 0 6 55 46 49 63 123 128 87 30 62 43 2
21 55 82 80 73 44 64 81 78 75 49 55 37 27 16 30 43 82 82 27 35 48 43 40 35 42 0 0 0 0 0 1 8 25 28 25 61 42 52 72 64 61 45 43 56 30 10
29 50 84 82 75 68 63 65 73 67 44 62 45 29 20 17 37 72 15 34 17 7 11 0 1 0 0 0 0 0 0 7 12 28 40 41 63 42 7 5 1 67 163 125 96 24 34
72 71 70 78 88 79 77 72 59 71 46 57 42 25 29 21 38 83 33 24 5 1 11 5 1 8 10 3 1 0 6 16 21 30 23 152 200 23 3 8 33 117 127 176 75 17 3
137 90 82 88 81 98 101 86 52 47 45 35 35 14 21 17 18 62 39 0 0 0 3 6 2 10 5 10 10 29 17 19 24 26 39 206 147 113 29 0 245 196 162 140 72 14 0
182 153 116 103 101 79 83 81 73 65 52 31 29 14 24 28 2 4 31 2 0 0 0 6 12 5 1 25 19 4 60 61 28 27 89 158 67 164 60 9 54 221 97 91 54 47 15
40 54 117 120 104 90 69 78 70 69 60 40 16 15 53 1 24 50 1 2 0 0 11 4 21 3 10 16 6 0 6 96 46 37 0 0 46 47 67 35 32 108 111 85 82 123 71
80 28 102 107 104 109 77 75 75 62 56 48 13 24 49 58 26 27 1 0 3 5 7 12 11 16 22 32 8 23 3 59 53 23 34 0 4 23 12 48 72 116 132 140 81 38 17
13 38 54 141 99 112 79 75 73 66 51 45 37 13 25 4 7 3 0 11 7 19 2 23 19 25 30 35 47 46 68 51 78 23 46 12 7 1 13 13 18 24 56 118 25 40 7
53 52 34 15 128 98 78 90 79 81 63 38 44 4 11 0 59 8 6 8 8 1 2 10 14 14 28 16 36 44 48 80 37 1 4 49 28 5 0 38 23 5 31 8 14 14 4
37 79 63 12 5 108 102 94 73 64 41 23 20 4 12 2 45 11 8 4 13 18 9 19 44 53 60 20 16 16 44 64 11 0 17 8 10 0 1 36 2 0 55 0 3 0 34
46 69 90 41 21 122 105 95 81 58 37 3 0 1 1 6 47 16 10 12 28 17 7 14 13 23 46 38 34 38 32 9 9 2 4 8 11 0 2 2 0 5 24 8 2 0 16
102 100 55 51 34 105 98 95 82 69 48 2 0 4 11 4 41 11 2 13 21 22 1 23 20 5 18 19 15 21 9 0 0 1 1 21 2 1 1 10 13 11 1 2 5 0 50
127 98 85 77 27 1 116 83 90 85 50 0 3 16 9 19 17 11 8 6 11 10 3 18 5 17 11 2 2 31 16 1 0 0 19 20 11 2 0 0 2 8 0 11 33 0 0
90 65 68 25 24 16 90 80 82 82 0 0 3 40 13 8 12 9 7 16 11 9 21 5 5 7 1 2 5 8 0 0 0 0 36 39 2 22 13 0 0 0 1 18 15 1 1
67 76 69 56 48 18 34 53 56 71 0 0 9 62 13 27 6 13 8 15 16 0 14 0 1 3 10 5 0 0 5 2 0 0 4 10 1 0 7 0 0 3 0 0 0 0 0
70 77 67 58 56 30 26 35 30 61 9 0 1 21 6 11 11 7 15 20 12 15 8 0 12 4 4 0 0 5 0 24 0 0 0 22 19 2 1 0 0 0 1 0 0 0 2
78 80 65 65 24 9 30 26 18 38 25 0 1 0 5 30 0 6 5 10 16 4 21 12 38 13 2 0 0 0 3 15 15 33 3 10 32 0 6 0 0 0 0 0 0 0 0
97 102 79 22 47 41 24 23 12 29 1 2 0 0 0 19 35 7 10 0 4 12 9 9 9 25 16 1 0 12 0 3 19 1 26 19 31 13 9 0 0 0 0 0 0 0 0
80 93 79 55 34 33 18 29 9 26 0 0 0 0 5 0 4 2 0 2 7 4 4 1 2 1 19 0 7 54 17 0 14 8 6 3 20 2 0 0 1 0 0 0 0 0 0
82 99 75 86 37 30 18 14 5 18 9 0 0 0 10 3 0 0 0 4 0 0 1 0 0 0 0 0 35 13 0 0 0 0 8 12 15 13 1 5 0 0 0 0 0 0 0
75 88 65 89 50 28 25 7 16 15 31 0 0 0 1 6 0 0 0 0 0 0 0 0 0 0 0 0 38 25 10 4 1 0 0 1 3 33 0 0 0 0 0 0 0 0 0
67 84 67 85 44 29 16 8 15 19 24 0 0 0 1 7 0 0 0 0 0 0 0 0 0 0 0 0 3 82 17 5 2 4 0 0 3 2 3 8 0 0 0 0 0 0 0
50 73 62 66 54 25 16 9 25 7 24 0 0 0 1 16 3 0 0 0 0 0 0 0 0 0 1 8 1 2 2 0 4 1 0 1 1 1 6 4 1 0 0 0 0 0 0
41 73 60 66 39 19 21 12 22 17 21 1 2 0 1 20 6 0 0 0 0 0 0 0 0 0 1 0 0 0 0 0 0 0 0 4 0 0 0 0 0 0 0 0 0 0 0

GFSGBSN_con_sbcape_012.txt.gz
CAPE
20 46 60 41 36 63 57 77 53 15 9 2 1 2 4 3 1 5 0 0 0 1 4 24 32 21 1 7 1 8 0 0 0 0 16 6 15 0 2 10 38 23 24 14 1 0 1
16 33 67 46 51 80 74 36 56 55 25 18 12 2 5 5 4 8 0 0 1 7 18 22 53 45 8 4 0 0 14 5 0 2 18 31 37 11 0 4 13 45 50 26 18 3 1
16 10 33 51 52 66 81 64 45 51 41 40 29 18 21 14 0 6 7 1 0 22 38 47 48 45 19 0 0 0 21 10 0 0 0 36 27 53 21 5 20 18 8 60 16 8 8
18 15 15 51 54 68 83 83 73 46 28 44 26 42 32 42 18 19 19 0 0 17 52 55 37 46 17 0 0 0 0 0 0 0 0 0 16 45 42 12 36 62 30 0 0 9 6
34 18 16 41 36 73 85 91 90 67 31 32 34 45 33 54 60 62 48 3 2 5 60 42 24 51 6 0 0 0 0 0 0 0 0 0 1 27 43 30 45 24 0 0 0 14 7
83 62 42 52 65 64 88 89 97 96 81 62 64 55 47 54 72 67 64 2 0 0 31 32 9 13 0 0 0 0 0 1 2 2 1 8 20 28 39 38 6 6 23 0 0 0 16
35 50 106 87 84 85 77 91 90 102 92 68 57 53 43 70 66 67 29 4 1 6 22 0 0 0 0 0 0 0 0 2 4 14 13 19 31 12 0 0 0 0 20 79 0 64 14
46 26 130 127 117 105 94 83 97 99 93 78 60 38 39 60 71 60 47 4 0 0 7 2 0 0 0 2 0 0 0 9 16 21 14 39 17 0 0 4 8 1 16 15 41 87 29
24 30 99 131 135 134 114 89 102 99 93 75 56 34 40 41 50 49 10 2 0 0 20 17 0 0 1 1 5 9 0 0 3 11 16 18 0 0 4 16 37 8 9 1 48 116 17
64 21 20 36 24 113 99 92 82 93 82 63 51 40 27 35 12 5 30 13 11 1 3 2 9 8 0 0 2 2 8 12 13 6 17 46 3 5 22 10 16 15 0 6 74 80 30
87 80 15 14 19 13 112 98 89 79 73 64 55 47 24 1 42 21 1 0 0 0 0 0 14 1 4 1 0 1 0 30 29 8 36 0 1 4 35 15 14 2 39 0 99 107 32
121 102 32 41 7 24 35 118 100 88 75 58 48 26 37 28 11 9 4 0 0 2 0 2 7 23 27 8 11 7 2 34 20 36 33 1 17 43 14 35 57 11 2 4 72 51 77
140 143 101 47 14 24 20 126 110 95 81 62 60 20 23 16 7 1 0 0 2 10 0 13 16 14 11 25 27 9 17 26 20 23 16 29 1 0 1 211 35 116 110 178 40 68 15
175 187 133 72 1 28 35 65 137 121 93 64 60 36 11 4 0 0 3 3 8 3 0 6 11 13 37 31 44 14 9 19 36 26 6 7 4 2 0 13 14 54 34 3 38 18 1
153 177 139 88 5 42 47 130 146 117 74 62 46 19 4 8 0 0 8 2 11 13 11 11 15 24 16 42 62 23 22 21 1 9 27 79 6 0 3 0 55 9 0 4 1 0 0
178 163 151 104 74 64 63 61 189 118 60 52 0 2 4 5 3 8 20 13 13 19 5 12 30 5 3 11 8 9 14 4 7 20 0 2 14 11 15 16 66 9 23 9 0 0 10
157 170 81 108 71 51 67 14 171 145 104 1 0 2 0 4 4 17 4 3 3 10 7 11 5 4 6 0 0 2 0 0 2 4 0 4 10 2 0 71 26 31 40 0 0 0 12
126 107 78 91 62 70 65 17 12 154 92 0 1 2 4 8 10 11 8 4 9 19 12 16 11 3 1 0 0 0 0 0 0 0 9 4 24 4 2 0 1 30 0 0 21 0 0
76 83 83 84 84 69 23 26 19 158 9 0 1 9 11 0 6 8 3 12 6 5 22 14 4 0 0 0 0 0 10 14 0 0 0 11 13 3 0 6 5 13 4 0 0 0 0
42 76 75 82 75 41 34 26 55 119 10 0 0 19 31 19 4 7 4 17 12 10 6 20 3 0 0 0 0 0 0 28 0 0 8 38 19 3 2 0 0 3 0 0 0 0 0
40 59 70 87 64 57 67 31 15 94 3 0 0 10 2 7 5 5 6 6 11 9 6 0 0 0 0 3 0 0 0 2 6 0 7 9 16 11 0 0 0 0 0 0 0 0 0
22 29 67 76 49 43 26 4 11 89 0 0 0 0 1 15 0 3 5 8 12 6 16 4 0 6 0 0 0 0 0 1 0 4 0 0 2 0 0 0 0 0 0 0 0 0 0
14 11 67 89 73 42 24 13 10 71 0 2 0 0 0 16 25 5 6 1 2 13 14 1 0 0 8 0 0 0 0 0 3 0 0 3 2 4 0 0 0 0 0 0 0 0 0
27 19 57 85 64 41 29 21 17 71 8 0 0 0 8 3 0 14 33 21 16 24 9 7 11 0 22 7 59 31 0 0 0 1 10 0 1 1 0 0 0 0 0 0 0 0 0
40 28 62 80 61 36 16 30 24 23 32 0 0 0 0 4 1 0 0 9 0 0 11 3 1 0 0 0 33 25 3 7 0 0 0 2 17 9 2 0 0 0 0 0 0 0 0
35 29 52 63 54 48 17 15 20 13 55 0 0 0 0 0 0 0 0 13 15 0 0 0 0 0 0 0 18 5 4 6 1 0 0 14 14 9 0 0 0 0 0 0 0 0 0
34 32 48 77 73 56 20 25 20 7 40 2 0 0 0 1 0 0 0 0 15 0 0 0 0 0 0 5 7 20 35 0 3 0 0 0 6 12 1 0 0 0 0 0 0 0 0
33 30 66 66 62 59 32 39 18 4 25 6 0 0 0 1 0 0 0 0 0 0 0 0 2 7 11 2 8 0 0 0 0 0 0 0 0 1 0 3 0 0 0 0 0 0 0
35 35 52 74 60 52 37 40 19 4 25 14 2 0 0 1 1 0 0 0 0 0 0 0 0 0 12 9 0 0 0 0 0 1 0 0 0 0 0 0 0 0 0 0 0 0 0

GFSGBSN_con_sbcape_015.txt.gz
CAPE
16 22 16 5 40 62 61 76 74 76 36 13 0 1 6 9 9 0 0 0 0 0 0 5 22 34 31 11 0 0 0 0 0 3 6 20 10 0 0 0 0 0 0 0 0 0 0
84 32 26 7 22 54 57 51 72 91 66 35 22 16 10 4 10 2 0 0 0 0 0 0 0 37 21 6 0 0 0 0 0 0 0 10 5 3 5 0 0 0 0 0 0 0 0
78 70 47 16 32 57 50 70 80 83 64 60 50 42 36 10 8 0 1 15 3 0 0 0 0 1 15 0 0 0 2 0 0 0 0 28 19 35 18 0 0 0 0 0 0 3 0
40 30 91 42 58 45 60 65 85 108 87 53 69 64 43 31 7 6 12 19 26 11 18 22 0 8 2 0 0 0 0 0 0 0 0 0 1 0 18 10 0 0 21 1 0 0 0
29 21 35 47 65 76 77 74 81 93 115 83 78 73 58 44 43 52 54 29 10 21 29 26 4 10 0 0 0 0 0 0 0 0 0 0 0 0 5 19 9 5 3 12 2 0 15
37 43 29 51 37 69 104 108 89 95 115 99 98 77 56 50 45 50 55 27 1 0 11 27 6 4 0 0 0 0 0 0 0 0 0 0 0 0 2 41 13 1 4 2 1 0 7
36 39 43 19 122 155 67 122 102 100 111 98 76 70 56 44 46 37 5 0 0 0 32 0 0 0 0 0 0 0 0 0 0 0 3 0 1 9 0 0 0 0 0 1 0 0 2
71 40 34 34 19 21 65 125 103 104 99 90 85 73 79 56 50 56 1 3 0 0 3 0 0 0 0 0 0 0 0 1 9 4 0 1 7 0 0 0 11 2 0 0 0 0 18
61 62 60 46 50 17 14 146 128 100 112 102 94 71 69 63 76 17 0 1 0 0 1 7 0 0 0 0 0 1 0 0 0 8 1 0 0 0 0 0 8 7 0 0 1 0 2
53 87 75 60 80 33 50 41 32 123 102 90 87 87 59 57 15 0 4 0 0 0 1 0 3 12 3 0 0 1 9 0 17 4 0 0 0 0 0 0 3 6 0 0 0 9 13
77 78 100 94 100 72 71 29 19 21 99 101 97 95 55 0 0 0 0 0 0 2 0 0 10 0 5 2 3 0 0 14 9 7 9 0 1 0 0 0 0 0 0 0 7 7 23
86 94 107 125 133 101 76 30 23 14 110 102 98 88 45 15 0 0 0 0 0 0 0 1 0 16 16 22 14 6 2 11 11 17 10 0 2 2 0 0 0 0 0 0 16 67 54
90 93 136 134 208 104 72 24 10 6 130 128 99 73 33 0 0 0 0 0 0 2 0 2 5 12 7 10 12 24 21 30 14 5 8 30 3 1 1 12 3 26 27 32 35 54 9
82 88 188 167 109 185 140 27 0 15 163 123 79 58 15 0 0 0 0 0 1 0 0 2 5 0 20 1 22 31 26 20 26 7 0 0 0 0 0 1 0 0 0 44 9 2 6
102 113 194 152 126 125 172 35 2 17 123 123 108 40 6 8 0 0 3 4 0 0 0 4 7 12 25 15 13 28 23 7 0 2 0 0 0 0 0 0 60 3 26 0 33 35 4
99 97 100 99 73 134 33 0 0 14 125 101 74 1 4 2 0 0 6 0 0 0 1 6 26 12 3 1 6 47 7 0 0 0 0 0 5 6 1 0 3 108 73 40 5 53 27
106 95 116 81 64 132 22 38 76 31 132 53 0 1 7 3 4 6 4 2 0 1 0 15 29 30 1 0 0 0 0 0 0 0 0 2 21 1 0 18 0 25 149 43 14 0 5
106 85 78 84 54 79 73 67 68 18 13 2 0 11 9 3 15 19 15 1 2 0 12 16 14 17 4 0 0 0 0 0 0 0 0 1 18 27 6 11 10 5 42 11 29 0 1
103 79 66 114 77 82 57 71 52 17 37 0 1 19 12 5 2 12 5 5 7 13 17 19 15 6 1 1 0 0 0 0 0 0 2 12 20 3 1 10 2 2 33 6 4 21 0
104 66 48 119 71 101 69 48 15 3 18 1 1 8 36 19 10 2 4 7 9 5 10 25 16 2 0 0 0 0 0 14 0 0 11 9 13 6 2 27 18 13 1 3 6 2 0
96 47 39 72 71 99 42 61 24 10 27 0 0 11 3 2 4 5 7 7 8 5 4 9 15 2 0 0 0 1 0 2 0 1 16 5 5 7 1 1 0 1 0 2 6 0 0
108 54 39 40 78 78 48 20 47 17 0 0 0 0 3 0 0 5 7 12 8 5 7 20 3 0 0 0 0 0 0 0 5 0 1 1 6 12 7 0 8 0 0 4 0 0 0
90 46 38 37 69 65 55 32 53 18 0 4 0 0 0 7 0 4 4 1 0 2 1 0 9 1 0 0 2 26 0 0 2 0 0 0 0 9 0 4 1 0 1 0 0 0 0
75 40 36 22 62 72 63 50 34 19 12 0 0 0 0 11 1 5 0 3 0 7 2 0 0 2 0 3 0 9 17 0 11 4 0 0 0 2 0 0 0 0 0 0 0 0 0
77 40 28 46 50 76 84 40 30 13 6 0 0 0 0 7 0 0 0 0 8 2 23 19 17 0 0 0 17 37 5 30 0 0 0 0 1 16 0 0 0 0 0 0 0 0 0
95 43 32 44 64 66 79 35 28 15 6 0 0 0 0 0 0 0 0 8 10 0 0 5 0 0 0 0 19 10 0 3 0 0 0 0 1 20 0 0 0 0 0 0 0 0 0
88 57 31 28 54 71 72 36 29 17 2 0 0 0 0 0 0 0 0 0 6 5 2 0 0 0 0 0 20 3 1 0 4 0 0 9 3 0 0 0 0 0 0 0 0 0 0
83 69 29 25 47 60 65 39 25 19 7 0 0 0 0 0 0 0 0 0 0 5 6 0 1 1 1 3 25 4 1 0 0 0 1 0 0 2 1 3 0 0 0 0 0 0 0
87 53 33 33 35 54 58 38 25 26 9 0 0 0 0 0 0 0 0 0 0 5 24 0 1 1 6 9 0 0 0 0 0 0 0 0 0 0 0 0 0 0 0 0 0 0 0

GFSGBSN_con_sbcape_018.txt.gz
CAPE
36 72 90 98 42 10 28 126 120 122 70 78 32 16 6 4 14 2 0 0 0 0 0 0 8 20 2 8 0 0 0 0 0 10 20 12 0 0 0 0 0 0 0 0 0 0 0
20 16 18 42 76 70 8 28 68 104 102 104 64 28 26 10 10 8 0 0 0 0 0 0 0 6 0 0 0 0 0 0 0 8 8 10 0 0 0 0 0 0 0 0 0 0 0
22 22 12 16 74 74 66 56 116 86 118 104 98 80 60 32 4 12 0 0 0 0 0 0 4 10 14 0 0 0 0 0 0 2 2 8 0 14 8 4 0 0 0 0 0 0 0
42 34 24 20 16 38 36 112 102 116 146 126 118 94 84 58 18 20 14 24 26 4 0 2 12 6 0 0 0 0 0 0 0 0 0 0 2 26 4 12 0 0 0 0 0 0 0
20 36 42 32 30 22 58 74 118 128 130 160 126 102 80 68 64 60 62 48 20 14 6 20 0 0 0 0 0 0 0 0 0 0 0 0 0 0 0 44 16 0 0 0 2 0 0
20 18 38 36 40 30 38 22 66 124 110 104 110 120 104 76 66 68 72 48 26 2 0 26 10 6 0 0 0 0 0 0 0 0 0 0 0 0 4 28 6 2 0 0 0 2 0
68 44 40 54 38 44 46 22 12 108 112 122 104 90 94 80 70 72 32 0 0 2 16 0 0 0 0 0 0 0 0 0 0 0 0 0 0 2 0 0 0 0 0 0 0 6 0
42 84 72 52 54 60 52 32 24 14 110 132 98 96 80 94 78 72 0 0 0 0 0 0 0 0 0 0 0 0 0 0 0 0 0 4 16 0 0 0 0 0 0 0 0 0 4
46 36 86 76 80 80 66 48 20 10 52 116 102 94 94 104 78 38 0 0 0 0 0 2 0 4 0 4 4 0 0 0 0 4 14 4 0 0 0 0 2 0 0 0 0 0 0
64 80 48 84 78 80 76 84 36 36 10 70 90 104 110 82 24 0 10 0 0 2 0 0 2 16 8 26 6 2 6 4 6 4 0 2 0 0 4 10 0 2 0 0 10 14 2
86 82 80 70 58 100 114 98 80 72 20 34 80 140 104 8 0 0 0 0 0 10 0 0 4 0 8 10 0 0 2 20 6 4 0 2 0 0 0 0 0 0 0 0 16 22 14
86 88 90 116 76 172 128 128 118 84 20 34 98 138 58 0 0 0 0 0 2 0 0 4 0 4 8 18 16 4 0 14 18 18 12 0 0 0 0 0 0 10 8 14 12 56 14
114 110 108 110 136 142 132 120 94 58 54 50 56 130 10 0 0 0 0 0 0 0 0 6 4 4 2 8 12 10 6 12 34 14 0 8 12 0 4 8 6 18 40 12 0 8 0
120 130 104 76 96 120 104 56 30 58 42 8 12 66 2 0 0 0 0 2 0 0 0 4 2 4 2 0 14 14 30 22 10 10 12 2 2 0 0 4 8 10 12 0 0 0 0
152 138 96 82 104 90 60 90 132 80 38 16 4 6 8 0 0 0 6 6 0 0 0 0 4 8 6 8 2 26 20 12 0 18 4 0 0 0 0 0 26 12 30 0 0 0 20
132 140 112 74 60 74 96 108 54 36 18 68 42 44 18 0 0 2 6 2 0 0 0 2 0 2 2 0 8 16 0 0 4 0 0 0 0 0 0 0 4 10 4 10 18 12 10
130 130 104 64 72 76 58 98 90 30 6 0 24 58 12 2 10 14 2 0 0 0 0 0 4 16 2 0 0 0 0 0 0 0 0 0 0 0 0 0 0 2 4 22 0 0 158
114 106 100 50 76 66 80 60 68 52 6 46 14 8 6 4 4 2 10 0 0 0 0 0 8 18 16 0 0 0 0 0 0 0 0 0 6 2 0 0 0 0 0 0 14 4 0
128 96 84 46 146 112 64 64 70 58 68 46 50 30 6 2 0 6 8 0 0 4 8 14 14 12 2 0 0 0 0 0 0 0 0 2 36 8 2 2 18 34 4 18 20 2 18
124 86 72 42 106 144 120 58 48 60 32 22 20 18 18 18 10 6 4 8 6 2 10 12 12 12 12 0 0 0 0 0 0 0 2 8 20 14 2 12 8 30 4 10 0 0 0
116 88 58 50 56 120 132 76 44 54 16 4 40 12 4 2 16 0 6 6 2 10 6 10 10 14 10 0 0 0 0 0 0 2 8 6 8 4 6 8 14 22 0 30 48 0 4
108 90 66 62 34 60 96 84 42 44 14 38 20 0 2 0 2 6 2 2 12 12 8 10 6 4 2 0 0 0 0 0 0 2 10 12 4 8 8 0 12 14 0 22 10 0 0
100 70 52 52 32 52 82 82 50 52 26 32 0 0 0 2 2 6 6 2 4 2 2 2 2 10 2 0 0 0 0 0 0 0 6 14 8 4 6 10 6 32 2 4 0 0 0
96 70 70 40 20 48 92 80 46 58 26 16 0 0 0 8 2 4 0 0 0 0 0 0 0 10 0 0 0 0 4 0 0 0 0 2 0 6 0 0 0 0 0 0 0 0 4
92 86 86 44 20 20 54 68 42 38 16 4 0 0 0 6 0 0 0 0 0 0 0 8 8 0 0 12 38 26 0 14 0 0 2 0 0 2 0 0 0 0 0 0 0 0 0
94 90 64 54 32 30 50 70 38 38 18 4 0 0 0 0 2 10 4 0 0 0 0 0 0 0 2 14 48 30 14 0 0 4 0 0 0 6 0 0 0 0 0 0 0 0 0
88 86 52 32 28 20 48 82 34 48 18 8 0 0 0 2 0 0 0 0 0 0 0 0 0 2 0 22 8 4 0 0 0 0 8 0 0 0 0 0 0 0 0 0 0 0 0
90 84 64 28 30 20 14 60 52 30 16 8 0 0 0 2 0 0 0 0 0 0 4 0 14 4 12 6 8 8 8 0 0 0 0 0 0 0 0 0 0 0 0 0 0 0 0
92 90 66 30 26 20 6 48 54 22 18 10 0 0 0 0 0 0 0 0 0 0 4 0 0 0 0 8 0 2 4 0 0 0 0 0 0 0 0 0 0 0 0 0 0 0 0

GFSGBSN_con_sbcape_021.txt.gz
CAPE
15 10 7 15 13 13 29 126 127 95 59 113 135 64 31 12 7 27 9 3 0 1 0 0 0 4 1 0 0 0 0 0 0 7 2 1 0 0 0 0 0 0 0 0 0 0 0
26 22 20 13 16 20 17 12 139 127 89 66 112 90 70 38 21 35 20 7 0 0 0 0 0 11 0 0 0 0 0 0 0 4 6 12 0 0 2 0 0 0 0 0 0 0 0
11 21 22 19 16 14 14 11 23 95 93 68 149 116 90 72 30 19 30 21 14 1 1 0 0 1 2 0 0 0 0 0 0 0 0 6 16 30 14 16 0 0 0 0 0 0 0
23 23 32 32 24 21 28 21 28 15 94 105 93 112 79 81 61 28 30 33 50 25 11 1 9 3 0 0 0 0 0 0 0 0 0 0 31 33 43 5 1 2 0 0 0 0 0
24 27 29 29 37 56 36 36 11 27 17 116 119 115 151 96 74 61 67 65 51 33 29 30 0 0 0 0 0 0 0 0 0 0 0 1 0 0 2 32 25 7 1 0 0 0 0
24 17 19 30 37 44 57 56 41 14 11 27 116 102 92 93 81 76 90 70 52 13 7 24 14 1 0 0 0 0 0 0 0 0 0 0 0 0 9 31 1 0 0 0 0 0 0
43 33 41 26 44 45 55 47 70 47 19 23 38 99 97 107 91 92 48 0 0 3 6 0 2 0 0 0 0 0 0 0 0 0 0 0 0 0 0 0 1 0 0 0 0 0 0
52 39 55 50 41 74 53 60 52 56 45 19 17 93 95 117 118 108 0 0 0 0 0 0 0 0 0 0 0 0 0 0 0 0 0 0 1 0 0 0 0 0 9 7 0 0 0
89 85 75 90 59 54 84 72 39 61 55 24 22 19 79 123 119 42 1 0 0 0 0 0 0 1 0 0 1 1 0 0 0 0 0 0 0 0 0 0 0 0 2 2 0 0 0
69 82 86 87 69 102 92 63 115 76 92 54 40 8 87 129 53 1 7 0 0 1 0 0 1 2 8 27 12 0 0 0 1 1 0 3 0 0 0 0 0 0 1 0 0 11 1
82 87 112 79 98 102 124 120 136 117 93 24 18 13 66 44 0 1 0 0 1 0 0 0 12 0 14 9 0 0 0 10 6 0 0 0 0 0 0 0 0 1 0 4 13 10 1
112 102 132 165 127 112 104 162 136 139 69 14 8 36 22 0 0 0 0 0 31 0 0 1 2 7 17 13 12 2 0 30 11 19 4 0 0 0 0 0 0 8 1 3 11 11 4
103 126 134 184 146 184 138 116 104 55 76 64 17 45 13 0 0 0 0 1 1 0 0 3 1 4 0 4 10 10 3 10 14 4 0 9 11 5 0 0 0 13 29 8 17 13 0
114 126 135 150 129 112 86 58 25 54 156 101 36 3 12 0 0 0 0 0 0 0 0 0 0 1 0 0 5 14 17 6 31 15 13 0 2 11 0 0 0 1 3 2 0 0 0
117 141 146 125 104 76 98 80 66 213 79 81 47 12 70 7 0 1 4 0 0 0 0 0 2 7 4 4 6 11 17 1 3 2 5 0 0 0 0 0 0 16 11 0 6 0 5
112 131 139 104 89 63 73 77 101 133 86 85 16 11 32 3 1 13 2 0 0 0 0 0 0 0 0 2 7 7 1 0 1 0 2 0 1 0 0 0 3 3 0 14 10 3 0
112 124 142 100 57 50 54 89 87 63 60 42 24 28 72 1 5 12 0 0 0 0 0 0 0 1 0 0 2 0 0 0 0 0 1 13 3 0 1 13 2 16 15 7 0 0 10
110 122 118 85 37 47 51 96 88 84 76 40 38 4 37 8 17 0 13 0 0 0 0 0 0 0 8 0 0 0 0 0 0 0 3 2 1 0 0 0 0 0 0 2 8 0 0
113 120 107 84 60 92 71 76 87 54 70 27 46 30 37 9 1 6 12 0 0 2 0 3 3 8 4 10 0 0 0 0 0 0 0 0 15 0 18 0 7 24 0 1 0 12 0
110 122 125 89 69 79 79 78 69 48 45 31 32 2 34 26 7 0 4 8 6 1 3 4 12 11 12 1 1 0 0 0 0 0 1 0 13 8 0 5 2 14 10 3 6 8 0
107 112 110 95 64 48 59 79 71 14 19 25 11 10 5 2 6 0 0 9 8 13 2 6 14 9 13 10 0 0 0 0 0 6 12 4 5 3 2 3 7 8 6 10 9 0 1
98 97 104 84 46 33 55 59 47 10 29 33 26 7 1 4 3 1 6 11 5 1 4 7 11 4 3 11 0 0 0 0 0 0 14 14 1 3 1 3 8 29 13 0 3 4 0
94 107 104 85 62 19 37 86 61 41 52 7 1 0 0 9 7 8 4 3 0 12 5 3 0 4 9 3 1 0 0 0 0 0 8 6 7 10 7 7 11 22 5 0 0 0 4
103 98 104 59 56 18 25 52 72 43 40 15 4 0 3 4 9 6 7 1 0 0 3 1 1 5 1 0 0 0 0 0 0 0 0 2 8 11 6 6 0 0 1 0 0 1 0
110 106 103 63 23 20 18 24 67 36 33 6 0 0 0 10 3 0 1 2 0 0 0 0 5 6 2 1 14 26 0 1 0 0 0 0 0 2 6 0 0 0 0 4 2 0 0
100 101 86 71 18 20 21 10 44 34 25 4 1 0 0 0 12 1 0 5 0 0 0 0 0 0 0 9 30 10 0 0 0 0 0 0 0 1 0 0 0 0 0 0 0 0 0
100 101 83 81 19 26 21 4 51 33 29 8 3 0 0 0 0 0 0 0 0 0 0 0 1 9 7 17 24 17 0 0 0 0 1 2 3 2 0 0 0 0 0 0 0 0 0
90 99 78 75 46 20 16 5 40 35 27 14 3 0 0 0 0 0 0 0 0 0 0 0 6 12 17 22 14 6 0 0 0 0 0 1 0 0 1 0 0 0 0 0 0 0 0
88 91 84 71 52 24 15 12 26 34 23 15 3 0 0 0 1 0 0 0 0 0 0 0 2 12 11 1 0 1 18 0 0 0 0 0 0 0 0 0 0 0 0 0 0 0 0

GFSGBSN_con_sbcape_024.txt.gz
CAPE
14 14 18 21 15 15 12 14 17 23 31 91 92 115 100 55 23 4 14 5 6 2 0 0 18 26 1 0 0 0 0 0 0 18 15 0 0 0 0 0 0 0 0 0 0 0 0
19 23 30 20 24 25 27 22 18 5 15 29 87 132 126 99 63 30 30 9 9 5 1 0 2 17 1 0 0 0 0 0 0 8 14 1 2 0 0 0 0 0 0 0 0 0 0
24 23 26 24 39 24 20 24 27 27 4 22 39 118 130 107 78 37 28 30 19 0 1 4 19 9 0 0 0 0 0 0 0 0 29 3 0 9 5 2 0 0 0 0 0 0 0
22 23 22 30 35 29 61 37 23 36 19 11 26 69 113 129 119 78 33 51 39 34 2 6 26 3 0 0 0 0 0 0 0 0 0 0 22 40 36 0 0 3 2 2 0 0 0
32 26 27 31 36 34 28 71 63 49 49 24 19 30 92 134 121 114 95 81 73 68 41 32 0 0 0 0 0 0 0 0 0 0 0 0 3 0 1 4 4 3 0 0 0 0 0
30 23 22 30 43 36 47 57 75 76 53 50 19 16 17 92 133 106 117 76 64 25 8 10 15 0 0 0 0 0 0 0 0 0 0 0 2 2 0 4 0 0 0 0 0 0 0
59 43 41 43 29 45 52 43 70 80 70 46 36 24 26 78 121 123 89 14 6 29 10 0 0 0 0 0 0 0 0 0 0 0 0 0 2 5 3 0 0 0 0 4 4 1 0
65 74 83 91 87 81 50 56 73 80 83 65 58 39 31 11 114 136 0 0 0 0 0 0 0 0 0 0 0 0 0 0 0 0 0 0 1 0 0 0 0 0 0 1 0 0 0
77 96 91 96 106 117 72 60 96 111 102 83 74 61 49 2 78 25 0 0 0 0 0 0 0 0 0 0 1 0 0 0 0 0 0 0 0 0 0 0 0 0 0 0 0 0 0
58 57 85 92 111 126 142 117 117 127 116 78 77 29 19 17 49 2 6 0 0 0 0 0 1 0 0 16 6 3 1 0 0 0 0 0 0 0 0 0 0 0 0 0 0 1 0
52 84 87 129 150 137 170 172 184 133 76 123 101 36 3 22 48 1 0 0 0 0 0 0 14 0 22 0 0 0 0 11 12 0 0 1 0 0 1 0 0 1 0 0 0 0 1
76 91 109 134 162 168 161 188 147 77 44 73 54 6 11 29 13 0 0 0 0 0 0 3 6 19 26 18 9 2 6 24 0 15 7 0 0 0 0 0 0 1 0 1 3 10 7
73 99 117 139 146 140 109 91 80 90 65 36 54 62 53 52 34 0 0 0 0 0 0 1 4 6 4 5 8 16 16 18 22 10 1 11 3 3 0 0 0 4 23 7 4 7 0
66 92 118 132 139 101 73 65 85 76 76 178 118 70 31 17 76 0 1 0 0 0 0 0 0 1 0 1 2 9 17 13 22 7 7 0 0 0 0 0 0 0 2 2 0 0 0
97 113 122 127 112 89 55 45 108 243 85 177 114 43 35 14 64 5 0 0 0 0 0 0 5 1 2 0 3 12 19 3 0 8 13 14 0 0 2 0 1 19 12 0 7 5 14
89 114 121 125 103 73 38 50 100 103 83 91 48 33 4 53 49 20 0 0 0 0 0 0 0 0 0 1 1 10 2 0 1 3 0 0 8 0 0 1 1 15 1 9 1 0 2
93 121 122 133 108 49 38 54 95 92 62 66 6 4 75 63 57 28 3 0 0 0 0 0 0 0 0 0 0 0 0 0 0 0 0 2 14 0 5 13 0 19 42 40 6 3 0
90 125 133 135 109 58 41 59 63 72 79 32 11 1 76 38 9 12 4 0 0 0 0 0 0 0 0 0 0 0 0 0 0 0 0 0 18 4 0 0 0 0 0 3 1 0 0
104 134 123 136 100 80 48 66 56 76 74 48 26 15 72 8 0 3 2 0 0 0 0 0 0 0 1 3 2 0 0 0 0 0 0 0 24 3 0 0 8 4 2 1 5 4 0
109 135 120 137 117 98 91 50 49 83 60 25 0 0 24 32 15 0 0 9 0 0 0 0 2 6 2 17 2 0 0 0 0 0 0 0 13 0 0 0 0 7 9 5 1 14 0
115 136 107 127 91 76 80 56 46 80 28 10 1 5 2 1 8 0 0 0 0 2 0 1 10 10 9 28 8 1 0 0 0 0 0 1 2 1 2 3 1 6 2 13 4 0 0
116 135 119 117 77 57 24 71 72 73 28 17 1 15 14 6 3 0 0 0 0 4 3 4 13 2 10 18 0 0 0 0 0 0 10 15 0 3 1 1 4 13 30 8 2 0 0
108 123 123 108 69 18 17 59 76 58 40 21 2 0 0 16 5 4 3 1 2 5 1 2 0 5 9 6 0 0 0 0 0 1 8 8 7 11 0 3 2 8 5 6 3 3 0
117 125 129 94 68 11 17 30 60 48 51 22 11 4 9 17 6 1 0 6 1 4 7 0 1 4 1 7 2 0 0 0 0 0 0 3 6 9 3 6 1 2 8 0 0 0 0
111 119 127 91 64 15 18 22 24 41 37 12 7 1 3 0 4 20 0 0 0 1 1 4 0 0 3 9 11 1 0 0 0 0 0 0 6 10 9 2 0 0 0 0 0 0 0
102 106 110 77 64 17 9 16 9 37 28 7 2 0 0 0 0 1 3 0 3 3 1 1 0 0 8 34 16 7 0 0 0 0 0 0 0 7 0 0 0 0 0 0 0 0 0
83 89 84 82 60 43 20 12 10 41 22 9 2 0 0 0 0 0 0 0 0 0 0 0 0 1 2 19 25 7 4 0 0 0 1 5 4 5 13 0 0 0 0 0 0 0 0
70 65 51 81 51 30 27 10 13 34 23 9 2 0 0 0 0 0 0 0 0 0 0 0 1 6 12 18 14 5 1 0 0 0 0 0 0 0 0 0 0 0 0 0 0 0 0
72 64 64 66 53 33 18 10 23 35 29 10 6 0 0 0 0 0 0 0 0 0 0 0 0 4 13 15 0 2 19 0 0 0 0 0 0 0 0 0 0 0 0 0 0 0 0

GFSGBSN_con_sbcape_027.txt.gz
CAPE
24 26 29 26 23 18 14 15 14 18 16 18 43 54 109 123 123 42 7 3 0 0 0 0 3 13 0 0 0 0 0 0 0 3 6 0 0 0 0 0 0 0 0 0 0 0 0
31 34 31 32 35 26 27 20 32 20 29 39 18 32 27 96 132 111 49 19 0 0 1 0 0 4 0 0 0 0 0 0 0 25 20 1 0 0 0 0 0 0 0 0 0 0 0
34 30 24 28 33 28 42 50 40 31 37 46 27 22 26 24 96 137 56 42 9 0 0 0 10 0 0 0 0 0 0 0 0 16 21 18 0 0 0 0 0 0 0 0 0 0 0
33 25 24 23 28 40 31 24 20 33 40 64 38 26 22 31 58 129 100 66 46 38 26 12 27 0 0 0 0 0 0 0 0 0 0 2 2 30 30 0 0 7 0 0 0 0 0
29 41 38 32 38 45 54 51 55 40 75 77 72 36 17 32 39 93 119 112 88 59 54 52 0 0 0 0 0 0 0 0 0 0 0 5 3 0 0 6 2 0 0 0 0 0 0
55 73 40 64 67 50 47 35 34 47 62 68 69 61 25 21 24 76 131 128 70 50 20 41 17 0 0 0 0 0 0 0 0 0 0 0 0 0 7 2 0 0 1 0 0 0 0
88 87 66 77 80 94 99 38 42 54 57 89 89 60 48 37 31 55 85 8 5 7 9 0 0 0 0 0 0 0 0 0 0 0 0 0 6 5 0 0 0 0 0 0 0 0 0
64 52 78 84 75 96 81 98 119 87 100 100 106 77 69 39 58 7 1 0 0 0 0 0 0 0 0 0 0 0 0 0 0 0 0 0 3 0 1 2 3 4 6 4 1 0 0
34 50 76 79 83 100 99 93 103 167 175 151 103 114 71 37 16 23 2 0 0 0 0 0 0 0 0 0 0 0 0 0 0 0 0 0 0 0 0 0 2 0 2 3 0 0 0
67 73 71 74 80 95 111 115 116 169 157 148 108 118 89 50 12 57 2 0 0 0 0 0 0 0 1 10 1 0 0 0 0 0 0 0 0 0 0 0 0 2 0 0 0 2 0
67 47 73 84 81 101 97 104 86 116 112 131 106 97 73 55 13 30 4 0 0 0 0 0 6 0 16 0 0 0 0 10 2 0 0 0 0 0 1 0 0 0 0 0 0 1 3
70 74 67 76 90 101 93 84 54 49 111 87 49 32 29 26 40 0 5 0 0 0 0 7 12 26 32 17 18 1 17 27 2 12 7 0 0 0 0 0 0 0 0 4 6 17 18
67 69 85 85 96 89 84 85 35 57 124 105 100 169 16 13 11 55 7 2 0 0 0 6 12 27 13 11 20 16 16 21 9 15 2 1 7 2 0 0 0 2 29 14 23 32 1
77 65 82 99 110 94 81 53 24 78 104 57 118 132 48 3 3 0 1 3 0 0 0 1 1 5 3 5 2 3 13 21 17 19 27 2 0 3 4 1 0 4 2 8 0 0 0
66 67 81 114 121 112 78 26 38 149 137 86 139 97 82 21 4 0 15 0 0 0 0 2 6 5 4 1 0 6 7 2 6 26 12 1 0 0 0 0 0 18 9 0 7 1 28
87 92 102 125 123 116 60 42 68 137 91 108 52 54 27 12 0 23 1 0 0 0 0 0 0 0 0 1 0 6 1 0 0 1 8 0 0 0 0 2 3 19 0 21 12 11 15
84 93 115 126 135 104 74 53 73 83 103 73 11 33 29 48 9 13 1 0 0 0 0 0 0 0 0 0 0 0 0 0 0 0 1 0 0 0 2 5 0 27 51 46 8 15 8
91 88 122 129 140 100 78 56 58 77 85 51 24 22 53 87 1 3 7 0 0 0 0 0 0 0 0 0 0 0 0 0 0 0 0 0 0 0 0 0 0 0 5 2 21 0 2
72 86 123 118 132 117 77 32 41 85 73 28 16 17 46 0 2 4 2 0 0 0 0 0 0 0 0 0 0 0 0 0 0 0 0 0 9 0 0 0 0 8 3 7 1 2 1
69 97 119 118 110 92 55 26 51 60 41 25 0 8 10 37 3 2 0 0 1 0 0 0 0 0 0 6 0 0 0 0 0 0 0 0 1 0 0 0 0 4 11 5 1 3 0
76 101 110 109 75 76 25 37 61 33 72 28 2 4 2 3 5 4 0 0 0 0 0 0 3 2 1 4 3 4 0 0 0 0 0 0 7 4 1 1 1 0 2 1 4 0 0
73 88 98 100 53 66 22 36 41 36 40 1 8 15 3 0 0 2 2 0 0 0 0 1 0 0 4 18 0 0 0 0 0 0 0 6 5 5 3 2 1 2 9 4 6 5 3
66 82 80 88 65 58 24 31 38 55 47 18 10 3 11 10 0 0 0 0 0 0 0 0 0 1 12 1 1 0 0 0 0 4 1 17 7 10 0 0 3 6 1 3 5 3 0
61 59 72 71 56 63 34 23 15 31 51 30 20 9 20 22 4 4 0 0 0 0 0 1 0 9 2 1 8 4 0 0 0 0 0 4 11 9 1 11 3 4 5 1 0 0 0
62 61 58 50 53 43 25 25 7 11 34 14 12 13 13 6 5 0 0 0 0 1 13 13 6 2 6 19 1 0 0 0 0 0 0 0 7 51 30 5 0 0 0 0 0 0 0
55 58 30 34 48 34 23 19 3 10 30 10 2 1 0 0 0 0 1 1 0 0 2 0 0 0 6 28 15 9 0 0 0 0 0 0 1 15 2 6 0 0 0 0 0 0 0
57 58 35 59 52 34 28 11 3 15 26 11 4 4 2 0 0 0 0 0 1 2 1 0 0 0 1 12 13 7 0 0 0 0 0 7 10 3 6 26 0 0 0 0 0 0 0
27 51 52 54 46 49 35 4 9 19 28 12 0 0 3 0 0 0 0 0 0 0 0 0 1 5 9 14 24 2 0 0 0 0 0 0 0 2 0 0 0 0 0 0 0 0 0
18 22 29 49 55 48 15 5 15 27 31 19 8 0 2 0 0 0 0 0 0 0 0 0 0 0 7 17 7 1 3 0 0 0 0 0 0 0 0 0 0 0 0 0 0 0 0

GFSGBSN_con_sbcape_030.txt.gz
CAPE
20 23 22 24 22 21 25 24 34 19 23 22 16 13 15 19 42 98 111 20 0 0 0 0 0 5 0 0 0 0 0 0 0 60 35 0 1 4 2 0 0 0 0 0 0 0 0
22 20 16 21 28 32 36 34 21 16 18 32 31 34 7 18 25 55 118 65 12 2 0 0 0 1 0 0 0 0 0 0 15 37 62 15 6 1 5 1 0 0 0 0 0 0 0
10 21 22 22 28 37 48 47 47 34 34 22 31 54 43 11 17 21 98 66 35 4 0 0 0 1 0 0 0 0 0 0 0 59 48 29 3 1 10 14 11 3 0 0 0 0 0
25 34 37 45 43 37 48 34 38 34 35 42 37 53 54 24 9 30 58 124 114 69 9 0 17 0 0 0 0 0 0 0 0 0 50 53 24 30 30 16 9 2 2 0 0 0 0
32 69 70 73 62 64 53 53 58 29 29 34 37 56 59 40 14 24 17 98 107 72 43 24 1 0 0 0 0 0 0 0 0 0 0 60 48 2 16 15 6 5 0 0 0 0 0
61 36 66 76 76 74 98 87 90 73 75 39 72 77 67 61 40 40 2 85 83 70 56 51 7 0 0 0 0 0 0 0 0 0 0 0 2 3 0 7 0 0 1 0 0 0 0
44 60 54 58 72 74 90 91 89 91 93 96 90 128 108 66 52 25 34 59 10 7 9 0 0 0 0 0 0 0 0 0 0 8 15 15 11 1 0 0 0 0 1 3 2 0 0
32 58 49 59 65 71 79 90 109 112 78 136 149 166 144 96 66 35 9 14 6 0 1 0 0 0 0 0 0 0 0 0 9 13 13 10 5 0 0 0 3 5 7 2 0 1 0
50 51 43 55 67 82 103 114 106 100 94 126 157 161 144 83 77 18 28 16 0 0 0 0 0 0 0 0 1 0 0 1 1 7 5 1 0 0 0 2 6 4 1 3 3 3 0
64 35 77 79 84 97 109 122 113 98 70 44 77 126 133 98 74 7 39 33 0 0 5 0 2 0 0 11 0 0 0 0 0 2 4 8 2 0 0 5 4 4 0 3 7 5 3
43 47 74 81 95 115 130 127 102 92 67 92 89 105 93 56 59 6 0 14 0 0 9 0 6 6 7 0 0 7 0 5 12 0 0 0 0 6 5 1 3 4 2 3 6 7 3
65 62 83 80 100 149 134 112 84 32 43 137 78 121 130 55 64 0 4 5 0 6 1 12 18 34 18 13 12 14 15 25 11 13 4 5 0 3 6 0 1 3 9 14 15 22 22
73 64 79 100 130 137 125 104 52 33 74 86 83 132 70 93 35 97 78 1 3 11 0 11 11 39 12 11 21 16 35 24 17 22 23 8 13 4 0 5 3 13 38 13 23 28 2
60 78 97 115 140 123 126 83 43 37 65 103 229 182 139 46 113 116 86 7 4 0 3 5 18 25 23 6 20 16 22 26 16 12 12 8 3 2 9 10 5 12 19 18 1 1 1
72 94 106 124 146 127 128 84 51 59 115 110 36 137 134 93 47 41 5 7 5 0 1 5 18 11 7 7 3 9 12 2 3 14 5 12 1 0 2 2 5 19 22 2 27 28 50
75 85 99 131 124 142 121 88 63 77 105 75 25 99 112 124 48 1 2 22 0 0 0 1 4 0 1 3 6 2 5 0 4 8 7 9 8 0 0 4 8 13 5 18 44 10 11
69 84 105 117 131 135 115 66 43 53 74 57 26 14 101 123 19 4 13 10 7 1 0 0 0 4 2 4 3 3 1 0 0 0 16 10 3 1 12 12 3 9 27 53 13 22 12
61 81 101 108 118 94 90 24 24 48 60 23 20 8 67 24 6 6 41 15 8 1 0 0 0 0 0 0 0 3 0 0 0 0 3 1 9 3 2 0 0 0 0 7 37 4 12
64 80 93 91 81 67 55 17 22 44 40 6 6 73 68 37 48 52 5 23 3 0 0 0 0 0 0 0 0 1 0 0 0 0 0 7 20 5 0 0 0 5 0 0 21 17 20
64 75 76 77 69 51 33 12 21 25 23 80 20 7 11 18 24 3 16 6 5 0 0 0 0 0 0 0 0 2 0 0 0 0 0 3 12 0 0 0 2 17 2 5 7 16 5
52 62 64 71 69 48 30 22 29 54 14 12 23 6 5 8 19 4 5 3 2 0 0 0 0 0 0 1 1 3 1 1 0 0 2 11 15 4 1 0 1 3 8 8 4 6 11
56 51 41 56 58 49 30 23 34 40 11 22 15 20 11 9 5 9 4 4 0 0 0 0 0 0 0 0 0 3 1 5 0 0 9 17 3 14 8 2 5 6 4 6 8 7 10
33 56 62 54 44 42 26 35 28 23 31 27 13 2 33 9 19 22 4 0 0 0 0 0 0 0 0 0 0 8 0 1 0 1 2 13 12 16 4 0 3 3 11 11 1 1 2
42 44 49 28 30 34 23 18 7 18 34 26 19 13 31 15 21 5 2 0 0 0 0 5 0 6 6 7 13 8 10 9 8 6 0 20 14 9 6 4 6 2 4 2 11 2 5
34 35 29 36 43 26 17 22 1 18 27 16 10 12 34 9 4 13 1 2 0 0 2 5 7 0 11 29 26 6 6 1 1 5 23 22 29 34 29 32 0 0 1 1 0 9 0
25 26 28 18 42 23 30 13 1 22 27 6 1 7 24 13 0 2 0 0 0 1 8 3 4 1 16 37 26 22 3 0 0 4 0 1 14 17 10 16 2 0 0 0 0 1 0
18 14 16 18 35 51 21 4 3 18 23 4 5 5 8 42 0 0 7 10 1 2 15 4 1 1 2 24 16 36 2 0 10 2 1 9 7 8 7 20 0 0 0 0 0 0 0
16 12 14 17 16 19 8 3 4 11 17 6 1 2 7 12 1 1 0 0 0 5 3 0 6 6 10 15 21 20 17 11 3 0 0 0 5 5 7 12 0 0 0 0 0 0 0
14 12 11 8 11 8 8 4 8 9 9 7 9 0 3 4 1 0 0 0 0 1 2 0 4 1 14 9 10 9 18 5 1 6 0 1 0 0 0 0 0 0 0 0 0 0 0

GFSGBSN_con_sbcape_033.txt.gz
CAPE
10 10 16 15 24 25 30 30 28 29 17 12 11 14 13 21 8 13 26 89 49 10 4 0 0 0 0 8 2 0 0 0 0 75 58 14 17 9 2 0 0 0 0 0 0 0 0
11 18 20 24 24 30 22 28 27 26 27 26 18 12 21 39 24 9 8 37 105 33 8 0 0 0 0 0 0 0 0 0 4 40 39 25 25 18 22 10 0 1 0 0 0 0 0
26 25 50 41 32 27 45 43 29 28 19 19 23 27 14 37 36 26 4 25 113 60 28 4 0 0 3 0 0 0 0 0 12 13 52 23 9 0 19 8 7 1 1 0 0 0 0
45 59 48 50 45 80 66 63 67 66 70 42 37 31 40 33 47 40 14 17 55 95 42 2 0 1 0 0 0 0 0 0 0 61 52 50 17 22 23 14 2 0 1 0 0 0 0
34 42 44 57 71 78 90 63 64 98 110 97 59 46 42 61 59 53 22 22 12 105 66 34 20 7 5 0 0 0 0 10 8 7 46 43 33 31 38 24 5 6 0 0 0 0 0
31 29 49 72 79 91 72 80 79 94 87 91 86 86 70 76 79 59 43 19 15 92 62 60 21 4 0 0 0 0 0 18 12 13 32 23 16 3 1 19 5 3 2 0 0 0 0
52 70 68 75 76 80 83 102 105 122 124 104 114 105 138 123 123 66 56 13 136 47 55 22 0 0 0 0 0 0 0 16 13 14 4 1 4 1 0 12 6 0 0 0 0 0 0
64 66 49 71 72 86 103 120 146 164 138 107 105 92 150 175 151 91 78 10 20 21 4 0 0 3 0 0 1 0 0 7 2 5 4 7 10 0 1 0 0 0 0 0 0 0 0
47 48 61 77 75 85 106 144 167 179 143 123 71 31 87 156 143 73 73 0 4 1 21 15 5 2 0 0 6 2 1 7 9 8 0 10 0 0 0 0 0 0 0 0 0 0 0
44 63 63 79 101 132 143 153 160 149 111 58 32 58 112 89 79 55 72 54 29 0 7 6 11 2 2 1 3 8 0 4 8 1 4 8 1 0 0 0 0 1 0 0 0 1 0
44 57 72 88 111 127 149 148 145 128 58 64 67 90 62 63 57 66 63 48 19 4 23 8 13 9 10 0 2 10 3 12 5 9 0 0 0 6 3 0 2 1 2 0 2 6 0
40 64 87 101 106 128 139 140 131 102 51 65 69 91 116 78 87 50 74 47 28 3 24 11 12 11 6 13 10 18 16 17 9 7 7 5 1 5 7 1 3 2 1 1 4 8 7
42 74 75 95 105 120 125 130 89 56 67 64 87 25 213 58 42 72 77 9 7 21 0 23 16 19 10 3 12 24 17 17 8 24 13 8 3 1 2 5 6 10 14 2 4 18 0
56 74 73 89 104 110 126 110 81 65 48 65 48 36 171 81 73 140 28 4 44 8 5 3 26 27 18 4 13 5 6 22 11 4 2 2 5 3 0 4 4 1 12 0 0 0 0
57 62 72 93 99 116 120 102 46 30 79 84 58 65 157 157 111 31 31 24 69 5 4 11 33 27 19 13 7 18 19 14 12 7 1 4 0 0 8 5 3 8 13 1 15 7 5
49 65 75 86 86 85 76 64 18 12 82 45 27 35 90 93 74 45 42 1 24 5 0 14 6 2 11 16 13 6 11 4 0 3 5 3 4 0 8 7 1 5 4 4 16 6 1
54 65 74 79 76 67 60 37 24 30 42 27 6 52 117 55 35 8 20 54 37 7 3 8 3 2 1 8 6 3 1 0 1 1 7 0 2 1 2 4 1 3 13 14 8 15 9
49 57 72 74 62 59 49 37 27 32 46 42 22 9 78 45 53 21 53 26 10 9 0 3 7 3 3 5 8 7 0 0 0 0 2 2 0 7 0 0 0 5 0 5 29 0 3
39 52 62 64 48 45 44 29 22 14 32 30 33 24 87 56 121 73 18 22 16 8 3 3 5 1 0 6 1 7 1 0 0 0 4 2 8 3 1 0 0 1 0 0 12 17 12
44 53 55 46 59 61 36 21 7 2 7 130 52 18 16 21 25 41 28 27 19 17 5 0 0 0 0 2 0 3 0 0 0 0 0 8 6 0 0 14 5 2 3 5 4 17 5
39 41 62 46 45 38 33 20 7 9 0 57 114 18 8 33 73 29 25 13 16 14 1 1 0 1 0 1 5 2 2 1 0 0 0 6 22 6 8 4 2 4 4 1 3 3 3
48 45 37 29 31 30 30 27 4 23 0 8 11 32 20 16 9 26 3 3 17 5 7 8 7 0 0 3 3 1 0 3 2 3 6 9 24 24 10 0 0 8 0 4 9 6 6
29 35 29 20 48 30 20 30 5 29 13 16 9 7 32 10 25 17 0 4 14 6 3 0 2 2 4 4 0 1 1 3 3 2 7 14 21 20 1 0 0 8 2 4 8 11 13
15 19 31 22 29 24 25 15 4 28 34 22 17 8 18 20 24 7 3 1 0 0 5 3 0 4 13 1 1 2 0 0 1 1 0 6 20 28 4 0 2 2 0 0 1 3 9
11 9 10 25 20 38 32 10 2 15 26 18 14 6 25 16 13 2 7 9 1 0 6 10 11 4 11 11 21 7 11 5 0 6 23 4 11 16 15 3 0 0 0 0 4 2 1
12 9 7 13 14 21 12 4 5 9 14 4 4 8 12 30 16 12 8 8 17 12 7 9 9 7 4 17 13 27 9 0 6 6 2 11 24 19 10 11 2 0 0 0 2 3 0
16 11 7 6 8 4 7 4 5 8 8 3 5 7 8 40 18 5 5 11 6 9 8 13 10 10 11 19 28 16 5 1 2 6 4 19 17 12 17 15 1 0 0 0 3 0 0
19 14 10 7 9 8 11 7 13 10 6 5 1 3 6 7 23 4 16 18 13 10 13 9 3 4 12 11 36 17 27 17 4 7 3 1 4 9 9 25 1 0 0 0 0 0 0
19 18 11 11 13 14 17 15 16 10 9 8 6 0 3 7 30 12 8 1 8 19 29 7 26 1 13 7 20 23 38 5 9 5 0 3 2 4 4 0 5 0 0 0 0 0 0

GFSGBSN_con_sbcape_036.txt.gz
CAPE
16 23 20 29 25 22 28 37 26 34 42 45 42 42 29 19 24 16 22 16 16 104 51 9 0 0 0 5 0 4 0 0 15 79 55 35 0 0 0 0 0 0 0 0 0 0 0
28 33 56 60 53 39 38 46 44 39 55 57 67 47 42 32 32 43 38 24 10 40 89 22 0 0 0 0 0 0 0 0 0 11 61 57 15 11 12 1 1 1 0 0 0 0 0
62 44 50 49 49 57 86 88 57 81 96 93 79 62 44 39 37 43 52 46 14 5 124 37 4 0 3 0 0 0 0 0 17 9 74 64 12 12 15 9 4 1 0 0 0 0 0
48 36 29 46 66 69 68 83 68 76 102 98 136 121 61 50 46 51 61 60 18 6 79 72 43 1 7 0 0 0 0 0 0 27 43 78 36 15 18 3 3 0 0 0 0 0 0
47 33 50 83 72 89 83 79 89 106 91 124 129 145 127 94 69 60 69 66 33 7 40 75 45 17 1 0 0 0 0 0 0 56 49 100 45 7 15 8 11 1 0 0 0 0 0
39 70 76 53 70 81 83 94 99 129 172 155 150 158 161 128 113 104 92 78 27 2 71 51 40 31 0 0 0 0 0 2 2 2 67 63 2 6 16 14 1 0 0 0 0 0 0
63 36 41 69 72 91 112 111 127 165 163 149 161 165 144 88 152 130 107 79 104 87 49 20 11 0 0 0 0 0 0 5 8 16 22 42 10 1 0 0 0 0 0 0 0 0 0
31 46 52 69 80 102 122 132 145 159 165 178 147 105 44 76 112 154 134 31 1 16 33 12 10 13 0 0 0 0 0 8 6 19 5 1 0 0 0 7 2 0 0 0 0 0 0
36 60 71 79 93 109 120 134 138 151 154 153 63 36 76 85 62 25 110 21 2 0 36 12 16 14 1 0 0 0 0 1 5 7 0 4 0 0 0 0 0 0 0 0 0 0 0
57 58 68 77 86 102 109 119 134 138 122 74 39 65 77 71 36 41 74 81 26 10 2 28 7 25 1 7 1 0 0 4 9 0 0 0 0 0 0 0 0 0 0 0 0 0 0
65 78 70 74 85 91 100 111 132 109 73 48 59 86 113 143 10 0 76 98 54 51 6 11 11 10 0 0 0 2 0 11 4 6 7 0 0 0 0 0 0 0 0 0 0 0 0
71 61 65 73 82 79 102 113 98 67 54 52 51 68 90 36 71 0 18 79 5 4 3 21 4 7 17 32 11 0 6 6 2 2 1 1 1 0 0 0 0 0 0 0 0 0 0
42 55 64 75 75 73 86 94 71 54 43 42 28 60 39 154 27 18 86 0 3 5 3 23 12 21 13 19 22 6 11 3 0 0 5 3 0 1 0 1 1 4 4 0 1 2 0
43 59 72 75 70 66 66 72 43 36 45 64 58 56 112 41 132 90 26 19 8 13 11 0 17 19 7 19 20 16 23 10 7 0 0 2 0 2 0 1 1 3 0 0 0 0 0
50 64 69 77 69 55 52 55 29 17 65 86 45 21 135 106 116 70 26 4 12 2 3 20 30 5 12 13 9 17 6 9 0 5 0 1 0 0 0 1 1 5 1 0 0 0 0
51 56 73 70 66 59 45 46 32 48 78 117 42 14 93 75 96 38 36 13 24 6 5 17 11 10 6 1 4 13 12 1 2 1 0 0 0 0 7 1 1 0 0 0 3 0 0
61 62 68 55 46 54 41 40 32 35 71 41 4 47 75 85 68 18 33 14 30 4 1 3 0 3 1 7 7 4 0 0 2 0 1 0 1 0 0 0 0 0 1 1 1 1 0
57 43 71 58 42 45 33 28 13 25 108 23 4 16 43 75 1 5 47 36 30 8 4 10 4 0 3 3 6 0 0 0 0 0 0 0 1 0 0 0 0 0 0 0 3 0 0
53 65 75 48 37 48 26 18 5 20 63 127 36 52 63 27 30 40 2 24 11 10 17 12 2 3 0 0 0 4 0 0 0 0 1 0 0 0 0 0 0 0 0 0 0 0 0
53 54 70 42 47 50 25 16 4 12 4 201 73 3 17 20 10 7 10 9 3 6 13 4 0 2 2 0 2 0 0 0 0 0 3 0 3 0 0 0 5 0 0 0 1 1 0
42 38 47 48 51 29 22 10 2 20 0 88 78 4 5 11 38 17 12 18 1 19 3 4 8 10 4 0 0 0 0 0 0 0 0 0 1 0 0 0 0 0 0 0 0 1 2
33 32 29 40 37 19 26 9 5 22 0 3 4 10 15 0 11 21 1 8 25 21 12 15 1 0 0 1 0 2 0 0 0 0 0 2 0 1 0 0 0 0 0 0 0 4 6
28 26 21 20 38 41 38 10 2 23 6 10 3 3 7 3 3 7 19 0 10 11 1 1 0 1 3 0 0 0 0 0 0 0 0 9 1 1 0 0 0 0 0 1 0 2 6
29 22 22 17 22 38 29 16 7 10 21 20 12 9 1 12 8 0 11 7 9 1 0 0 0 7 1 0 0 0 0 0 0 0 0 11 13 20 0 0 0 0 0 0 0 0 0
26 24 28 20 9 13 12 11 8 8 11 6 9 9 7 21 1 5 6 13 4 10 4 5 10 3 0 0 0 1 2 1 0 0 0 0 12 19 3 2 0 0 0 0 0 0 0
32 19 31 25 14 12 16 12 7 12 5 0 5 8 8 22 9 5 0 3 0 3 0 7 2 3 0 4 2 1 5 6 3 0 1 5 11 12 1 3 0 0 0 0 0 0 0
44 19 24 26 18 15 20 21 14 13 3 3 4 6 6 12 16 6 2 2 3 5 9 9 9 7 4 12 7 1 0 1 1 3 1 13 5 5 10 6 0 0 0 0 0 0 0
34 17 26 29 17 19 24 23 18 13 5 6 0 2 5 5 2 18 12 6 6 10 14 1 0 5 4 4 3 4 7 8 6 1 0 1 4 2 7 8 0 0 0 0 0 0 0
31 17 26 33 16 21 26 22 23 15 8 7 7 0 4 6 2 10 6 2 1 1 19 1 11 0 5 3 0 6 17 9 0 0 0 0 0 0 0 0 0 0 0 0 0 0 0

GFSGBSN_con_sbcape_039.txt.gz
CAPE
26 63 39 51 40 40 58 66 72 67 74 63 61 69 52 66 38 44 33 15 28 33 28 104 21 4 4 4 0 2 108 202 73 69 38 9 4 0 1 0 0 0 0 0 0 0 0
74 43 41 40 47 50 75 72 75 62 69 98 103 84 90 71 68 45 42 45 33 33 12 40 41 38 3 0 0 0 0 0 7 65 42 45 6 0 0 0 0 0 0 0 0 0 0
37 46 28 58 69 54 64 63 74 96 108 123 107 101 131 98 70 60 48 44 54 45 8 23 62 10 11 0 0 0 0 0 0 0 43 44 25 0 1 0 0 0 0 0 0 0 0
31 44 84 66 40 34 66 86 96 112 128 125 122 147 190 155 121 98 70 51 57 32 11 4 103 10 4 0 0 0 0 0 0 0 42 90 21 3 10 0 0 0 0 0 0 0 0
32 57 48 36 47 76 91 102 120 137 129 147 180 189 203 192 134 142 105 79 65 24 18 1 35 7 1 0 0 0 0 0 0 37 43 90 13 3 17 4 5 0 0 0 0 0 0
68 50 35 47 70 92 98 101 108 115 141 155 157 172 164 186 137 112 155 98 60 34 0 20 19 5 0 0 0 0 0 0 0 41 93 57 1 0 0 1 0 0 0 0 0 0 0
42 48 58 65 82 96 98 97 107 135 139 139 152 160 116 53 106 119 60 13 24 48 30 6 19 0 0 0 0 0 0 0 0 9 2 49 0 0 0 0 0 0 0 0 0 0 0
43 58 37 74 85 96 90 100 112 126 139 129 135 81 22 87 118 124 15 1 21 6 1 16 4 1 0 0 0 0 0 1 3 6 0 0 0 2 2 1 3 0 0 0 0 0 0
41 62 60 77 87 94 93 94 106 117 114 85 43 36 54 111 70 0 0 0 13 1 8 43 27 6 0 0 0 0 0 1 0 9 0 0 0 0 0 0 1 0 0 0 0 0 0
61 30 48 74 84 75 76 84 89 73 52 47 38 53 68 81 15 12 8 11 4 0 7 20 34 10 9 4 0 0 0 0 1 0 0 0 0 0 0 0 0 0 0 0 0 0 0
40 38 58 72 79 68 69 73 75 58 40 43 37 54 60 94 45 3 33 11 22 1 0 16 30 7 21 0 0 2 0 11 0 0 0 0 0 0 0 0 0 0 0 0 0 0 0
38 51 64 77 79 67 66 67 62 49 27 21 19 40 99 28 47 6 0 34 2 0 0 19 2 29 22 10 2 0 2 1 0 6 0 0 0 0 0 0 0 0 0 0 0 0 0
27 41 60 73 75 67 68 57 59 40 23 25 44 70 100 67 36 1 0 0 0 0 4 12 16 19 10 34 1 0 7 2 0 0 1 2 1 0 0 0 0 1 0 0 0 0 0
29 25 47 67 67 67 66 54 43 36 61 76 59 198 11 68 9 5 0 0 0 22 11 11 13 21 22 19 6 9 5 0 0 0 0 0 0 0 0 0 0 0 0 0 0 0 0
34 37 45 71 47 61 57 60 39 33 55 81 135 3 39 8 5 0 15 0 1 12 14 13 5 22 11 16 10 16 11 0 0 0 0 0 0 0 0 0 0 0 1 0 0 0 0
31 40 37 59 36 49 47 49 37 72 130 20 0 5 76 12 0 4 4 26 6 12 9 3 3 0 10 12 5 5 11 1 1 0 0 0 0 1 4 1 0 0 0 0 0 0 0
28 43 55 63 25 41 39 38 12 56 194 14 0 16 17 35 0 10 0 6 9 9 4 7 0 1 0 6 2 7 0 0 0 0 0 0 0 0 0 0 0 0 2 1 0 0 0
32 39 45 47 23 47 25 28 7 30 122 0 0 0 0 0 0 4 54 54 4 2 0 6 0 0 0 0 1 1 0 0 0 0 0 0 0 0 0 0 0 0 0 0 0 0 0
32 29 32 52 51 35 22 18 3 17 20 1 0 0 2 10 4 8 17 6 5 10 35 20 3 0 0 0 0 1 0 0 0 0 1 0 0 0 0 0 0 0 0 0 0 0 0
16 25 27 31 28 41 31 14 1 6 1 0 0 0 0 1 2 1 15 6 4 14 18 0 0 0 13 4 0 0 0 0 0 0 11 0 0 0 0 0 0 0 0 0 0 0 0
25 22 20 29 38 37 34 9 3 11 0 0 0 0 0 0 6 1 5 0 16 9 5 6 27 2 3 0 0 0 0 0 0 0 0 0 0 0 0 0 0 0 0 0 0 0 0
24 24 21 24 28 10 25 10 6 8 2 0 0 4 0 0 2 0 0 3 15 0 0 0 0 0 0 0 0 0 0 0 0 0 0 0 0 0 0 0 0 0 0 0 0 0 0
15 25 21 28 22 13 6 7 7 6 6 7 1 0 6 0 0 0 0 1 2 0 0 0 0 0 0 0 0 0 0 0 0 0 0 0 0 0 0 0 0 0 0 0 0 0 0
14 34 22 16 22 17 8 10 6 11 7 10 8 6 4 0 0 0 1 0 0 0 0 0 0 0 0 0 0 0 0 0 0 0 0 0 0 0 0 0 0 0 0 0 0 0 0
13 34 25 18 23 20 13 13 8 15 7 1 4 7 8 0 0 0 0 0 0 0 0 0 0 0 0 0 1 0 0 0 0 0 0 4 3 0 0 0 0 0 0 0 0 0 0
15 35 15 17 24 23 18 19 11 10 9 0 0 7 8 2 0 13 0 7 2 4 1 2 1 0 0 0 0 0 0 0 0 0 0 0 2 20 0 3 0 0 0 0 0 0 0
21 34 10 25 28 24 28 15 14 11 11 4 0 4 5 6 3 14 0 0 10 7 2 4 4 2 0 0 0 0 0 0 0 0 1 25 20 7 0 3 0 0 0 0 0 0 0
15 37 12 25 30 25 30 15 18 9 9 5 3 2 4 3 0 18 24 9 4 2 6 0 0 2 0 4 0 0 0 0 3 0 0 1 2 19 19 7 0 0 0 0 0 0 0
9 28 11 33 31 26 21 15 17 12 8 7 8 0 3 4 0 0 0 0 2 5 0 0 2 0 5 0 0 0 0 0 0 0 0 0 0 0 0 0 0 0 0 0 0 0 0

GFSGBSN_con_sbcape_042.txt.gz
CAPE
38 28 36 30 41 70 41 31 50 66 94 104 123 133 127 90 84 59 62 40 29 16 4 15 9 37 18 11 0 0 82 76 21 23 0 3 10 0 0 0 0 0 0 0 0 0 0
38 36 46 50 27 28 46 62 73 85 109 119 122 113 132 160 135 113 77 73 33 31 16 7 7 59 17 0 0 0 0 116 82 46 30 30 17 0 0 0 0 0 0 0 0 0 0
21 37 52 23 37 52 69 76 82 93 107 117 134 142 153 177 161 162 138 76 66 35 39 4 0 42 15 0 0 0 0 12 10 60 16 14 21 3 0 0 0 0 0 0 0 0 0
20 59 37 33 40 59 69 81 75 88 101 119 141 183 197 195 180 177 166 100 41 36 33 4 7 66 3 0 0 0 0 0 0 0 58 83 13 1 0 0 0 0 0 0 0 0 0
57 25 47 36 51 63 73 81 82 94 100 120 125 170 177 174 184 160 147 151 105 60 34 18 9 30 0 0 0 0 0 0 0 0 2 94 52 10 1 0 0 0 0 0 0 0 0
26 33 55 51 57 69 76 79 83 84 99 114 107 126 142 126 89 134 137 111 73 47 14 15 4 6 0 0 0 0 0 0 0 74 78 76 34 8 13 2 2 0 0 0 0 0 0
25 44 37 53 66 66 69 86 79 88 86 93 83 68 58 44 76 115 22 0 0 4 12 30 4 0 0 0 0 0 0 0 0 5 19 16 2 1 6 0 0 0 0 0 0 0 0
37 46 25 52 66 74 73 77 80 63 69 71 47 52 42 59 106 113 7 1 1 3 0 0 2 0 0 0 0 0 0 1 1 10 2 25 5 0 0 0 1 0 0 0 0 0 0
26 23 35 60 65 72 67 75 72 66 69 56 59 54 55 78 79 5 7 3 2 6 10 3 31 5 0 0 0 0 0 0 0 0 0 1 0 0 0 1 8 0 0 0 0 0 0
33 19 53 58 78 69 66 64 71 58 56 28 33 38 51 97 64 15 7 0 4 1 0 10 28 22 8 1 0 0 6 0 13 6 0 0 0 0 0 0 0 0 0 0 0 0 0
32 15 49 59 65 62 67 73 61 59 36 22 23 22 76 131 57 8 45 8 9 0 0 8 22 28 16 2 0 0 0 3 0 0 0 0 0 0 0 0 0 0 0 0 0 0 0
21 22 37 60 61 44 68 67 58 42 55 64 67 109 138 80 17 19 28 23 5 1 0 42 29 29 15 0 0 0 7 0 0 0 0 0 0 0 0 0 0 0 0 0 0 0 0
20 29 21 58 55 42 60 53 42 57 92 74 111 152 175 86 47 25 3 24 0 0 2 4 14 21 1 8 0 10 11 0 0 1 0 0 0 0 0 0 0 0 0 0 0 0 0
19 30 38 59 34 40 44 37 39 37 124 158 156 122 11 36 12 0 2 0 0 3 9 6 4 8 9 10 8 20 2 0 0 0 0 0 0 0 0 0 0 0 0 0 0 0 0
20 32 40 48 16 48 38 37 20 82 218 76 1 1 1 0 1 0 10 0 0 15 10 13 13 35 19 11 10 4 0 0 0 0 0 0 0 0 0 0 0 0 0 0 0 0 0
25 33 28 37 23 47 16 33 11 84 161 37 0 5 8 16 0 0 3 24 5 6 8 1 3 0 13 5 9 6 4 0 0 0 0 0 0 0 0 0 0 0 0 0 0 0 0
27 20 17 25 22 9 10 31 9 13 46 2 0 6 0 0 0 0 5 32 12 5 6 0 0 0 0 1 0 1 0 0 0 0 0 0 0 0 2 0 0 0 0 0 0 0 0
25 17 19 8 14 24 17 26 5 9 8 0 0 0 0 0 0 4 17 10 3 0 0 0 0 0 0 0 0 0 0 0 0 0 0 0 0 0 0 0 0 0 0 0 0 0 0
21 14 15 9 12 23 15 17 9 4 8 4 0 0 0 0 3 0 10 6 1 6 3 2 0 0 0 0 0 1 0 0 0 0 0 0 0 0 0 0 0 0 0 0 0 0 0
23 21 13 10 6 6 4 7 8 1 0 0 0 0 0 0 0 3 4 3 4 4 0 0 0 0 0 0 0 0 0 0 0 1 13 0 0 0 0 0 0 0 0 0 0 0 0
18 21 13 13 8 5 3 2 9 5 0 0 0 0 0 0 0 2 1 0 2 10 1 0 0 0 7 0 0 0 0 0 0 1 0 0 0 0 0 0 0 0 0 0 0 0 0
17 27 15 16 8 6 6 4 6 15 0 0 0 1 0 0 0 0 0 0 0 0 0 0 0 0 0 0 0 0 0 0 0 0 0 0 0 0 0 0 0 0 0 0 0 0 0
9 33 16 21 18 6 5 6 6 18 1 0 1 0 6 0 0 0 0 0 0 0 0 0 0 0 0 0 0 0 0 0 0 0 0 0 0 0 0 0 0 0 0 0 0 0 0
6 26 24 17 23 10 6 5 8 12 13 5 5 5 3 0 0 0 0 0 0 0 0 0 0 0 0 0 0 0 0 0 0 0 0 0 0 0 0 0 0 0 0 0 0 0 0
5 20 21 12 26 13 8 6 9 7 16 3 7 7 7 0 0 0 0 0 0 0 1 0 0 0 0 0 0 0 0 1 0 0 0 0 0 0 0 0 0 0 0 0 0 0 0
6 15 40 10 29 16 9 8 7 10 14 0 0 8 7 7 0 0 0 0 0 0 0 0 0 0 0 0 0 0 0 0 3 7 1 2 16 1 0 0 0 0 0 0 0 0 0
11 12 47 12 29 25 14 9 13 11 9 2 5 6 5 6 2 0 0 0 2 5 2 7 2 0 0 0 0 0 0 0 0 2 25 38 29 0 0 0 0 0 0 0 0 0 0
15 15 44 11 25 26 19 17 8 7 8 3 9 3 6 3 0 2 0 1 2 5 1 0 0 0 1 0 0 0 0 0 0 0 2 2 0 2 0 1 0 0 0 0 0 0 0
22 17 38 14 24 36 19 39 33 24 5 6 11 4 9 4 0 0 0 0 2 4 0 0 1 0 1 0 0 0 4 0 0 0 0 0 0 0 0 0 0 0 0 0 0 0 0

GFSGBSN_con_sbcape_045.txt.gz
CAPE
22 28 33 40 25 28 52 59 70 73 73 78 82 101 122 173 155 154 141 136 90 44 20 11 3 10 72 9 0 0 59 211 11 86 24 0 0 0 0 0 0 0 0 0 0 0 0
29 35 59 28 30 28 59 62 73 74 75 79 86 96 123 164 163 165 195 157 118 63 42 19 14 12 16 0 0 0 0 99 106 29 0 11 0 0 0 0 0 0 0 0 0 0 0
35 63 29 33 25 64 61 71 62 70 75 88 90 95 127 176 188 191 220 202 128 96 75 20 11 12 11 0 0 0 103 188 165 105 5 16 2 0 0 0 0 0 0 0 0 0 0
45 42 38 43 54 57 64 62 65 80 74 79 82 82 101 139 187 212 226 241 180 112 79 36 28 25 21 0 0 0 0 3 46 55 66 61 12 8 0 0 0 0 0 0 0 0 0
46 45 51 39 56 59 73 75 68 83 81 84 77 76 60 72 154 126 178 207 194 166 104 61 25 18 2 0 0 0 0 0 0 0 68 99 57 24 4 4 0 0 0 0 0 0 0
36 46 50 41 55 60 76 75 87 88 90 80 73 54 48 39 55 120 197 209 171 110 51 57 36 49 0 0 0 0 0 0 0 35 71 156 81 9 6 1 0 0 0 0 0 0 0
51 31 36 60 61 67 78 77 72 89 93 85 64 57 55 31 66 155 63 0 0 3 23 0 9 0 0 0 0 0 0 0 104 52 47 50 33 16 1 0 0 0 0 0 0 0 0
51 46 36 68 65 67 70 80 80 99 76 74 59 25 37 41 126 159 7 15 0 3 1 0 0 2 2 0 0 0 0 0 65 83 11 76 14 2 4 5 1 0 0 0 0 0 0
35 29 31 43 58 68 64 80 91 69 64 52 27 24 27 52 128 6 0 0 0 6 4 0 2 12 7 0 5 0 0 3 27 14 8 4 2 1 3 0 1 1 0 0 0 0 0
30 19 28 40 61 56 47 75 70 59 55 61 74 95 59 62 55 30 1 16 0 4 1 2 2 13 5 11 6 0 2 18 12 0 0 0 0 0 0 0 0 0 0 0 0 0 0
19 29 21 26 68 29 60 69 47 66 112 116 156 138 95 95 15 80 21 14 3 5 0 0 23 28 30 2 0 1 0 0 1 0 0 0 0 0 0 0 0 0 0 0 0 0 0
18 25 33 55 59 15 59 50 51 76 176 226 190 142 76 65 37 37 48 27 0 0 1 9 17 22 7 5 1 0 7 0 0 0 0 0 0 0 0 0 0 0 0 0 0 0 0
17 15 31 48 36 31 51 33 43 86 173 83 99 119 24 36 1 31 21 22 0 0 3 4 9 11 2 25 17 13 2 0 1 1 1 0 0 0 0 0 0 0 0 0 0 0 0
13 26 19 27 42 29 24 30 17 53 141 96 18 0 6 0 2 0 0 0 0 1 2 15 9 14 29 17 21 8 0 0 0 0 0 0 0 0 0 0 0 0 0 0 0 0 0
9 22 10 21 21 19 27 22 13 26 105 122 2 0 1 5 0 0 0 0 0 1 7 22 23 25 19 3 4 5 6 0 0 0 0 0 0 0 0 0 0 0 0 0 0 0 0
18 12 10 14 20 30 22 19 13 11 20 17 0 0 0 0 0 0 1 9 3 3 6 0 6 8 5 0 14 0 0 0 0 0 0 0 0 0 0 0 0 0 0 0 0 0 0
8 20 9 10 13 10 16 11 8 7 8 0 0 0 0 0 0 0 1 9 7 1 3 0 0 0 0 0 0 1 0 0 0 0 0 0 0 0 0 1 0 0 0 0 0 0 0
7 11 11 12 14 8 5 5 5 6 7 0 0 0 0 0 0 0 18 9 2 0 0 0 0 0 0 0 0 0 0 0 0 0 0 0 0 1 0 0 0 0 0 0 0 0 0
9 9 5 10 18 13 5 4 4 2 7 3 0 0 0 0 0 1 1 1 1 0 0 0 0 0 0 0 0 0 0 0 0 0 0 0 0 0 0 0 0 0 0 0 0 0 0
8 9 13 5 12 12 7 4 4 2 0 0 0 0 0 0 0 3 3 0 0 0 0 0 0 0 0 0 0 0 0 0 0 0 0 0 0 0 0 0 0 0 0 0 0 0 0
8 3 23 7 10 11 10 6 4 1 0 0 0 0 1 0 0 0 0 0 1 0 0 0 0 0 0 0 0 0 0 0 0 9 0 0 0 0 0 0 0 0 0 0 0 0 0
4 0 19 11 16 6 10 9 5 2 0 0 0 2 0 0 0 0 0 0 0 0 0 0 0 0 0 0 0 0 0 0 0 0 0 0 0 0 0 0 0 0 0 0 0 0 0
2 1 9 10 17 16 0 10 8 5 0 0 0 0 5 0 0 0 0 0 0 0 1 0 0 0 0 0 0 0 0 0 0 0 0 0 0 0 0 0 0 0 0 0 0 0 0
4 4 6 7 15 21 10 6 12 6 7 0 6 5 1 0 0 0 0 0 0 0 0 0 0 0 0 0 0 0 0 0 0 0 0 0 0 0 0 0 0 0 0 0 0 0 0
5 6 5 26 4 28 18 10 10 8 6 0 1 4 7 0 0 0 0 0 0 0 0 0 0 0 0 0 0 0 0 0 0 0 0 0 0 0 0 0 0 0 0 0 0 0 0
3 12 5 30 6 17 23 9 9 10 7 0 0 11 6 6 0 0 0 0 0 0 0 0 0 0 0 0 0 0 0 0 4 7 0 0 1 1 0 0 0 0 0 0 0 0 0
7 10 1 31 3 8 23 18 9 7 3 0 1 7 4 7 0 0 0 0 0 0 2 6 2 0 0 0 0 0 0 0 0 11 18 30 32 9 0 0 0 0 0 0 0 0 0
0 11 2 22 8 3 37 24 7 12 8 0 9 10 7 5 0 0 0 0 0 0 0 0 0 0 0 0 0 0 0 0 0 0 1 4 9 3 2 0 0 0 0 0 0 0 0
9 8 2 23 17 7 38 44 49 46 27 10 5 17 10 5 0 0 0 0 0 0 3 0 0 0 0 0 0 0 0 0 0 0 0 0 0 0 0 0 0 0 0 0 0 0 0

GFSGBSN_con_sbcape_048.txt.gz
CAPE
32 33 56 35 51 38 60 63 63 74 73 68 72 81 83 88 102 110 148 174 217 196 137 61 26 13 14 4 0 0 5 57 0 28 21 0 1 0 0 0 0 0 0 0 0 0 0
35 37 32 41 53 60 59 61 54 76 84 70 75 82 87 84 89 119 189 208 227 234 199 116 56 15 25 3 0 0 0 109 17 153 55 0 0 0 0 0 0 0 0 0 0 0 0
31 37 37 31 51 53 64 72 78 82 86 86 84 90 93 71 76 118 208 221 210 248 211 126 72 38 19 0 0 0 0 132 72 215 70 0 0 0 0 0 0 0 0 0 0 0 0
42 22 44 33 40 55 70 83 90 85 82 91 92 98 77 85 79 112 166 201 227 225 208 139 63 56 19 1 0 0 0 123 168 102 110 29 2 0 0 0 0 0 0 0 0 0 0
25 35 27 41 64 69 79 83 81 86 78 93 115 103 82 66 68 107 172 262 278 264 247 156 45 40 44 33 0 0 0 63 139 50 108 76 54 25 2 0 0 0 0 0 0 0 0
19 31 28 35 42 67 77 63 86 78 91 103 105 107 79 62 86 117 194 179 173 95 93 106 62 25 33 1 0 0 0 0 4 67 142 130 53 36 1 3 0 2 0 0 0 0 0
28 21 21 29 43 62 70 50 71 80 86 77 46 52 26 25 91 175 89 0 0 0 25 0 13 0 8 2 0 0 0 2 76 42 96 59 37 16 4 1 0 0 0 0 0 0 0
17 18 20 36 57 61 35 45 68 62 64 92 117 92 74 31 107 182 0 0 0 0 1 0 2 0 0 25 0 2 0 0 53 54 49 19 18 11 0 0 0 0 0 0 0 0 0
20 13 22 33 40 55 16 60 57 63 109 151 226 218 151 119 51 4 0 0 0 2 14 19 6 16 27 15 16 1 0 6 48 84 54 25 4 6 10 17 24 3 0 0 0 0 0
17 13 29 46 52 25 32 48 43 90 125 186 139 176 183 86 9 42 2 10 0 12 0 5 0 24 6 18 2 0 0 47 32 25 3 0 7 10 13 8 1 2 0 0 0 0 0
12 15 33 42 36 22 45 25 68 62 110 82 113 133 84 26 12 31 23 9 10 1 0 0 4 39 47 9 1 1 0 2 24 1 0 0 2 0 10 0 0 0 0 0 0 0 0
12 13 31 22 41 23 27 38 41 45 72 31 30 59 33 2 12 30 3 1 0 0 0 2 31 10 6 4 22 12 8 0 0 0 0 0 0 0 0 0 0 0 0 0 0 0 0
7 13 27 22 23 28 30 29 25 23 30 73 6 7 11 2 0 26 6 0 0 0 2 9 10 6 10 30 30 32 5 4 0 0 0 0 0 0 0 0 0 0 0 0 0 0 0
4 14 20 19 20 19 21 17 14 13 6 70 5 0 3 1 9 0 0 0 0 0 1 4 11 16 27 28 31 6 0 0 0 0 0 0 0 0 0 0 0 0 0 0 0 0 0
6 12 16 14 14 14 15 15 17 6 13 11 0 0 0 5 0 0 0 0 0 1 3 4 7 9 22 20 21 6 0 0 0 0 0 0 0 0 0 0 0 0 0 0 0 0 0
6 15 14 14 11 11 12 15 8 10 5 0 0 0 0 0 0 0 0 0 1 4 4 1 2 0 1 9 0 1 0 0 0 0 0 0 0 0 0 0 0 0 0 0 0 0 0
6 14 18 13 12 10 8 14 6 7 5 0 0 0 0 0 0 0 0 3 3 0 1 0 0 0 0 1 0 0 0 0 0 0 0 0 0 0 0 0 0 0 0 0 0 0 0
6 12 21 13 16 11 8 9 8 10 5 0 0 0 0 0 0 0 6 5 2 0 0 0 0 0 0 0 0 0 0 0 0 0 0 0 0 2 0 0 0 0 0 0 0 0 0
7 8 15 17 14 12 7 5 7 6 8 6 0 0 0 0 0 0 0 0 0 0 0 0 0 0 0 0 0 0 0 0 0 0 0 0 0 0 0 0 0 0 0 0 0 0 0
5 8 15 18 9 12 7 4 3 3 0 0 0 0 0 0 0 1 1 2 0 0 0 0 0 0 0 0 0 0 0 0 0 0 0 0 0 0 0 0 0 0 0 0 0 0 0
7 7 7 28 13 13 8 5 1 1 0 0 0 0 1 0 0 0 0 0 0 0 0 0 0 0 0 0 0 0 0 0 0 0 0 0 0 0 0 0 0 0 0 0 0 0 0
7 7 8 22 16 12 10 2 5 0 0 0 0 0 0 0 0 0 0 0 0 0 0 0 0 0 0 0 0 0 0 0 0 0 0 0 0 0 0 0 0 0 0 0 0 0 0
8 10 12 27 11 8 12 4 4 2 0 0 0 0 1 0 0 0 0 0 0 0 1 0 0 0 0 0 0 0 0 0 0 0 0 0 0 0 0 0 0 0 0 0 0 0 0
5 5 12 23 19 0 17 12 1 7 2 0 6 6 1 0 0 0 0 0 0 0 0 0 0 0 0 0 0 0 0 0 0 0 0 0 0 0 0 0 0 0 0 0 0 0 0
4 10 10 13 47 2 18 19 8 7 9 0 0 4 6 1 0 0 0 0 0 0 0 0 0 0 0 0 0 0 0 0 0 0 0 0 0 0 0 0 0 0 0 0 0 0 0
13 12 8 4 49 7 6 20 14 12 8 0 0 8 8 9 0 0 0 0 0 0 0 0 0 0 0 0 0 0 0 0 5 3 0 0 0 0 0 0 0 0 0 0 0 0 0
21 15 14 20 31 37 9 33 11 11 15 0 0 5 5 7 0 0 0 0 0 0 0 0 0 0 0 0 0 0 0 0 0 6 9 11 15 2 0 0 0 0 0 0 0 0 0
26 10 33 25 14 38 16 32 21 22 29 2 1 25 15 9 0 0 0 0 0 0 1 0 0 0 0 0 0 0 0 0 0 0 0 0 0 4 3 3 0 0 0 1 0 0 0
11 13 42 30 17 51 10 17 29 40 33 17 0 15 23 12 2 0 0 0 0 0 0 0 0 0 0 0 0 0 2 0 0 2 0 0 0 0 0 0 0 0 0 0 0 0 0

GFSGBSN_con_sbcape_051.txt.gz
CAPE
22 24 35 30 51 28 37 53 53 71 73 73 79 88 87 95 97 79 86 94 137 176 208 189 156 80 47 82 7 0 0 0 14 0 14 13 2 10 10 0 0 0 0 0 0 0 0
20 36 34 37 36 33 60 65 68 78 82 91 98 94 91 112 114 80 99 140 204 244 266 261 184 113 51 14 0 0 0 0 4 5 109 10 0 0 2 0 0 0 0 0 0 0 0
26 30 38 24 34 41 59 62 67 67 82 84 102 125 133 132 124 147 137 166 186 240 275 293 202 89 47 1 0 0 0 137 13 7 148 23 0 1 0 0 0 0 0 0 0 0 0
15 27 39 31 35 46 61 66 53 66 85 95 118 159 214 165 140 128 155 196 227 262 306 265 198 66 23 30 12 2 0 30 68 261 279 90 0 0 0 0 0 0 0 0 0 0 0
20 22 23 31 40 63 74 56 40 55 90 90 85 84 110 155 83 167 146 252 317 331 344 281 98 42 38 135 15 2 0 0 205 178 92 100 28 42 3 0 0 0 0 0 0 0 0
13 27 16 34 35 59 78 28 49 67 62 63 106 137 69 30 17 101 201 259 173 57 140 210 122 28 14 29 19 0 0 30 112 152 121 119 90 27 3 0 0 0 0 0 0 0 0
15 26 17 34 44 73 37 19 71 52 86 113 166 173 176 66 18 107 79 0 0 0 7 0 1 0 62 47 51 15 0 36 116 69 44 73 27 5 5 0 0 0 0 0 0 0 0
18 18 26 27 37 64 23 61 39 70 81 85 104 131 162 144 55 91 0 0 0 0 0 0 0 0 0 0 45 22 0 26 98 65 0 63 20 4 0 0 0 0 0 0 0 0 0
9 21 20 34 27 33 33 31 73 39 67 82 79 123 162 128 48 0 0 0 0 1 5 1 28 16 1 16 6 2 0 1 39 16 4 3 13 13 2 13 2 0 0 0 0 0 0
17 19 30 23 25 20 28 56 41 32 32 61 44 59 129 46 0 5 0 20 1 5 0 17 39 20 26 54 3 0 3 25 25 22 0 6 13 10 13 14 7 9 0 0 0 0 0
16 15 30 25 20 24 32 36 35 29 23 44 17 39 63 32 17 26 8 19 9 0 0 0 8 29 45 23 0 1 0 13 22 0 0 0 27 38 8 0 0 0 0 0 0 0 0
14 11 21 20 19 18 15 12 17 18 18 50 13 4 12 0 4 4 0 0 0 0 0 0 12 6 17 9 14 31 44 0 0 0 0 0 0 0 0 0 0 0 0 0 0 0 0
14 10 18 14 21 18 11 13 13 9 7 17 13 0 0 0 7 0 0 0 0 0 0 35 8 2 13 30 22 17 5 0 1 1 2 2 0 0 0 0 0 0 0 0 0 0 0
8 12 19 17 18 17 11 12 10 8 6 7 0 0 0 0 0 0 0 0 0 2 2 7 2 22 2 5 16 10 2 0 0 0 0 0 3 0 0 0 0 0 0 0 0 0 0
8 7 17 18 11 16 9 9 10 9 7 9 0 0 0 0 0 0 0 0 0 0 7 4 7 13 31 6 8 1 0 0 0 0 0 0 0 0 0 0 0 0 0 0 0 0 0
7 8 11 15 12 14 10 6 7 9 8 2 0 0 0 0 0 0 0 0 2 8 4 2 3 0 8 6 10 2 0 0 0 0 0 0 0 0 0 0 0 0 0 0 0 0 0
7 8 14 14 20 10 12 6 7 7 7 0 0 0 0 0 0 0 0 1 1 0 0 0 0 0 0 0 0 0 0 0 0 0 0 0 0 1 0 0 0 0 0 0 0 0 0
7 8 10 31 19 15 9 6 7 5 12 0 0 0 0 0 0 0 2 1 0 0 0 0 0 0 0 0 0 0 0 0 0 0 0 0 0 2 0 0 0 0 0 0 0 0 0
5 8 12 17 18 9 10 6 3 4 9 4 0 0 0 0 0 0 0 0 0 0 0 0 0 0 0 0 0 0 0 0 0 0 0 0 0 0 1 0 0 0 0 0 0 0 0
4 9 12 12 22 12 15 10 3 0 1 0 0 0 0 0 0 0 0 0 0 0 0 0 0 0 0 0 0 0 0 0 0 0 0 0 0 0 0 0 0 0 0 0 0 0 0
2 8 11 11 27 21 16 10 4 0 0 0 0 0 1 0 0 0 0 0 0 0 0 0 0 0 0 0 0 0 0 0 0 0 0 0 0 0 0 0 0 0 0 0 0 0 0
7 8 8 5 32 13 14 5 6 0 0 0 2 3 0 0 0 0 0 0 0 0 0 0 0 0 0 0 0 0 0 0 0 0 0 0 0 0 0 0 0 0 0 0 0 0 0
3 3 6 9 30 16 11 13 1 5 0 0 0 1 7 0 0 0 0 0 0 0 0 0 0 0 0 0 0 0 0 0 0 0 0 0 0 0 0 0 0 0 0 0 0 0 0
9 7 8 9 14 37 13 15 0 2 0 0 5 8 5 0 0 0 0 0 0 0 4 0 0 0 0 0 0 0 0 0 0 0 0 0 0 0 0 0 0 0 0 0 0 0 0
17 16 15 12 10 43 20 21 4 0 2 0 0 5 17 3 0 0 0 0 0 0 0 0 0 0 0 0 0 0 0 0 0 0 0 0 0 0 0 0 0 0 0 0 0 0 0
22 21 14 14 39 30 42 12 23 7 2 0 0 10 10 21 0 0 0 0 0 0 0 0 0 0 0 0 0 0 0 0 5 1 0 0 0 0 0 0 0 0 0 0 0 0 0
18 27 21 17 49 29 38 30 11 6 11 0 0 4 8 20 0 3 2 0 0 0 0 0 0 0 0 0 0 0 0 0 0 6 4 20 16 0 0 0 0 0 0 0 1 0 0
15 28 22 33 54 28 33 18 8 8 11 2 0 0 37 17 4 1 4 1 0 0 0 0 0 0 0 0 0 0 0 0 1 0 0 0 3 6 1 3 0 0 0 2 0 0 0
10 19 30 43 48 46 66 34 6 21 24 16 0 0 33 14 3 1 0 0 0 0 0 0 0 0 0 0 0 0 2 0 2 2 0 0 0 0 0 0 0 0 0 0 0 0 0

GFSGBSN_con_sbcape_054.txt.gz
CAPE
22 30 27 50 32 24 39 66 67 61 66 83 95 92 108 95 136 157 123 127 131 156 117 112 92 83 78 16 2 17 0 0 249 80 40 35 69 74 42 14 2 0 0 0 0 0 0
14 24 40 38 35 44 34 64 61 60 56 84 99 99 132 142 180 209 183 178 209 192 190 203 199 114 54 21 1 29 0 0 18 125 25 108 25 63 34 23 3 0 0 0 0 0 0
18 28 22 36 38 40 51 58 41 27 55 95 95 86 96 172 180 199 153 199 250 252 229 242 246 176 59 0 19 21 1 1 89 79 11 148 59 65 25 22 7 0 0 0 0 0 0
17 20 20 30 33 49 73 24 5 42 88 90 99 115 127 114 147 154 170 179 218 267 294 307 221 162 10 2 0 0 28 7 72 32 94 240 199 85 34 13 0 0 0 0 0 0 0
17 26 18 23 48 58 45 23 73 50 81 95 120 136 170 155 74 25 69 192 300 339 279 322 213 81 2 189 48 2 57 39 248 126 260 244 130 39 22 25 12 5 0 0 0 0 0
19 13 15 35 48 39 33 39 25 70 77 88 78 85 125 170 54 7 147 247 218 132 260 250 83 63 0 105 97 81 76 15 311 125 246 199 108 100 66 25 0 0 0 0 0 0 0
11 16 15 44 26 27 27 22 61 59 81 76 48 83 114 143 123 2 184 63 4 38 103 1 8 50 58 0 222 39 0 117 346 161 64 68 36 54 16 1 0 0 0 0 0 0 0
16 14 19 26 31 21 30 55 56 53 67 63 26 64 134 112 66 85 78 4 0 2 4 0 0 0 0 0 42 31 1 262 74 49 38 43 45 23 40 20 3 0 0 0 0 0 0
9 13 20 26 22 24 18 26 34 40 47 49 23 45 146 104 35 8 5 10 11 23 9 4 17 0 0 0 31 4 8 30 67 22 25 16 14 39 20 17 9 1 0 0 0 0 0
12 13 22 19 21 22 15 16 16 29 34 33 18 44 31 7 13 9 15 21 15 5 27 10 12 2 2 4 67 22 0 34 27 7 0 1 9 25 41 19 10 15 0 0 0 0 0
6 7 22 22 22 16 15 17 15 20 26 10 9 10 11 0 19 5 11 28 14 0 3 0 15 5 9 8 2 3 1 41 5 9 12 4 1 55 32 17 21 17 0 0 0 0 0
13 9 24 19 20 16 14 16 14 13 19 7 15 0 0 1 17 16 8 8 3 8 6 18 10 4 6 2 12 6 43 0 16 5 3 3 22 0 1 0 0 0 0 0 0 0 0
10 7 18 21 16 15 14 13 13 11 12 9 9 0 0 0 0 3 16 10 5 7 0 7 21 4 10 26 23 26 5 5 13 29 5 7 3 1 0 1 0 0 0 9 1 6 0
7 10 10 26 15 14 17 12 14 11 10 11 3 0 0 0 0 0 9 3 0 6 6 4 4 9 23 27 40 19 2 1 0 0 16 17 8 0 0 0 1 4 1 3 0 0 0
6 10 10 23 14 13 11 11 10 8 10 12 0 0 0 0 0 0 6 8 7 2 4 5 15 1 14 5 23 3 2 0 0 0 1 10 6 0 0 0 0 0 1 0 0 0 0
7 8 10 14 18 13 11 12 10 7 16 2 1 0 0 0 0 0 9 7 5 3 3 3 1 2 7 3 10 9 3 0 0 0 0 0 7 0 0 0 0 0 0 0 0 0 0
7 9 9 9 22 15 14 12 9 8 8 1 0 0 0 0 0 0 8 13 2 1 0 0 0 0 6 3 0 0 0 0 0 0 0 0 0 1 0 0 0 0 0 0 0 0 0
6 8 8 6 26 7 12 8 8 8 7 3 0 0 0 0 0 2 10 4 0 0 0 0 0 0 0 0 0 0 0 0 0 0 0 0 0 8 3 0 0 0 0 0 0 0 0
5 6 5 4 25 16 14 9 6 5 5 18 2 0 0 0 3 3 1 1 0 0 0 0 0 0 0 0 0 0 0 0 0 0 0 0 0 7 7 1 0 0 0 0 0 0 0
6 7 5 7 20 16 7 7 4 4 0 1 1 1 0 0 1 1 0 0 0 0 0 0 0 0 0 0 0 0 0 0 0 0 0 0 0 0 0 0 0 0 0 0 0 0 0
6 6 4 7 5 17 5 5 1 0 0 0 2 1 0 2 1 0 0 0 0 0 0 0 0 0 0 0 0 0 0 0 0 0 0 0 0 0 0 0 0 0 0 0 0 0 0
4 5 4 4 4 27 21 7 1 0 0 0 3 9 1 0 0 0 0 0 0 0 0 0 0 0 0 0 0 0 0 0 0 0 0 0 0 0 0 0 0 0 0 0 0 0 0
5 7 3 4 6 20 15 10 2 1 0 5 3 2 10 1 0 0 1 0 0 0 0 0 0 0 0 0 0 0 0 0 0 0 0 0 0 0 0 0 0 0 0 0 0 0 0
8 22 10 17 5 1 35 11 17 2 0 0 2 8 7 2 1 0 0 0 0 0 7 0 0 0 0 0 0 0 0 0 0 0 0 0 0 0 0 0 0 0 0 0 0 0 0
6 24 21 21 17 32 25 36 23 2 0 0 0 14 14 15 0 0 1 0 0 0 1 2 0 0 0 0 2 8 8 4 1 0 0 0 0 1 3 0 0 0 0 0 0 0 0
1 21 28 32 26 27 24 32 32 20 12 0 3 16 22 20 0 0 1 0 0 0 0 0 0 0 0 0 2 1 0 5 4 4 0 0 0 6 2 1 0 0 0 0 0 16 0
7 28 30 38 24 38 17 16 27 31 27 14 6 5 11 29 0 6 4 4 0 0 2 0 0 0 0 3 11 3 3 0 3 9 18 20 12 13 10 1 0 0 0 0 23 1 0
22 29 30 31 28 33 27 45 33 28 11 27 20 11 36 32 1 0 0 12 6 0 8 0 2 1 2 26 6 0 0 7 5 6 5 5 12 16 12 6 0 0 0 3 1 0 0
19 24 19 25 22 22 18 19 44 27 22 31 18 0 37 32 11 0 0 0 0 0 5 0 1 0 1 11 0 0 3 11 11 14 0 2 0 0 0 0 0 0 0 0 0 0 0

GFSGBSN_con_sbcape_057.txt.gz
CAPE
17 24 19 27 25 31 32 37 49 35 35 57 69 71 73 75 94 120 137 168 209 254 269 218 161 107 66 48 2 9 110 306 459 233 11 45 11 34 55 28 0 0 0 0 0 0 0
16 22 16 26 27 35 57 53 22 32 62 76 76 77 78 95 118 132 186 197 247 259 233 202 182 133 48 38 0 0 33 9 373 203 7 41 7 27 53 42 9 0 1 0 0 0 0
21 26 16 20 30 43 45 36 43 49 55 80 88 99 116 149 166 125 163 200 223 254 255 240 165 162 66 2 2 201 20 9 10 313 13 20 24 66 38 23 41 8 2 4 0 0 0
16 12 17 26 36 26 35 34 33 32 70 89 98 94 114 176 203 96 98 92 227 245 313 301 238 161 38 11 0 0 8 27 1 259 72 47 171 102 55 33 40 25 10 5 0 0 0
14 15 13 22 19 28 27 38 43 57 63 71 76 66 130 189 197 89 7 64 210 338 354 310 256 157 16 104 0 0 21 54 42 333 64 108 284 138 126 51 52 41 0 0 0 0 0
12 11 13 23 18 19 25 49 45 45 52 62 48 99 180 162 155 0 1 179 210 186 282 234 183 73 4 4 84 12 44 68 99 178 100 133 137 91 76 83 31 0 0 0 0 0 0
13 11 11 17 17 22 19 23 28 35 53 57 41 72 163 118 92 0 127 172 146 216 170 82 42 13 29 1 50 0 213 128 247 116 37 190 109 70 14 0 0 0 0 0 0 0 0
11 5 12 13 17 20 19 20 21 29 41 52 42 46 72 46 22 48 107 73 38 36 35 0 0 2 0 19 3 86 70 50 288 40 41 224 0 28 34 24 17 0 0 0 0 0 0
11 7 13 13 15 20 17 23 13 24 33 46 44 30 5 32 15 50 61 7 2 20 41 21 35 13 0 13 15 92 62 38 61 15 42 17 9 0 13 22 19 6 0 0 0 0 0
6 8 12 10 12 20 17 22 20 13 19 30 28 23 3 0 13 30 7 3 13 11 60 4 14 19 8 6 1 0 24 7 2 40 46 2 24 10 16 30 14 23 0 0 0 0 0
8 8 8 14 12 16 20 18 16 21 12 15 10 21 0 0 9 4 8 8 25 9 18 0 1 0 0 42 13 11 1 24 1 3 0 7 2 29 16 21 23 31 7 1 0 0 0
8 8 8 12 8 13 20 14 14 11 16 8 10 5 1 18 8 1 2 10 4 19 9 11 16 10 26 14 23 31 47 0 2 0 2 6 0 1 7 0 37 26 0 0 0 0 1
9 6 6 8 9 9 15 12 14 9 10 10 9 4 3 0 12 10 17 19 8 15 5 26 11 17 23 29 38 11 14 8 6 4 4 3 3 5 0 0 0 23 42 27 21 14 4
7 6 6 3 13 9 13 17 10 9 6 12 7 0 0 1 8 16 8 6 9 11 10 4 4 12 10 21 22 4 17 15 28 7 14 38 18 5 7 0 3 4 47 71 13 10 0
7 5 6 3 15 11 10 17 13 7 13 16 0 0 0 4 3 10 4 12 3 6 6 3 12 9 12 16 14 1 16 13 5 6 4 12 20 9 4 7 1 9 3 0 0 0 0
7 5 5 5 12 5 5 14 9 5 12 8 1 0 0 0 1 5 13 1 7 1 2 1 1 1 2 5 7 4 12 0 0 0 0 0 9 1 1 9 0 2 0 0 0 0 0
3 6 5 6 7 5 3 7 11 3 4 0 0 0 0 0 0 7 18 8 5 4 2 3 2 5 3 7 5 1 1 0 0 0 0 0 0 1 0 1 1 0 0 0 0 0 0
3 6 6 8 9 8 1 3 9 5 6 4 4 7 0 0 7 10 11 2 0 8 1 0 4 6 10 8 7 1 2 3 0 0 0 0 2 10 5 0 0 0 4 0 0 0 0
4 7 9 9 3 13 1 1 2 3 1 21 2 0 0 0 2 6 0 1 0 1 0 0 0 0 0 0 1 0 0 0 0 0 0 0 0 5 3 0 0 0 0 0 0 0 0
3 6 5 5 5 20 4 1 0 0 0 3 4 1 0 6 2 15 3 0 0 0 0 0 0 0 0 0 0 0 0 0 0 0 0 0 0 0 0 0 0 0 0 0 0 0 0
4 2 5 5 7 12 16 2 0 0 0 3 5 1 2 10 16 9 6 1 0 0 0 0 0 0 0 0 0 0 0 0 0 0 0 0 0 0 0 0 0 0 0 0 0 0 0
4 3 12 4 9 10 25 9 3 0 0 0 2 8 6 2 1 1 6 9 2 0 0 0 0 0 0 0 0 0 0 0 0 0 0 0 0 0 0 0 0 0 0 0 0 0 0
3 6 9 11 15 14 19 19 12 0 0 0 3 11 14 2 3 4 7 21 14 0 0 0 0 0 0 0 0 0 0 0 0 0 0 1 0 0 1 0 0 0 0 0 0 0 0
4 5 22 17 26 27 26 33 15 0 0 1 5 10 16 0 3 2 0 1 8 16 18 0 0 1 0 0 0 0 0 0 0 0 0 4 1 0 1 0 0 0 0 0 0 0 0
0 0 29 31 37 29 41 29 33 10 0 3 7 21 15 8 1 0 3 5 9 8 30 28 7 0 0 0 10 9 10 6 6 2 1 5 7 8 3 0 0 0 0 0 0 0 0
0 5 20 33 41 27 35 24 34 16 14 4 9 6 28 17 2 3 2 4 11 31 31 18 1 0 1 31 25 4 1 1 2 10 0 0 8 2 5 3 0 2 0 0 0 5 0
3 13 27 20 35 28 39 36 47 37 16 12 16 13 10 15 0 3 14 9 5 0 26 21 3 16 0 23 39 9 1 5 3 3 9 14 18 12 0 2 0 0 0 0 15 4 0
1 16 23 26 26 20 29 25 28 37 43 26 27 31 18 19 0 0 0 2 5 5 32 36 37 19 41 37 36 22 11 5 4 6 4 11 9 4 1 0 0 0 0 1 0 0 0
6 18 15 25 5 2 38 23 17 41 16 41 24 26 29 44 2 0 0 5 6 4 9 5 32 21 46 46 15 7 9 8 4 3 0 1 1 5 0 3 0 0 2 0 0 0 0

GFSGBSN_con_sbcape_060.txt.gz
CAPE
15 16 14 15 23 44 36 39 25 32 41 67 86 88 104 121 192 182 171 174 201 175 178 215 250 211 131 60 2 0 175 27 158 373 24 60 0 44 37 5 0 0 0 0 0 0 0
13 8 14 14 31 25 31 33 32 22 59 75 71 113 121 164 229 228 228 184 218 229 219 211 172 164 74 2 1 9 15 64 99 211 82 34 0 17 14 64 2 0 0 0 0 0 0
10 8 11 17 23 26 21 35 52 62 53 60 77 105 146 152 191 242 227 149 202 244 235 206 212 69 22 1 25 286 115 1 3 164 130 9 5 10 38 46 39 4 5 0 1 0 0
9 7 9 13 15 20 26 22 28 43 42 65 79 73 111 151 183 191 103 90 100 226 236 319 249 140 8 0 0 0 29 2 2 0 109 9 18 13 81 82 32 36 6 5 0 0 0
9 7 8 14 15 20 21 18 30 41 44 48 63 47 83 149 146 82 16 1 140 239 341 352 228 119 7 111 0 0 0 0 5 0 189 202 160 88 47 38 31 31 0 1 0 0 0
7 7 8 12 18 24 20 20 18 41 39 38 43 41 66 87 49 1 2 75 215 234 313 209 174 73 10 19 60 17 0 17 7 96 207 170 147 62 48 47 11 1 0 0 0 0 0
4 7 5 14 11 20 23 21 23 18 30 27 24 34 18 26 23 0 137 260 161 226 152 107 35 14 14 0 176 57 51 0 6 187 20 23 44 0 0 0 0 0 0 0 0 0 0
3 5 4 10 8 11 18 18 17 10 22 16 16 30 12 8 12 39 67 8 24 10 4 6 0 0 10 0 1 30 74 29 10 39 48 55 4 0 0 0 3 5 0 0 0 0 0
3 0 4 8 15 20 16 15 17 18 10 7 16 12 15 0 4 36 10 5 1 16 2 17 33 15 2 0 1 9 26 37 21 16 1 10 9 11 23 12 21 0 0 0 0 0 0
3 1 4 8 10 7 15 14 14 16 12 11 5 7 12 0 5 8 5 0 10 10 15 14 14 24 17 0 0 50 73 56 49 11 62 32 8 0 19 14 11 14 0 3 3 0 0
4 2 2 7 16 8 11 16 11 12 11 9 4 6 4 2 20 7 2 0 26 7 1 0 1 0 15 3 1 12 17 20 6 8 0 0 2 8 4 7 33 14 10 4 0 0 0
3 2 1 4 9 12 15 10 13 10 9 9 8 6 1 9 19 1 12 24 11 5 1 3 2 1 13 2 12 6 23 1 5 0 0 2 0 2 4 5 1 29 12 0 0 0 1
2 1 3 5 8 8 14 9 12 7 7 6 8 5 1 0 9 8 12 11 2 2 0 3 4 12 9 6 2 0 2 11 5 1 1 1 2 0 0 13 5 5 1 8 30 8 0
3 4 3 5 6 11 15 19 11 7 5 13 2 0 0 0 4 2 0 4 0 3 5 5 0 3 5 6 8 13 26 18 12 0 3 4 3 2 0 1 0 13 1 15 0 1 0
2 4 4 5 6 12 13 12 14 1 10 6 0 0 0 2 0 0 3 2 1 0 1 3 16 8 4 0 0 15 7 1 14 1 9 19 11 7 9 0 0 0 1 0 0 0 0
2 4 6 7 5 10 10 10 10 3 8 0 3 0 0 0 0 0 5 0 4 0 0 1 9 7 1 1 0 3 0 0 0 0 0 0 7 8 10 0 0 0 0 0 0 0 0
1 4 6 8 5 8 8 11 9 4 4 0 0 0 0 0 0 0 0 2 1 1 1 0 3 1 0 0 8 1 1 0 0 0 0 0 0 13 6 6 7 4 5 0 0 0 0
1 2 6 6 6 7 16 9 7 5 6 0 0 0 0 0 0 17 2 0 0 2 1 0 0 2 8 0 2 0 0 0 0 0 0 0 0 3 0 0 0 0 0 0 0 0 0
1 3 9 4 6 7 16 6 3 2 3 13 1 0 0 0 3 5 0 0 0 0 0 0 0 0 0 2 0 0 0 0 0 0 0 0 0 0 0 0 0 0 0 0 0 0 0
0 3 7 4 6 4 22 5 3 0 0 0 0 0 0 10 1 4 4 1 3 0 0 0 0 0 0 0 0 0 0 0 0 0 0 0 0 0 0 0 0 0 0 0 0 0 0
0 1 4 5 15 8 5 7 3 0 0 0 0 1 3 0 5 0 4 4 3 2 0 0 0 0 0 0 0 0 0 0 0 0 0 0 0 0 0 0 0 0 0 0 0 0 0
0 0 1 1 9 21 28 21 5 0 0 0 0 11 2 1 0 0 1 6 2 7 0 0 0 0 0 0 0 0 0 0 0 0 0 0 0 0 0 0 0 0 0 0 0 0 0
0 0 0 7 24 28 33 28 8 0 0 0 0 1 14 0 0 3 4 11 9 4 0 0 0 0 0 0 0 0 0 0 0 0 0 0 0 0 0 0 0 0 0 0 0 0 0
0 0 0 26 27 26 32 11 22 10 0 2 2 11 6 1 0 0 0 1 0 16 12 8 0 0 0 0 0 0 0 0 0 0 0 0 0 0 0 0 0 0 0 0 0 0 0
0 0 0 24 29 21 24 17 11 5 1 1 6 5 2 0 0 0 0 0 0 4 8 23 1 0 0 0 4 0 2 0 2 0 0 0 2 1 0 0 0 0 0 0 0 0 0
0 0 4 24 26 22 22 32 36 36 3 0 8 3 11 9 0 0 2 0 0 10 19 4 0 0 0 7 9 13 6 2 1 3 0 0 5 0 4 0 0 0 0 0 0 0 0
0 0 0 25 32 15 16 26 10 30 27 2 6 14 12 1 0 0 5 7 7 1 2 0 0 0 0 11 15 1 1 4 2 3 0 0 3 7 2 2 0 0 0 0 3 0 0
0 0 4 22 21 5 12 17 9 23 43 20 0 28 39 25 0 0 0 1 0 5 5 2 7 1 4 12 12 10 0 2 4 3 2 7 8 8 8 4 0 0 0 1 0 0 0
0 0 4 15 4 0 14 12 26 32 39 31 28 15 29 11 0 0 0 0 0 0 18 1 1 10 23 16 15 6 2 0 0 1 0 0 0 1 0 0 0 0 0 0 0 0 0

GFSGBSN_con_sbcape_063.txt.gz
CAPE
8 8 14 17 23 22 25 19 38 56 35 39 41 78 79 117 118 158 196 215 192 181 158 129 110 114 62 26 0 1 23 25 0 103 63 32 0 88 74 47 9 0 0 0 0 0 0
9 8 13 9 21 16 23 20 25 32 26 41 48 43 63 100 142 151 200 226 132 148 174 164 141 95 62 9 1 4 20 3 40 131 81 50 1 0 78 65 10 0 0 0 3 0 0
7 6 12 10 17 21 27 21 29 20 29 41 46 23 37 51 139 140 166 103 107 132 191 205 179 45 55 18 0 37 69 73 63 78 113 24 11 9 2 18 17 0 21 7 0 0 0
6 6 10 13 6 22 20 20 17 23 23 28 35 24 33 51 50 44 40 27 34 106 177 218 232 138 19 0 0 0 2 10 70 10 73 123 8 0 3 16 15 37 0 16 0 0 0
4 6 9 6 10 14 17 21 22 14 28 20 31 37 26 31 1 7 5 0 36 152 239 317 208 99 0 85 11 0 0 0 49 1 0 126 30 19 0 18 13 25 0 0 0 0 0
3 6 7 8 15 11 23 22 23 19 14 26 23 21 10 13 2 0 0 54 112 118 165 180 172 34 8 9 5 8 0 88 63 38 59 120 58 14 27 0 3 0 0 0 0 0 0
2 3 6 8 22 20 17 18 17 23 16 8 19 14 22 0 0 0 0 0 0 0 30 31 18 0 6 0 45 106 42 19 29 3 165 64 39 0 0 0 0 0 0 0 0 0 0
1 2 5 12 17 15 18 19 19 21 19 10 5 13 12 3 8 14 1 0 1 0 0 0 28 0 2 0 0 51 1 0 6 2 17 46 7 0 0 0 0 0 0 0 0 0 0
0 2 4 12 6 13 8 10 14 17 18 18 7 13 8 3 7 2 0 0 0 2 7 3 15 30 1 0 1 34 0 1 1 7 17 4 4 0 0 0 0 0 0 0 0 0 0
1 2 2 9 13 32 19 10 9 11 13 14 16 11 6 4 0 0 0 0 0 2 9 19 14 25 18 0 4 16 0 3 1 13 2 5 2 3 8 0 0 0 0 0 0 0 0
0 1 1 9 8 19 13 10 6 17 13 12 14 4 5 5 0 0 0 0 0 0 0 1 2 1 3 0 8 13 12 24 0 7 0 8 1 11 24 13 8 0 0 2 0 0 0
1 1 2 7 6 9 12 18 11 10 11 7 5 4 2 0 1 1 3 0 0 0 0 1 3 7 4 2 16 15 40 55 2 3 0 3 0 3 0 0 2 4 0 0 0 0 1
0 1 3 4 4 8 8 16 14 9 8 6 3 5 2 0 0 0 1 0 0 0 0 3 3 5 2 6 1 4 13 3 0 0 1 6 2 0 0 0 0 7 0 1 5 7 0
0 1 2 5 6 7 10 15 15 8 9 9 0 0 0 0 0 0 0 0 0 0 1 0 0 0 2 6 3 13 18 6 0 0 0 0 11 2 0 0 2 14 0 0 0 0 0
0 2 3 5 4 5 10 16 12 8 16 0 0 0 0 0 0 0 0 0 0 0 0 2 0 0 0 5 6 4 0 0 0 0 0 0 1 4 0 5 0 1 1 0 0 0 0
0 2 4 3 6 5 13 16 10 11 10 0 0 0 0 0 0 0 0 0 0 0 0 0 1 0 0 0 0 4 0 0 0 0 0 0 2 8 6 5 0 0 0 0 0 0 0
0 1 3 6 7 6 10 13 6 8 9 0 0 0 0 0 0 0 0 0 0 0 0 0 0 0 0 0 0 0 0 0 0 0 0 0 0 15 9 6 3 0 0 0 0 0 0
0 1 4 7 6 4 9 6 4 6 14 0 0 0 0 0 0 0 0 0 0 0 0 0 0 1 0 0 0 0 0 0 0 0 0 0 0 0 7 0 0 0 0 0 0 0 0
0 2 3 8 3 4 4 5 3 0 0 0 0 0 0 0 0 0 0 0 0 0 0 0 0 0 0 0 0 0 0 0 0 0 0 0 0 0 0 0 0 1 0 0 0 0 0
0 0 1 1 2 10 8 2 1 0 0 0 0 0 0 0 0 1 0 0 6 0 0 0 0 0 0 0 0 0 0 0 0 0 0 0 0 0 0 0 0 0 0 0 0 0 0
0 0 0 1 6 14 8 3 1 0 0 0 0 0 1 0 0 0 0 2 0 2 0 0 0 0 0 0 0 0 0 0 0 0 0 0 0 0 0 0 0 0 0 0 0 0 0
0 0 0 1 6 13 16 1 3 0 0 0 0 0 0 0 0 0 0 3 5 12 0 0 0 0 0 0 0 0 0 0 0 0 0 0 0 0 0 0 0 0 0 0 0 0 0
0 0 0 3 8 3 14 1 2 0 0 0 0 0 2 0 0 0 0 0 1 6 1 0 0 0 0 0 0 0 0 0 0 0 0 0 0 0 0 0 0 0 0 0 0 0 0
0 0 0 1 3 5 3 5 6 4 0 0 0 0 1 0 0 0 0 0 0 1 16 16 0 0 0 0 0 0 0 0 0 0 0 0 0 0 0 0 0 0 0 0 0 0 0
0 0 0 4 10 4 1 9 11 12 0 0 0 0 1 0 0 0 0 0 0 0 2 14 1 0 0 0 0 0 0 0 0 0 0 0 0 0 0 0 0 0 0 0 0 0 0
0 0 0 8 0 0 0 5 0 1 0 0 0 0 0 0 0 0 0 0 0 3 12 4 0 0 0 0 0 0 0 0 2 1 0 0 0 0 0 0 0 0 0 0 0 0 0
0 0 0 7 3 0 0 7 0 6 7 0 0 0 0 6 0 0 0 0 6 9 3 0 0 0 0 0 0 0 0 0 0 4 0 0 0 0 1 1 0 0 0 0 0 0 0
0 0 0 1 0 0 1 5 10 9 26 0 0 0 0 1 0 0 0 0 0 3 17 0 0 3 0 4 0 2 0 0 0 0 0 0 4 7 7 5 0 0 0 3 0 0 0
0 0 0 0 0 0 2 6 13 21 39 19 3 0 0 27 0 0 0 0 0 0 0 7 4 0 0 0 0 0 0 0 0 0 0 0 0 0 0 0 0 0 0 0 0 0 0

GFSGBSN_con_sbcape_066.txt.gz
CAPE
9 13 7 16 22 18 17 22 17 35 24 28 31 42 34 35 59 116 112 184 149 153 156 120 89 78 22 0 0 0 14 0 0 8 11 44 0 8 55 20 33 4 0 0 9 24 1
8 13 9 11 22 19 17 23 19 28 38 29 29 43 30 31 31 78 115 115 72 82 115 70 109 124 15 0 0 0 0 8 0 0 3 42 12 0 48 55 53 6 26 22 0 0 11
4 13 14 15 15 17 14 18 25 15 33 30 24 34 24 16 12 43 57 62 80 104 142 202 234 35 32 0 0 0 0 0 30 3 61 36 8 19 5 34 29 13 69 37 0 0 0
4 9 12 9 17 22 24 20 22 29 13 25 21 35 31 13 12 3 2 1 1 54 119 181 244 139 0 2 0 0 0 0 39 87 82 84 39 18 2 10 18 34 39 36 0 0 0
4 7 10 8 27 14 12 20 19 27 26 14 21 29 25 13 14 0 3 0 0 34 107 220 123 32 0 16 50 3 0 0 65 47 74 103 6 1 2 11 26 26 7 0 0 0 0
2 5 7 7 13 14 14 23 28 19 22 16 7 11 21 17 4 16 64 36 17 15 53 124 121 7 0 0 0 7 0 64 32 39 100 83 70 2 5 4 5 0 0 0 0 0 0
3 5 5 5 7 7 12 22 23 36 27 22 17 9 6 11 8 15 2 0 0 0 0 0 0 0 0 0 0 115 62 2 0 6 19 59 25 0 0 0 0 0 0 0 0 0 0
2 3 5 7 13 6 9 12 17 29 26 21 17 7 8 3 8 11 0 0 0 0 0 0 0 5 0 0 0 69 2 0 1 10 14 45 0 0 0 0 0 0 0 0 0 0 0
1 2 4 5 12 13 8 6 12 12 13 19 15 6 8 4 1 0 0 0 0 0 0 0 4 17 5 1 3 50 6 22 5 6 3 0 0 0 0 1 0 0 0 0 0 0 0
0 2 2 6 10 13 16 15 12 16 19 13 12 13 7 5 0 0 0 0 0 0 1 6 14 6 10 0 8 13 2 0 2 5 1 22 0 0 0 0 0 0 0 0 0 0 0
0 1 2 4 10 11 9 10 14 11 15 6 6 10 6 6 0 2 0 0 0 0 0 7 9 0 7 5 17 0 0 0 6 5 7 3 0 0 0 0 0 0 0 0 0 0 0
0 1 3 4 8 10 11 9 11 8 10 4 3 7 1 0 0 2 0 0 2 0 0 1 0 10 3 3 1 0 53 11 17 24 1 1 0 0 1 0 11 3 0 0 0 0 0
0 1 2 4 6 10 10 7 8 5 5 2 0 2 1 0 0 0 0 0 0 0 0 9 5 4 12 5 11 10 1 1 21 0 0 1 1 0 0 0 9 5 0 0 3 0 0
0 0 1 3 6 7 11 7 10 6 5 7 0 0 0 0 0 0 0 0 0 0 0 1 2 8 2 14 18 12 10 7 0 0 0 0 41 1 0 0 12 15 0 0 0 0 0
0 0 1 2 5 5 6 13 6 7 14 9 0 0 0 0 0 0 0 0 0 0 0 0 0 0 8 9 9 20 0 0 0 0 0 0 2 2 0 0 0 1 1 0 0 0 0
0 0 1 3 3 3 4 8 6 8 11 3 0 0 0 0 0 0 0 0 0 0 0 0 0 0 1 0 3 0 0 0 0 0 0 0 2 1 1 1 0 0 0 0 0 0 0
0 0 1 3 3 3 5 5 5 4 5 0 0 0 0 0 0 0 0 0 0 0 0 0 0 0 0 0 0 0 0 0 0 0 0 0 0 6 11 8 8 3 0 0 0 0 0
0 0 1 2 2 4 8 3 1 4 4 0 0 0 0 0 0 0 0 0 0 0 0 0 0 0 0 0 0 0 0 0 0 0 0 0 0 7 3 2 0 0 0 0 0 0 0
0 0 0 1 2 3 5 2 0 0 0 0 0 0 0 0 0 0 0 0 0 0 0 0 0 0 0 0 0 0 0 0 0 0 0 0 0 0 0 0 0 3 0 0 0 0 0
0 0 0 0 4 2 3 1 0 0 0 0 0 0 0 0 0 0 0 0 0 0 0 0 0 0 0 0 0 0 0 0 0 0 0 0 0 0 0 0 0 0 0 0 0 0 0
0 0 0 1 3 4 2 2 0 0 0 0 0 0 0 0 0 0 0 0 3 2 0 0 0 0 0 0 0 0 0 0 0 0 0 0 0 0 0 0 0 0 0 0 0 0 0
0 0 0 2 2 4 2 1 0 0 0 0 0 0 0 0 0 0 0 0 10 5 0 0 0 0 0 0 0 0 0 0 0 0 0 0 0 0 0 0 0 0 0 0 0 0 0
0 0 0 2 2 3 2 3 2 0 0 0 0 0 0 0 0 0 0 0 0 5 2 0 0 0 0 0 0 0 0 0 0 0 0 0 0 0 0 0 0 0 0 0 0 0 0
0 0 0 0 1 1 3 4 4 0 0 0 0 0 0 0 0 0 0 0 0 0 0 6 0 0 0 0 0 0 0 0 0 0 0 0 0 0 0 0 0 0 0 0 0 0 0
0 0 0 0 0 0 0 4 5 2 0 0 0 0 0 0 0 0 0 0 0 0 11 8 6 0 0 0 0 0 0 0 0 0 0 0 0 0 0 0 0 0 0 0 0 0 0
0 0 0 1 0 0 0 15 12 7 2 0 0 0 0 0 0 0 0 0 0 6 1 26 0 0 0 0 0 0 0 0 0 0 0 0 0 0 0 0 0 0 0 0 0 0 0
0 0 0 1 0 0 0 5 23 28 21 0 0 0 0 0 0 0 0 0 0 5 3 2 0 0 0 0 1 0 0 0 0 0 0 1 0 0 0 0 0 0 0 0 0 0 0
0 0 0 0 0 0 0 6 14 25 43 0 0 0 0 0 0 0 0 0 0 0 0 4 0 0 0 20 6 1 0 0 0 0 0 0 1 1 1 2 0 0 0 0 0 0 0
0 0 0 0 0 0 0 5 23 32 44 11 7 0 0 10 0 0 0 0 0 0 0 0 7 6 15 0 0 0 0 0 0 0 0 0 0 0 0 0 0 0 0 0 0 0 0

GFSGBSN_con_sbcape_069.txt.gz
CAPE
5 6 8 21 13 18 31 31 22 11 30 40 49 41 20 16 26 42 35 48 44 62 88 38 48 57 6 0 0 0 0 0 0 0 0 11 3 2 16 25 47 0 0 0 13 1 0
11 10 8 20 5 20 33 21 23 19 13 38 41 38 42 21 19 21 38 39 53 106 136 54 61 59 0 0 0 0 0 0 0 10 0 8 0 0 12 39 81 9 0 0 7 0 0
10 10 11 11 23 11 23 19 20 17 19 20 37 28 32 16 14 8 5 13 50 94 154 209 187 12 0 0 0 0 0 0 0 12 15 14 10 0 1 30 30 8 5 3 0 0 9
6 7 9 7 15 14 29 29 22 23 20 15 17 26 23 34 7 11 8 0 0 13 92 220 265 89 0 0 0 0 0 0 0 26 46 71 61 0 1 2 2 22 6 2 0 26 0
3 6 7 7 10 11 21 28 24 31 38 19 12 8 21 20 28 3 20 54 0 13 56 178 55 5 0 1 16 0 2 1 0 44 83 108 132 0 0 6 5 26 0 0 0 11 7
3 5 7 6 9 8 21 12 21 31 37 25 13 7 15 14 20 16 27 18 0 4 25 112 96 1 0 0 0 0 1 1 29 0 118 117 138 1 0 7 1 0 0 0 0 0 1
1 2 5 7 7 10 19 18 12 12 21 20 11 11 11 8 15 19 0 0 0 0 0 0 0 0 0 0 0 59 49 24 1 0 44 80 4 0 0 0 0 0 0 0 0 0 0
1 2 4 5 9 9 12 12 14 12 17 9 12 12 4 9 6 17 0 0 0 0 0 0 0 0 0 1 0 37 38 3 0 5 6 124 1 0 0 0 0 0 0 0 0 0 1
0 2 3 4 8 10 13 7 18 9 11 9 16 11 5 6 3 0 0 0 0 0 0 0 1 1 0 0 3 14 20 1 0 7 5 5 3 1 0 2 1 0 0 0 0 0 0
0 2 2 3 6 9 12 8 8 8 6 11 14 13 5 1 0 0 0 0 0 0 1 7 15 1 5 3 9 26 1 36 13 4 6 10 0 0 0 7 0 0 0 0 0 0 0
0 1 2 3 5 7 11 11 8 11 10 16 14 11 7 0 0 1 0 0 0 0 0 10 9 3 1 14 23 2 0 16 0 7 5 3 0 0 0 0 0 0 0 0 0 0 0
0 0 1 3 5 7 8 10 11 16 12 16 8 6 1 0 0 2 0 0 0 0 0 1 3 21 26 21 2 0 9 6 21 8 5 4 0 0 0 0 0 0 0 0 0 0 0
0 0 1 2 4 7 9 10 10 11 12 7 5 3 0 0 0 1 1 0 0 0 0 3 7 5 1 7 16 17 15 9 7 0 0 6 0 0 0 12 0 0 0 1 6 1 0
0 0 0 2 3 5 8 10 8 9 10 12 2 0 0 0 0 0 0 0 0 0 0 0 4 4 13 14 11 6 3 7 0 4 0 0 9 0 0 0 1 0 0 0 0 0 0
0 0 0 1 2 5 8 10 6 7 12 12 0 0 0 0 0 0 0 0 0 0 0 0 0 9 2 4 12 13 6 5 0 0 0 0 3 1 1 0 0 1 0 0 0 0 0
0 0 0 1 2 4 10 10 3 7 8 1 0 0 0 0 0 0 0 0 0 0 0 0 0 0 3 3 2 0 0 6 1 0 0 0 1 0 1 0 0 0 0 0 0 0 0
0 0 0 0 0 3 5 6 5 6 2 0 0 0 0 0 0 0 0 0 0 0 0 0 0 0 0 0 0 0 0 0 0 0 0 0 0 0 12 15 5 6 0 0 0 0 0
0 0 0 0 0 3 5 2 3 5 1 0 0 0 0 0 0 0 0 0 0 0 0 0 0 0 0 0 0 0 0 0 0 0 0 0 0 1 5 0 1 5 2 0 0 0 0
0 0 0 0 1 2 2 1 2 3 0 0 0 0 0 0 0 0 0 0 0 0 0 0 0 0 0 0 0 0 0 0 0 0 0 0 0 0 0 0 3 12 2 0 0 0 0
0 0 0 0 0 1 1 0 0 1 0 0 0 0 0 0 0 0 0 0 0 0 0 0 0 0 0 0 0 0 0 0 0 0 0 0 0 0 0 0 0 1 7 0 0 0 0
0 0 0 0 0 0 1 1 0 0 0 0 0 0 0 0 0 0 0 0 0 0 0 0 0 0 0 0 0 0 0 0 0 0 0 0 0 0 0 0 0 0 0 0 0 0 0
0 0 0 0 0 0 1 1 0 0 0 0 0 0 0 0 0 0 0 0 0 0 0 0 0 0 0 0 0 0 0 0 0 0 0 0 0 0 0 0 0 0 0 0 0 0 0
0 0 0 0 0 0 1 0 0 0 0 0 0 0 0 0 0 0 0 0 0 0 5 0 0 0 0 0 0 0 0 0 0 0 0 0 0 0 0 0 0 0 0 0 0 0 0
0 0 0 0 0 0 1 0 0 1 0 0 0 0 0 0 0 0 0 0 0 0 0 0 0 0 0 0 0 0 0 0 0 0 0 0 0 0 0 0 0 0 0 0 0 0 0
0 0 0 0 0 0 0 0 0 2 0 0 0 0 0 0 0 0 0 0 0 0 0 0 10 0 0 0 0 0 0 0 0 0 0 0 0 0 0 0 0 0 0 0 0 0 0
0 0 0 0 0 0 0 0 2 15 4 0 0 0 0 0 0 0 0 0 0 0 1 3 0 0 0 0 0 0 0 0 0 0 0 0 0 0 0 0 0 0 0 0 0 0 0
0 0 0 1 0 0 0 0 0 11 21 0 0 0 0 0 0 0 0 0 0 0 1 1 0 0 0 0 4 0 0 0 0 0 0 0 0 0 0 0 0 0 0 0 0 0 0
0 0 0 0 0 0 0 0 4 6 26 0 0 0 0 0 0 0 0 0 0 0 0 1 0 1 0 13 5 0 0 0 0 0 0 0 0 0 0 0 0 0 0 0 0 0 0
2 0 0 0 0 0 0 0 6 4 18 0 0 1 0 9 0 0 0 0 0 0 0 0 4 10 8 1 0 0 0 0 0 0 0 0 0 0 0 0 0 0 0 0 0 0 0

GFSGBSN_con_sbcape_072.txt.gz
CAPE
7 9 6 12 12 20 22 19 12 13 16 15 25 32 46 39 18 14 28 21 17 3 41 22 7 32 4 0 0 0 2 55 7 1 0 4 25 0 25 28 14 0 1 17 27 5 0
5 6 9 10 16 9 19 30 23 15 15 16 21 31 34 47 19 13 7 15 12 10 17 28 58 35 0 0 0 0 0 0 0 0 0 3 9 0 41 52 79 2 2 4 30 3 0
5 5 10 5 9 14 19 25 32 26 38 17 17 19 22 34 36 25 21 0 11 15 52 80 57 2 0 0 0 0 0 0 0 0 0 3 22 2 5 48 22 11 33 7 13 0 0
3 4 7 5 8 8 21 28 27 29 31 35 16 10 19 26 32 27 33 42 0 0 21 86 166 10 0 0 0 0 0 0 0 0 5 59 82 1 4 1 18 44 17 10 1 2 17
1 3 5 4 4 9 12 24 19 25 28 30 20 21 11 23 23 37 33 23 0 0 13 75 0 0 0 0 16 0 0 0 0 1 155 132 135 7 10 30 3 25 7 0 2 0 0
0 1 3 3 5 10 14 6 10 18 28 25 21 12 8 20 21 30 37 20 0 0 8 20 0 0 0 0 0 0 0 0 0 0 93 126 81 12 0 1 0 0 0 0 0 0 0
0 0 2 3 5 9 11 6 25 21 27 26 25 15 10 13 14 20 1 0 0 0 0 0 0 0 0 0 0 35 32 16 1 2 3 12 2 0 0 0 0 0 0 0 0 0 0
0 0 1 2 4 9 11 18 10 27 28 24 18 17 7 15 6 19 0 0 0 0 0 0 0 0 0 0 0 30 40 0 7 5 1 55 2 0 0 0 0 0 0 0 0 0 0
0 0 0 1 4 7 11 13 18 17 22 19 14 7 10 19 5 0 0 0 0 0 0 0 0 2 0 0 0 20 27 19 6 1 10 5 1 0 0 3 0 0 0 0 0 0 0
0 0 0 2 3 8 10 13 15 7 15 12 10 15 10 6 0 0 0 0 0 0 0 2 0 0 7 7 2 22 4 12 0 0 7 34 0 1 1 8 0 0 0 0 0 0 0
0 0 0 2 4 7 12 9 10 12 6 7 15 6 15 1 0 0 0 0 0 0 0 11 2 9 2 30 11 1 1 3 0 7 3 22 3 9 16 19 0 0 0 0 0 0 0
0 0 0 2 4 8 8 13 8 7 5 14 10 4 5 0 0 1 0 0 0 0 0 2 10 19 7 17 12 0 8 19 1 4 2 2 1 4 4 0 0 0 0 0 0 0 0
0 0 0 2 4 7 5 9 10 10 11 8 9 2 1 0 0 0 0 0 0 0 0 1 3 3 8 21 11 2 3 0 1 1 1 11 6 0 0 3 0 0 0 0 0 0 0
0 0 0 1 3 5 7 5 9 13 9 5 0 0 0 0 0 0 0 0 0 0 0 0 5 8 10 7 19 12 4 4 3 2 1 1 0 0 0 0 2 1 0 0 0 0 0
0 0 0 0 2 3 9 8 6 9 5 5 0 0 0 0 0 0 0 0 0 0 0 0 2 0 5 4 11 12 1 1 0 7 0 0 9 0 0 0 0 1 0 0 0 0 0
0 0 0 0 0 3 5 6 4 8 3 0 0 0 0 0 0 0 0 0 0 0 0 0 0 0 0 0 0 1 4 5 0 0 0 0 1 0 0 0 0 0 0 0 0 0 0
0 0 0 0 0 1 3 4 5 5 1 0 0 0 0 0 0 0 0 0 0 0 0 0 0 0 0 0 0 0 0 0 0 0 0 0 0 4 0 0 0 1 0 0 0 0 0
0 0 0 0 0 0 2 2 6 3 0 0 0 0 0 0 0 0 0 0 0 0 0 0 0 0 0 0 0 0 0 0 0 0 0 0 0 0 2 0 0 0 0 0 0 0 0
0 0 0 0 0 0 1 2 3 0 0 0 0 0 0 0 0 0 0 0 0 0 0 0 0 0 0 0 0 0 0 0 0 0 0 0 0 0 0 0 0 2 1 0 0 0 0
0 0 0 0 0 0 0 1 0 0 0 0 0 0 0 0 0 0 0 0 0 0 0 0 0 0 0 0 0 0 0 0 0 0 0 0 0 0 0 0 0 0 2 5 0 0 0
0 0 0 0 0 0 0 0 0 0 0 0 0 0 0 0 0 0 0 0 0 0 0 0 0 0 0 0 0 0 0 0 0 0 0 0 0 0 0 0 0 0 0 1 3 0 0
0 0 0 0 0 0 0 0 0 0 0 0 0 0 0 0 0 0 0 0 0 0 0 0 0 0 0 0 0 0 0 0 0 0 0 0 0 0 0 0 0 0 0 0 0 0 0
0 0 0 0 0 0 0 0 0 0 0 0 0 0 0 0 0 0 0 0 0 0 0 0 0 0 0 0 0 0 0 0 0 0 0 0 0 0 0 0 0 0 0 0 0 0 0
0 0 1 0 0 0 0 0 0 0 0 0 0 0 0 0 0 0 0 0 0 0 0 0 0 0 0 0 0 0 0 0 0 0 0 0 0 0 0 0 0 0 0 0 0 0 0
0 0 2 1 0 0 1 2 0 0 0 0 0 0 0 0 0 0 0 0 0 0 0 0 3 0 0 0 0 0 0 0 0 0 0 0 0 0 0 0 0 0 0 0 0 0 0
0 0 5 0 0 0 0 0 0 0 0 0 0 0 0 0 0 0 0 0 0 0 0 0 0 0 0 0 0 0 0 0 0 0 0 0 0 0 0 0 0 0 0 0 0 0 0
0 0 6 2 0 0 0 0 0 0 0 0 0 0 0 0 0 0 0 0 0 0 0 0 0 0 0 2 9 4 0 0 0 0 0 0 0 0 0 0 0 0 0 0 0 0 0
2 2 7 4 0 0 0 0 0 1 0 0 0 0 0 0 0 0 0 0 0 0 0 0 0 4 0 12 12 0 0 0 0 0 0 0 0 0 0 0 0 0 0 0 0 0 0
8 2 6 5 0 0 0 3 1 3 0 0 0 0 0 0 0 0 0 0 0 0 0 0 3 9 12 6 0 0 0 0 0 0 0 0 0 0 0 0 0 0 0 0 0 0 0

GFSGBSN_con_sbcape_075.txt.gz
CAPE
5 4 2 4 4 21 14 12 25 18 28 22 17 22 30 27 27 12 7 26 20 14 6 10 36 89 3 0 0 0 4 29 74 43 0 20 37 6 20 34 3 2 12 59 81 29 0
1 2 3 4 10 10 19 22 24 15 25 41 25 13 27 27 34 15 21 1 16 4 1 24 86 40 0 0 0 0 0 0 0 16 0 21 28 0 21 46 45 3 1 54 98 4 0
1 0 2 3 7 7 9 25 25 21 23 40 43 15 20 32 27 36 23 32 0 0 12 59 35 0 0 0 0 0 0 0 0 0 0 0 38 23 12 46 19 30 28 55 71 3 0
1 0 0 3 6 11 14 19 25 22 15 36 31 30 13 17 25 22 39 21 2 0 0 48 97 0 0 0 0 0 0 0 0 0 0 26 65 1 3 1 31 36 23 36 1 1 3
0 0 0 2 4 11 12 14 16 13 30 38 36 33 16 17 26 16 36 17 1 0 0 27 0 0 0 0 0 0 0 0 5 16 52 81 82 3 1 17 22 3 0 0 11 0 2
1 0 0 1 3 9 11 12 13 15 36 40 35 39 25 11 22 19 32 8 0 0 0 0 0 0 0 0 0 0 5 7 13 5 71 82 3 14 0 4 1 0 0 0 1 8 9
0 0 0 2 2 7 9 9 11 13 32 34 29 33 22 14 20 12 1 0 0 0 0 0 0 0 0 0 0 0 17 0 0 2 8 21 5 5 0 0 0 0 0 0 1 0 1
0 0 0 2 3 5 10 11 9 11 26 31 28 25 11 6 22 9 0 0 0 0 0 0 0 0 0 0 0 57 40 0 2 28 8 15 4 0 0 1 0 0 0 0 0 0 0
0 0 0 1 3 4 9 5 10 17 24 23 22 16 6 21 5 0 0 0 0 0 0 0 0 0 0 0 3 43 15 0 6 3 12 28 1 1 16 27 1 0 0 0 0 0 0
0 0 0 1 2 3 7 7 8 12 16 22 9 7 8 5 0 0 0 0 0 0 0 0 0 2 0 0 3 26 16 0 4 6 13 45 9 4 10 31 3 4 0 0 0 0 0
0 0 0 2 2 3 5 8 8 10 16 15 5 9 9 0 0 0 0 0 0 0 0 14 2 9 1 8 5 3 6 2 0 1 1 14 1 11 12 31 15 1 0 0 0 0 0
0 0 0 0 2 2 3 6 4 6 4 5 7 4 7 0 0 0 0 0 0 0 0 2 8 11 3 0 8 1 9 14 0 1 0 2 3 10 0 0 0 0 0 0 0 0 5
0 0 0 0 1 2 2 4 3 11 4 11 8 3 1 0 0 0 0 0 0 0 0 4 5 11 3 2 2 0 11 3 0 4 0 29 9 2 0 6 0 0 0 0 8 2 1
0 0 0 0 0 1 1 5 10 12 9 7 0 1 0 0 0 0 0 0 0 0 0 0 7 7 16 10 33 2 2 0 0 0 12 3 13 17 0 0 0 0 0 0 0 0 0
0 0 0 0 0 1 1 5 8 8 6 1 0 0 0 0 0 0 0 0 0 0 0 0 1 12 21 4 5 18 0 0 0 0 0 5 3 1 0 0 0 0 0 0 0 0 0
0 0 0 0 0 0 1 4 6 5 3 0 0 0 0 0 0 0 0 0 0 0 0 0 0 0 4 0 9 4 0 0 3 1 0 0 9 0 0 0 0 0 0 0 0 0 0
0 0 0 0 0 0 1 3 3 3 0 0 0 0 0 0 0 0 0 0 0 0 0 0 0 0 0 0 0 0 0 0 0 1 0 0 0 6 1 0 0 0 0 0 0 0 0
0 0 0 0 0 0 0 1 2 0 0 0 0 0 0 0 0 0 0 0 0 0 0 0 0 0 0 0 0 0 0 0 0 0 0 0 0 3 4 0 0 0 0 0 0 0 0
0 0 0 0 0 0 0 0 0 0 0 0 0 0 0 0 0 0 0 0 0 0 0 0 0 0 0 0 0 0 0 0 0 0 0 0 0 1 0 0 0 0 0 0 0 0 0
0 0 0 0 0 0 0 0 0 0 0 0 0 0 0 0 0 0 0 0 0 0 0 0 0 0 0 0 0 0 0 0 0 0 0 0 0 0 0 0 0 0 0 0 0 0 0
0 0 0 0 0 0 0 0 0 0 0 0 0 0 0 0 0 0 0 0 0 0 0 0 0 0 0 0 0 0 0 0 0 0 0 0 0 0 0 0 0 0 0 0 0 0 0
0 0 0 0 0 0 0 0 0 0 0 0 0 0 0 0 0 0 0 0 0 0 0 0 0 0 0 0 0 0 0 0 0 0 0 0 0 0 0 0 0 0 0 0 0 0 0
0 0 0 0 0 0 0 0 0 0 0 0 0 0 0 0 0 0 0 0 0 0 0 0 0 0 0 0 0 0 0 0 0 0 0 0 0 0 0 0 0 0 0 0 0 0 0
0 0 1 0 0 0 0 0 0 0 0 0 0 0 0 0 0 0 0 0 0 0 0 0 0 0 0 0 0 0 0 0 0 0 0 0 0 0 0 0 0 0 0 0 0 0 0
0 1 1 0 0 0 0 0 0 0 0 0 0 0 0 0 0 0 0 0 0 0 0 0 0 0 0 0 0 0 0 0 0 0 0 0 0 0 0 0 0 0 0 0 0 0 0
1 2 3 0 0 0 0 0 0 0 0 0 0 0 0 0 0 0 0 0 0 0 0 0 0 0 0 0 0 0 0 0 0 0 0 0 0 0 0 0 0 0 0 0 0 0 0
3 4 4 0 0 0 0 0 0 0 0 0 0 0 0 0 0 0 0 0 0 0 0 0 0 0 0 0 0 3 0 0 0 0 0 0 0 0 0 0 0 0 0 0 0 0 0
6 9 7 0 0 0 0 0 0 0 0 0 0 0 0 0 0 0 0 0 0 0 0 0 0 5 8 16 2 0 0 0 0 0 0 0 0 0 0 0 0 0 0 0 0 0 0
7 13 8 0 0 0 1 1 0 0 0 0 0 0 0 0 0 0 0 0 0 0 0 0 1 2 13 8 1 0 0 0 0 0 0 0 0 0 0 0 0 0 0 0 0 0 0

GFSGBSN_con_sbcape_078.txt.gz
CAPE
6 5 3 6 5 1 5 10 16 16 22 34 51 23 10 22 29 29 16 0 15 7 0 0 0 43 1 0 0 0 1 78 158 68 55 55 81 55 33 78 119 138 127 143 128 153 72
5 7 4 6 6 2 3 6 25 18 22 31 48 40 14 15 32 36 13 20 6 4 2 0 29 9 0 0 0 0 0 11 18 80 26 53 69 27 33 24 72 66 57 148 138 42 10
4 2 3 4 6 3 4 10 19 12 19 36 47 36 20 17 24 25 24 28 0 0 1 33 0 0 0 0 0 0 0 0 0 34 27 4 63 72 25 21 43 70 20 112 117 136 90
3 3 2 3 5 4 5 7 11 19 24 33 47 39 28 13 19 25 7 46 23 0 0 40 26 3 0 0 22 6 2 17 3 0 3 3 24 50 63 78 115 90 88 92 100 142 28
2 2 1 1 4 5 4 7 8 15 15 40 47 37 30 14 12 23 9 27 15 0 0 11 0 0 0 4 6 5 37 36 24 1 10 8 58 41 77 104 84 95 13 11 42 75 15
2 2 1 0 2 5 7 6 9 8 22 31 39 37 33 15 14 20 19 13 8 0 3 0 0 0 0 6 0 1 60 61 41 0 53 19 18 59 84 62 18 11 24 32 43 46 28
4 2 0 0 1 4 6 5 5 11 18 31 32 27 24 15 15 20 18 0 0 4 5 0 0 0 0 0 0 54 41 28 49 7 34 25 5 11 6 8 18 28 17 6 27 12 23
4 1 0 0 1 3 3 5 3 7 20 26 25 23 23 21 24 9 0 0 0 0 0 0 0 0 0 0 0 70 15 15 34 26 26 25 20 17 30 20 2 23 34 43 17 31 40
4 1 0 0 1 1 1 5 4 8 11 13 23 18 19 20 9 1 0 0 0 0 1 0 0 1 0 0 7 10 19 8 10 8 14 41 23 13 40 33 17 22 17 33 5 40 19
4 2 0 0 0 0 0 3 5 8 15 20 21 15 16 9 3 0 0 0 0 0 9 5 7 7 4 9 25 22 25 7 5 28 18 29 17 4 29 23 21 19 5 3 0 16 2
4 1 0 0 0 0 0 2 6 6 9 12 11 12 13 3 0 1 0 0 0 0 11 6 8 20 5 19 13 25 3 9 10 27 31 59 10 6 24 26 17 2 0 0 0 3 5
3 2 0 0 0 0 0 1 3 4 8 5 4 9 8 1 0 2 1 0 0 3 2 5 9 9 5 1 18 7 11 14 6 35 2 18 5 4 11 28 9 0 0 0 5 20 23
2 1 0 0 0 0 0 1 4 5 3 9 5 3 3 0 1 0 7 0 6 6 0 8 8 14 4 1 10 2 19 8 14 77 7 28 13 21 4 39 0 9 24 35 31 32 12
2 1 0 0 0 0 0 0 2 3 10 8 0 1 0 0 0 1 1 0 3 0 10 6 9 0 3 4 16 16 2 4 0 14 83 67 22 6 20 18 4 35 14 11 3 10 5
4 0 0 0 0 0 0 0 0 2 4 1 0 0 0 0 0 0 0 2 0 0 0 11 10 16 22 5 9 24 13 2 0 1 31 18 6 7 1 4 0 2 23 0 0 0 0
4 0 0 0 0 0 0 0 0 2 1 0 0 0 2 0 0 0 2 0 0 0 0 0 5 2 8 16 10 6 10 1 2 0 0 1 15 2 11 0 1 7 0 7 2 0 0
2 0 0 0 0 0 0 0 0 1 0 0 0 5 0 0 0 0 6 0 0 0 0 0 0 2 0 2 3 3 7 0 0 2 7 0 2 2 9 8 18 0 4 0 0 0 0
3 0 0 0 0 0 0 0 0 0 0 0 0 9 0 0 5 1 0 0 0 0 0 0 0 0 0 0 0 0 1 1 1 0 0 0 1 17 32 0 0 2 2 5 17 1 0
3 0 0 0 0 0 0 0 0 0 0 0 0 4 0 0 8 1 0 0 0 0 0 0 0 0 0 0 0 0 0 0 0 0 0 0 1 10 9 1 0 1 2 0 0 0 0
4 0 0 0 0 0 0 0 0 0 0 0 0 2 0 0 0 0 0 0 0 0 0 0 0 0 0 0 0 0 0 0 0 0 0 0 0 0 0 0 0 0 0 0 0 22 2
5 1 0 0 0 0 0 0 0 0 0 0 0 0 0 4 0 0 0 0 0 0 0 0 0 0 0 0 0 0 0 0 0 0 0 0 0 0 0 0 0 0 0 0 0 0 1
3 0 0 0 0 0 0 0 0 0 0 0 0 0 0 0 0 0 0 0 0 0 0 0 0 0 0 0 0 0 0 0 0 0 0 0 0 0 0 0 0 0 0 0 0 0 1
7 1 1 0 0 0 0 0 0 0 0 0 0 0 0 0 0 0 0 0 0 0 0 0 0 0 0 0 0 0 0 0 0 0 0 0 0 0 0 0 0 0 0 0 0 0 0
4 2 1 0 0 0 0 0 0 0 0 0 0 0 0 0 0 0 0 0 0 0 0 0 0 0 0 0 0 0 0 0 0 0 0 0 0 0 0 0 0 0 0 0 0 0 0
4 5 2 0 0 0 0 0 0 0 0 0 0 0 0 0 0 0 0 0 0 0 0 0 0 0 0 0 0 0 0 0 0 0 0 0 0 0 0 0 0 0 0 0 0 0 0
11 6 1 0 0 0 0 0 0 0 0 0 0 0 0 0 0 0 0 0 0 0 0 0 0 0 0 0 6 1 1 0 0 0 0 0 0 0 0 0 0 0 0 0 0 0 0
17 9 2 0 0 0 0 0 0 0 0 0 0 0 0 0 0 0 0 0 0 0 0 0 0 0 0 24 31 12 1 0 0 0 1 3 2 6 7 4 0 0 0 0 0 0 0
16 13 6 1 0 0 0 0 1 0 0 0 1 0 0 0 0 0 0 0 0 0 0 0 0 4 5 57 44 20 6 0 0 0 0 0 0 1 6 10 0 0 0 0 0 0 0
14 12 6 2 1 0 0 1 1 1 0 0 0 0 0 0 0 0 0 0 0 0 0 0 1 2 10 9 8 3 18 0 0 0 0 0 0 0 0 0 0 0 0 0 0 0 0

GFSGBSN_con_sbcape_081.txt.gz
CAPE
5 7 6 4 5 3 4 7 5 17 15 21 33 40 37 12 19 37 38 29 19 1 0 0 0 0 8 12 8 0 0 45 196 124 20 97 133 113 58 22 54 123 132 177 148 259 114
8 6 6 6 3 3 3 6 9 9 13 19 40 38 31 17 15 29 24 43 0 0 2 0 0 2 17 51 0 2 0 55 142 75 57 5 53 61 29 35 45 46 143 168 206 109 138
11 5 7 5 4 3 2 4 6 12 13 23 38 43 37 24 8 20 31 45 23 0 0 1 13 3 11 14 19 8 2 31 28 92 52 27 16 78 7 46 75 117 100 250 162 185 143
13 7 5 5 5 2 1 2 4 9 13 22 36 43 36 38 13 9 36 32 36 0 0 1 9 10 15 4 73 25 28 37 1 0 5 7 44 18 83 34 106 107 133 164 122 163 116
13 9 3 5 3 2 2 1 3 9 12 21 31 38 36 31 20 20 23 31 23 0 0 0 31 17 21 31 45 11 96 32 17 5 24 39 49 25 91 87 103 85 76 59 92 171 120
12 13 4 4 1 2 2 2 2 5 11 13 27 27 29 20 20 19 21 27 14 0 4 0 0 15 2 58 14 2 71 14 38 1 40 44 38 7 76 107 60 32 58 74 69 93 68
9 10 5 3 1 1 1 2 1 4 8 15 22 23 27 20 22 26 24 20 13 9 5 1 2 0 0 3 5 88 33 8 15 0 33 11 8 7 25 30 0 4 40 33 46 41 34
8 10 3 2 0 1 2 1 1 3 7 16 15 21 18 20 21 15 17 8 0 0 4 0 0 0 0 0 1 73 10 17 23 17 40 24 21 4 27 50 62 79 67 11 14 9 13
6 8 3 1 0 1 2 1 1 2 9 17 14 17 16 16 9 7 11 0 0 0 6 2 1 16 12 1 26 7 14 6 32 13 8 52 13 5 25 27 78 31 18 36 14 9 24
5 7 4 2 0 2 2 1 1 2 8 12 13 14 16 9 1 4 5 0 0 0 32 9 8 7 14 3 25 1 0 14 30 9 6 33 3 22 38 27 20 41 29 21 24 33 8
3 7 3 1 0 1 2 0 0 1 6 11 12 11 15 4 7 1 5 0 0 0 19 5 11 5 8 16 15 1 0 25 23 5 10 31 8 6 31 24 7 33 12 4 30 60 21
4 7 3 0 1 0 1 0 0 1 3 5 9 11 8 1 18 7 1 0 6 4 2 7 13 8 14 17 11 5 23 2 29 21 47 23 12 2 29 48 15 3 11 8 13 17 23
4 9 3 0 0 0 0 0 0 0 2 2 3 1 4 0 4 6 6 4 8 13 0 3 0 4 4 4 9 8 26 64 36 31 36 20 16 3 14 32 37 15 10 29 25 27 11
4 8 2 0 0 0 0 0 0 0 2 0 2 0 0 2 4 1 13 1 3 9 32 9 0 0 9 7 0 5 1 31 18 10 33 50 14 22 28 35 35 19 5 11 2 4 0
3 9 2 0 0 0 0 0 0 0 0 0 0 7 9 0 0 2 8 11 5 2 7 1 4 6 14 1 6 7 3 31 20 45 33 20 7 0 9 31 35 50 69 0 1 0 12
4 5 2 0 0 0 0 0 0 0 0 0 8 11 14 0 0 1 10 0 1 0 0 10 14 12 5 13 1 5 3 0 0 0 4 12 28 8 17 15 5 15 13 5 13 2 0
7 5 1 0 0 0 0 0 0 0 0 0 9 7 4 0 6 8 8 8 0 0 0 0 13 0 2 6 3 0 7 0 1 2 0 4 29 8 28 17 49 13 3 14 10 0 4
7 5 1 0 0 0 0 0 0 0 0 0 13 5 0 0 13 1 9 1 0 0 0 0 0 9 19 16 28 23 2 1 0 1 0 0 8 17 17 11 1 15 28 28 25 3 0
8 5 2 0 0 0 0 0 0 0 0 0 7 4 0 2 2 10 0 2 4 1 0 0 0 0 0 2 15 3 4 0 0 0 0 0 9 12 22 13 1 1 0 0 10 0 33
9 6 2 0 0 0 0 0 0 0 0 0 1 3 7 1 6 2 8 9 2 0 0 0 0 0 0 0 0 4 1 0 3 1 0 0 6 12 25 9 0 0 0 3 4 33 2
11 7 2 1 0 0 0 0 0 0 0 0 0 0 0 3 2 1 0 7 7 0 0 0 0 0 2 1 0 1 1 0 0 0 0 0 17 0 0 0 0 0 0 0 6 0 3
12 9 3 2 0 0 0 0 0 0 0 0 0 0 0 0 0 0 0 11 13 0 0 0 2 0 0 3 0 4 2 10 12 0 2 0 17 0 0 0 0 0 0 0 0 0 5
14 8 5 4 0 0 0 0 0 0 0 0 0 0 0 0 0 1 1 5 6 1 1 0 0 0 0 0 0 0 0 0 0 6 5 6 10 0 9 0 0 0 0 0 0 0 0
16 10 9 5 0 0 0 0 0 0 0 0 0 0 0 0 0 0 0 0 0 0 5 0 0 1 0 0 0 0 0 0 0 0 0 0 0 3 7 0 0 0 0 0 0 0 0
20 13 10 5 0 0 0 0 0 0 0 0 0 0 0 0 0 0 0 0 0 0 0 0 1 0 0 0 1 0 0 0 0 0 0 0 1 6 3 4 0 0 0 0 0 0 0
19 12 10 3 0 0 0 0 0 0 0 0 0 0 0 0 0 0 0 0 0 2 0 0 0 0 0 7 13 12 13 3 2 0 0 0 0 6 3 4 1 0 0 0 0 0 0
18 21 9 5 0 1 0 0 0 0 0 0 0 0 0 0 0 0 0 0 0 0 2 0 0 1 1 35 30 18 12 0 1 3 1 3 6 10 9 5 0 0 0 0 0 0 0
19 19 15 5 3 2 0 0 0 0 0 0 0 0 0 0 0 0 0 0 0 0 0 0 0 7 19 32 22 22 16 6 0 0 0 1 10 15 15 11 1 0 0 0 0 0 0
21 20 15 14 8 2 0 0 0 0 0 0 0 0 0 0 0 0 0 0 0 0 0 0 0 3 5 2 2 3 12 2 0 5 0 0 0 4 3 10 0 0 0 0 0 0 0

GFSGBSN_con_sbcape_084.txt.gz
CAPE
11 12 5 6 3 4 6 5 4 4 7 10 12 42 39 43 17 4 32 42 20 1 2 0 0 0 0 35 30 0 12 25 159 148 62 56 82 92 59 0 19 23 35 24 2 52 5
16 17 10 10 8 3 3 4 7 4 6 11 12 40 29 44 28 9 24 28 35 0 0 2 0 0 13 47 0 20 0 44 164 149 58 58 67 86 76 11 21 47 65 85 81 6 25
24 16 19 8 7 3 3 4 4 8 8 11 19 25 37 43 39 10 13 31 28 12 0 0 47 23 7 47 12 34 29 156 40 118 37 39 40 1 20 48 13 80 90 75 83 34 16
83 22 18 9 7 3 2 2 4 7 9 9 13 20 37 28 33 18 7 17 20 25 0 0 24 13 10 6 27 9 54 103 13 6 6 24 11 1 13 15 35 101 90 89 102 47 37
90 116 13 11 8 5 2 2 4 7 9 6 11 24 25 29 24 21 11 12 17 1 0 0 0 40 10 29 52 1 27 31 6 0 5 24 1 12 9 8 45 59 32 40 77 101 74
89 73 32 7 7 5 1 1 3 7 10 4 11 17 22 19 24 21 22 4 4 0 0 0 0 1 8 26 13 3 23 7 31 1 25 12 5 3 9 26 28 21 36 20 7 45 65
22 51 30 6 5 3 2 1 2 8 8 5 11 14 23 17 21 24 13 2 1 0 0 1 0 0 20 2 0 41 8 2 15 2 5 14 4 5 1 0 0 3 0 0 10 55 50
33 29 30 8 4 3 1 1 1 7 6 8 12 18 18 21 22 14 3 3 0 0 2 0 0 1 0 0 0 47 24 22 18 8 6 19 10 0 29 28 11 38 9 13 60 57 42
4 3 38 7 5 2 1 1 1 5 6 7 11 17 13 20 11 1 3 1 0 0 1 1 2 2 2 0 3 9 0 13 18 6 11 12 11 0 4 0 0 0 0 2 13 9 2
27 20 38 7 6 3 1 0 0 3 5 7 10 9 13 10 0 9 1 0 0 0 19 6 11 8 5 4 15 4 10 12 6 17 4 13 4 2 2 10 36 16 42 25 23 0 6
50 52 32 7 7 3 1 0 1 2 3 6 6 4 15 1 4 3 0 0 0 0 0 2 9 0 2 16 0 11 0 19 4 0 1 20 11 2 18 3 29 4 28 60 35 42 27
79 47 24 7 5 2 0 0 0 1 2 2 3 12 2 0 13 2 0 0 1 5 0 1 4 4 5 8 11 8 23 1 12 4 10 8 1 0 0 18 3 2 16 3 0 7 0
62 67 13 6 5 2 1 0 0 0 0 0 0 0 0 1 10 6 1 2 4 3 0 0 0 7 2 5 2 4 6 12 11 7 3 5 3 0 0 15 11 11 1 0 0 0 0
78 72 19 6 4 3 0 0 0 0 0 0 0 0 0 2 0 4 7 3 1 6 21 0 1 1 4 2 0 0 1 4 0 2 0 1 0 2 8 33 14 7 11 8 0 0 0
101 64 2 8 4 2 0 0 0 0 0 0 0 4 13 2 0 0 2 0 0 0 0 2 1 3 3 0 0 0 0 0 0 1 6 2 5 1 3 29 29 11 0 0 1 0 0
78 24 5 9 4 2 0 0 1 0 0 0 3 10 10 0 0 6 6 0 0 0 7 0 10 2 0 0 0 0 0 0 0 0 0 0 1 1 32 24 11 23 4 0 0 0 0
6 6 6 6 5 2 0 0 0 0 0 0 1 10 1 0 7 3 1 1 0 0 0 2 9 2 0 0 0 0 2 0 0 0 0 0 0 7 22 0 5 16 3 2 0 0 0
4 4 9 9 4 2 0 0 0 0 0 0 6 5 0 2 15 1 3 0 0 0 0 0 0 5 4 0 0 8 0 0 0 0 0 0 0 1 0 0 1 1 7 2 3 0 0
25 6 10 11 5 2 0 0 1 0 0 0 4 1 0 2 4 1 0 0 2 0 0 0 0 0 0 4 7 0 0 0 0 0 0 0 6 6 1 0 0 0 0 8 0 0 0
1 3 9 10 6 3 0 0 0 0 0 0 0 3 3 0 0 0 3 1 0 0 0 0 0 0 0 0 0 1 0 0 0 0 0 0 3 2 0 0 0 0 0 0 1 0 0
4 8 13 9 2 3 0 0 0 0 0 0 0 0 0 3 0 0 4 1 4 0 0 0 0 0 0 0 0 3 0 0 0 0 0 0 0 0 0 0 0 0 0 0 0 0 0
17 44 13 11 5 1 0 0 0 0 0 0 0 0 0 0 0 0 0 0 3 0 0 0 1 0 0 0 0 2 0 0 0 0 0 0 0 0 0 0 0 0 0 0 0 0 0
20 33 19 13 8 1 0 0 0 0 0 0 0 0 0 0 0 0 0 1 1 3 0 0 0 0 0 0 0 0 0 0 0 0 0 0 0 0 0 0 0 0 0 0 0 0 0
8 13 18 14 5 0 0 0 0 0 0 0 0 0 0 0 0 0 0 0 1 0 1 0 0 1 0 0 0 0 0 0 0 0 0 0 0 0 0 0 0 0 0 0 0 0 0
42 65 26 14 9 0 0 0 0 0 0 0 0 0 0 0 0 0 0 0 0 0 0 0 0 0 0 0 0 0 0 0 0 0 0 0 0 4 0 0 0 0 0 0 0 0 0
56 42 19 10 5 1 0 0 0 0 0 0 0 0 0 0 0 0 0 0 0 0 0 0 0 0 0 0 0 1 1 3 0 0 0 0 0 0 0 0 0 0 0 0 0 0 0
88 34 19 11 7 2 0 0 0 0 0 0 0 0 0 0 0 0 0 0 0 0 0 0 0 0 0 7 3 4 1 0 0 0 0 0 0 0 0 8 0 0 0 0 0 0 0
26 25 15 10 8 8 0 0 0 0 0 0 0 0 0 0 0 0 0 0 0 0 0 0 0 0 0 10 14 4 0 0 0 0 0 1 0 0 0 2 1 0 0 0 0 0 0
35 21 18 17 23 8 2 0 0 0 0 0 0 0 0 0 0 0 0 0 0 0 0 0 0 0 1 0 0 0 0 0 0 0 0 0 0 0 0 0 0 0 0 0 0 0 0

GFSGBSN_con_sbcape_087.txt.gz
CAPE
15 14 7 11 4 2 2 3 3 7 10 12 6 15 42 21 31 24 6 37 33 24 1 3 0 0 0 5 13 16 87 34 126 217 158 135 24 14 59 3 27 107 22 2 24 101 22
106 43 21 11 4 6 3 2 3 7 7 13 12 24 32 39 33 35 11 12 36 39 0 0 1 5 0 12 0 0 4 155 144 212 150 50 13 19 40 33 17 0 39 10 26 27 1
121 112 66 13 9 7 2 1 3 3 6 10 12 17 30 33 34 36 9 7 25 28 10 0 4 4 7 4 0 0 108 198 97 76 75 55 13 42 6 50 0 0 9 19 64 1 1
156 132 158 88 10 9 1 0 2 4 4 12 9 18 33 27 23 24 11 2 13 20 12 0 0 0 0 0 0 0 2 90 14 6 0 9 36 3 6 0 0 1 63 47 56 7 4
219 189 163 146 37 9 4 0 3 2 4 10 10 17 31 22 21 13 4 8 5 3 0 0 0 2 0 18 10 0 0 25 9 12 1 1 20 9 23 8 40 65 46 68 86 36 16
93 197 185 120 68 8 6 2 1 1 3 6 11 15 25 18 15 16 5 7 0 0 0 0 0 1 6 8 0 0 3 10 25 32 0 0 1 3 6 14 20 6 14 27 45 17 17
53 122 161 89 78 8 6 2 1 1 2 5 7 18 18 13 16 21 1 0 0 0 0 0 0 0 2 0 0 36 1 0 2 5 6 6 7 3 0 0 0 3 0 0 22 43 30
40 30 157 99 91 8 6 2 1 0 1 3 5 19 18 13 16 14 1 0 0 0 0 0 0 0 0 0 2 23 0 0 21 6 4 16 8 0 1 0 0 40 19 17 39 41 23
34 56 63 78 48 16 7 2 1 0 1 2 3 13 9 15 6 0 0 2 0 0 0 1 0 0 0 6 0 0 0 4 1 6 6 1 11 9 10 16 17 9 14 18 16 32 42
7 35 33 82 37 21 7 2 0 0 1 1 2 4 8 11 0 1 5 0 0 0 0 6 11 6 3 1 0 0 0 0 3 9 14 5 1 16 0 0 0 0 0 3 33 3 0
13 48 36 77 34 9 6 2 0 0 0 0 1 4 8 6 1 4 1 0 0 0 0 9 1 0 9 9 0 0 0 6 12 3 12 14 1 0 16 0 0 14 0 0 24 1 3
43 42 57 44 33 7 6 4 0 0 0 0 0 4 8 0 0 0 0 0 0 0 0 0 0 1 2 7 21 0 5 0 0 11 7 8 7 0 0 0 0 0 0 9 0 0 1
20 111 19 44 38 4 8 5 0 0 0 0 0 0 0 3 4 0 0 0 0 0 0 0 0 2 0 1 4 0 0 3 1 0 1 0 0 0 0 0 0 2 0 0 0 0 0
73 92 14 42 13 4 10 4 0 0 0 0 0 0 0 0 0 0 0 0 0 0 0 0 0 0 0 0 0 0 0 0 0 0 0 0 0 0 0 0 0 0 0 0 0 0 0
152 82 9 26 2 10 12 4 1 1 0 0 0 0 0 0 0 0 0 0 0 0 0 0 0 0 0 0 0 0 0 0 0 0 0 0 1 0 1 0 0 0 0 0 0 0 0
111 59 40 24 5 14 11 2 1 0 0 1 0 3 0 0 0 0 0 0 0 0 1 0 0 0 0 0 0 0 0 0 0 0 0 0 5 0 0 0 0 0 0 0 0 0 0
97 85 41 24 7 15 8 2 2 1 0 1 0 9 1 0 0 0 0 0 0 0 0 3 0 0 0 0 0 0 0 0 0 0 0 0 0 0 1 0 0 0 0 0 0 0 0
81 43 23 3 10 15 7 3 4 1 0 0 0 2 0 0 0 0 0 0 0 0 0 0 0 0 0 0 0 0 0 0 0 0 0 0 0 1 0 0 0 0 0 0 0 0 0
86 1 17 6 9 11 10 10 6 1 0 0 0 1 0 1 0 0 0 0 0 0 0 0 0 0 0 1 1 0 0 0 0 0 0 0 0 0 0 0 0 0 0 0 0 0 0
75 27 18 10 11 14 15 12 7 2 0 0 0 1 4 0 0 0 0 0 0 0 0 0 0 0 0 0 0 0 0 0 0 0 0 0 0 0 0 0 0 0 0 0 0 0 0
60 49 29 19 16 11 16 7 4 0 0 0 0 0 0 1 0 0 0 0 0 0 0 0 0 0 0 0 0 0 0 0 0 0 0 0 0 0 0 0 0 0 0 0 0 0 0
55 67 13 14 16 11 16 5 2 1 5 0 0 0 0 0 0 0 0 0 0 0 0 0 0 0 0 0 0 0 0 0 0 0 0 0 0 0 0 0 0 0 0 0 0 0 0
60 25 3 51 27 10 13 4 2 0 0 0 0 0 0 0 0 0 0 0 1 0 0 0 0 0 0 0 0 0 0 0 0 0 0 0 0 0 0 0 0 0 0 0 0 0 0
63 0 14 18 20 10 14 3 0 0 0 0 0 0 0 0 0 0 0 0 4 0 0 0 0 0 0 0 0 0 0 0 0 0 0 0 0 0 0 0 0 0 0 0 0 0 0
25 26 62 65 16 11 9 6 0 0 0 0 0 0 0 0 0 0 0 0 0 0 0 0 0 0 0 0 0 0 0 0 0 0 0 0 0 0 0 0 0 0 0 0 0 0 0
33 3 32 50 12 13 13 2 0 1 0 0 0 0 0 0 0 0 0 0 0 0 0 0 0 0 0 0 0 0 0 0 0 0 0 0 0 0 0 0 0 0 0 0 0 0 0
23 20 38 14 14 18 19 0 0 0 0 0 0 0 0 0 0 0 0 0 0 0 0 0 0 0 0 0 0 0 0 0 0 0 0 0 0 0 0 0 0 0 0 0 0 0 0
4 9 27 29 16 14 5 0 1 5 0 0 0 0 0 0 0 0 0 0 0 0 0 0 0 0 0 0 0 0 0 0 0 0 0 0 0 0 0 0 0 0 0 0 0 0 0
0 20 12 21 17 11 3 3 4 0 0 0 0 0 0 0 0 0 0 0 0 0 0 0 0 0 0 0 0 0 0 0 0 0 0 0 0 0 0 0 0 0 0 0 0 0 0

GFSGBSN_con_sbcape_090.txt.gz
CAPE
145 113 115 75 68 21 8 4 2 1 1 8 9 7 18 19 43 33 27 3 24 37 22 0 3 0 0 0 0 0 31 40 241 209 64 34 43 38 28 15 15 43 40 0 1 101 22
113 196 140 118 163 79 12 10 2 1 1 6 10 7 9 16 35 41 37 9 4 39 44 0 6 20 0 0 0 0 0 122 148 126 63 75 75 35 6 14 27 2 32 2 41 2 0
24 37 200 195 154 171 29 13 4 1 0 5 7 6 8 14 22 23 30 13 7 25 40 16 0 1 0 0 0 0 284 188 126 79 45 2 55 47 54 40 4 7 50 0 53 56 2
16 17 25 154 185 151 132 11 5 1 1 5 5 4 5 14 20 23 9 10 15 9 27 33 0 0 0 0 0 0 20 116 47 53 3 19 4 2 40 10 1 44 58 87 68 72 8
7 16 25 17 91 173 152 8 5 3 2 3 6 3 1 4 13 12 10 4 9 5 1 0 0 0 0 0 11 0 0 29 28 33 33 3 14 26 13 23 26 58 39 2 85 33 21
29 33 31 23 37 163 127 44 9 6 3 2 3 0 5 2 12 11 12 2 0 0 0 0 0 0 0 0 0 0 0 2 39 20 28 4 21 9 4 7 2 58 32 25 44 16 14
33 30 57 39 11 39 128 100 11 7 4 2 1 0 5 0 2 6 2 0 0 0 0 0 0 0 0 0 0 3 0 3 7 14 3 3 5 4 2 5 0 5 11 43 46 9 3
26 27 44 53 32 50 120 84 7 10 4 3 0 2 0 1 2 11 0 0 0 0 0 0 0 0 0 0 4 17 4 22 19 15 6 12 4 3 4 2 1 11 12 31 62 2 4
39 29 49 85 58 45 102 89 12 11 7 4 0 2 0 0 1 1 0 0 0 0 0 0 0 0 0 0 0 0 0 15 5 8 6 19 12 8 4 4 13 35 22 6 1 26 13
45 40 74 84 65 20 81 42 9 10 6 2 0 0 0 0 0 1 0 0 0 0 0 0 0 0 2 1 0 0 0 2 7 3 7 5 4 0 6 0 0 0 0 0 5 20 17
43 66 130 83 83 28 34 19 8 13 4 0 0 1 0 0 0 1 0 0 0 0 0 0 0 0 0 1 0 0 0 2 21 15 8 3 37 12 7 2 0 0 4 11 26 1 2
117 91 92 131 19 33 19 10 9 10 4 0 0 0 1 0 0 0 0 0 0 0 0 0 0 0 0 4 0 0 0 0 7 9 1 5 0 0 0 0 0 5 24 6 5 0 0
134 64 133 80 22 45 23 5 11 11 5 0 1 0 0 0 0 0 0 0 0 0 0 0 0 0 0 0 0 0 0 0 3 0 0 0 1 0 0 2 0 10 2 0 0 0 0
119 112 52 8 42 36 46 7 11 13 3 0 1 0 0 0 0 0 0 0 0 0 0 0 0 0 0 0 0 0 0 0 0 0 0 0 0 0 0 0 0 0 0 0 0 0 0
77 54 41 95 58 82 60 13 15 9 5 0 4 0 0 0 0 0 0 0 0 0 0 0 0 0 0 0 0 0 0 0 0 0 0 0 0 0 0 0 0 0 0 0 0 0 0
64 78 97 89 70 47 49 18 17 9 4 13 0 0 0 0 0 0 0 0 0 0 0 0 0 0 0 0 0 0 0 0 0 0 0 0 0 0 0 0 0 0 0 0 0 0 0
68 86 105 74 70 62 9 26 17 6 11 0 0 0 0 0 0 0 0 0 0 0 0 0 0 0 0 0 0 0 0 0 0 0 0 0 0 0 0 0 0 0 0 0 0 0 0
58 97 92 66 18 63 15 26 22 13 5 0 0 2 1 0 2 0 0 0 0 0 0 0 0 0 0 0 0 0 0 0 0 0 0 0 0 0 0 0 0 0 0 0 0 0 0
62 87 113 57 8 10 18 27 18 21 8 0 0 5 0 0 0 0 0 0 0 0 0 0 0 0 0 0 0 0 0 0 0 0 0 0 0 0 0 0 0 0 0 0 0 0 0
55 74 105 94 62 11 20 21 18 19 0 0 0 3 8 0 0 0 0 0 0 0 0 0 0 0 0 0 0 0 0 0 0 0 0 0 0 0 0 0 0 0 0 0 0 0 0
29 91 80 57 19 20 22 23 17 5 0 0 0 0 0 1 0 0 0 0 0 0 0 0 0 0 0 0 0 0 0 0 0 0 0 0 0 0 0 0 0 0 0 0 0 0 0
34 88 95 70 24 20 22 22 9 0 0 0 0 0 0 0 0 0 0 0 0 0 0 0 0 0 0 0 0 0 0 0 0 0 0 0 0 0 0 0 0 0 0 0 0 0 0
29 77 57 41 91 29 20 22 8 1 0 0 0 0 0 0 0 0 0 0 0 0 0 0 0 0 0 0 0 0 0 0 0 0 0 0 0 0 0 0 0 0 0 0 0 0 0
45 52 30 21 41 13 23 29 19 1 0 0 0 0 0 0 0 0 0 0 0 0 0 0 0 0 0 0 0 0 0 0 0 0 0 0 0 0 0 0 0 0 0 0 0 0 0
37 55 61 40 28 10 14 24 30 10 0 0 0 0 0 0 0 0 0 0 0 0 0 0 0 0 0 0 0 0 0 0 0 0 0 0 0 0 0 0 0 0 0 0 0 0 0
29 46 57 33 48 17 18 24 35 19 0 0 0 0 0 0 0 0 0 0 0 0 0 0 0 0 0 0 0 0 0 0 0 0 0 0 0 0 0 0 0 0 0 0 0 0 0
40 25 23 8 35 12 17 4 19 6 0 0 0 0 0 0 0 0 0 0 0 0 0 0 0 0 0 0 0 0 0 0 0 0 0 0 0 0 0 0 0 0 0 0 0 0 0
7 5 11 9 19 11 13 11 17 16 0 0 0 0 0 0 0 0 0 0 0 0 0 0 0 0 0 0 0 0 0 0 0 0 0 0 0 0 0 0 0 0 0 0 0 0 0
6 4 8 21 22 17 10 2 0 23 0 0 0 0 0 0 0 0 0 0 0 0 0 0 0 0 0 0 0 0 0 0 0 0 0 0 0 0 0 0 0 0 0 0 0 0 0

GFSGBSN_con_sbcape_093.txt.gz
CAPE
28 20 46 44 151 196 209 173 24 9 14 11 10 4 9 2 12 22 16 28 12 16 51 3 1 3 0 0 0 0 10 3 147 156 60 19 47 14 18 12 3 46 23 0 0 5 33
20 9 11 25 35 92 214 223 174 10 15 12 13 7 9 0 10 12 20 27 9 8 40 7 0 2 0 0 0 0 0 22 137 67 109 69 32 11 9 19 15 14 5 21 0 17 2
18 20 17 7 25 48 78 150 191 11 15 19 10 10 6 0 12 8 4 19 9 2 28 39 0 0 0 0 0 0 79 150 128 114 49 37 86 62 0 10 0 20 33 36 0 40 24
23 18 24 19 24 25 35 68 127 7 11 16 16 11 3 1 3 3 10 5 2 12 19 29 0 0 0 0 0 0 50 140 73 64 32 15 28 59 10 6 50 22 19 37 65 56 92
26 20 26 17 27 21 31 31 51 66 12 18 16 11 2 5 0 0 2 0 1 12 2 0 0 0 0 0 0 0 0 27 51 40 50 37 24 24 16 10 40 42 34 4 71 26 21
34 33 27 21 29 31 32 42 32 106 13 11 14 6 0 1 0 0 1 0 0 0 0 0 0 0 0 0 0 0 0 4 9 14 30 22 31 7 3 25 2 15 59 40 29 87 33
15 15 33 55 19 34 25 53 35 118 11 14 15 5 0 0 0 0 0 0 0 0 0 0 0 0 0 0 0 0 0 0 5 4 26 8 13 1 1 4 0 0 0 0 3 4 8
19 15 15 23 64 30 39 46 52 16 11 13 13 5 1 0 0 2 0 0 0 0 0 0 0 0 0 0 0 0 0 12 20 11 14 17 3 0 3 0 0 0 10 5 19 36 2
40 23 17 22 31 43 36 24 46 18 11 13 9 12 0 0 0 0 0 0 0 0 0 0 0 0 0 0 0 0 2 1 16 11 12 12 10 2 0 2 4 0 36 51 19 30 2
49 32 43 24 31 54 37 52 22 19 14 14 11 10 0 0 0 0 0 0 0 0 0 0 0 0 0 0 0 0 2 8 8 5 6 47 12 2 4 13 1 5 26 71 11 11 62
95 59 83 58 37 29 32 35 23 28 13 12 10 6 0 0 0 0 0 0 0 0 0 0 0 0 0 1 0 0 0 15 8 28 6 9 19 5 7 1 0 8 1 0 1 0 2
281 176 280 178 92 38 34 28 24 26 22 13 10 6 1 0 0 0 0 0 0 0 0 0 0 0 0 0 0 1 10 1 1 2 4 3 0 0 0 1 10 17 5 0 1 0 3
306 281 277 261 104 69 82 30 3 21 16 17 14 9 1 0 0 0 0 0 0 0 0 0 0 0 0 0 0 0 0 0 7 0 0 0 2 0 0 1 0 1 0 1 0 1 0
310 261 250 252 103 104 67 20 6 32 15 20 18 20 0 0 0 0 0 0 0 0 0 0 0 0 0 0 0 0 0 0 0 0 0 0 1 0 0 0 0 0 0 0 0 0 0
241 193 86 77 44 39 51 48 28 22 29 39 35 0 0 0 0 0 0 0 0 0 0 0 0 0 0 0 0 0 0 0 0 0 0 0 0 0 0 0 0 0 0 0 0 0 0
157 127 89 67 66 71 48 30 86 24 51 45 0 0 0 0 0 0 0 0 0 0 0 0 0 0 0 0 0 0 0 0 0 0 0 0 0 0 0 0 0 0 0 0 0 0 0
111 101 104 79 82 61 34 25 24 33 57 12 0 0 1 0 0 0 0 0 0 0 0 0 0 0 0 0 0 0 0 0 0 0 0 0 0 0 0 0 0 0 0 0 0 0 0
76 73 79 76 85 76 15 71 25 57 44 1 0 0 1 0 0 0 0 0 0 0 0 0 0 0 0 0 0 0 0 0 0 0 0 0 0 0 0 0 0 0 0 0 0 0 0
60 51 49 104 71 37 9 22 33 51 12 0 3 4 0 0 0 0 0 0 0 0 0 0 0 0 0 0 0 0 0 0 0 0 0 0 0 0 0 0 0 0 0 0 0 0 0
47 42 24 103 32 15 13 23 35 45 4 0 0 6 18 6 0 0 0 0 0 0 0 0 0 0 0 0 0 0 0 0 0 0 0 0 0 0 0 0 0 0 0 0 0 0 0
36 14 46 82 31 17 17 26 31 49 7 0 0 0 0 2 2 0 0 0 0 0 0 0 0 0 0 0 0 0 0 0 0 0 0 0 0 0 0 0 0 0 0 0 0 0 0
30 16 65 45 31 16 25 33 54 40 1 0 0 0 0 0 0 0 0 0 0 0 0 0 0 0 0 0 0 0 0 0 0 0 0 0 0 0 0 0 0 0 0 0 0 0 0
11 26 52 72 34 39 26 39 53 46 0 0 0 0 0 0 0 0 0 0 0 0 0 0 0 0 0 0 0 0 0 0 0 0 0 0 0 0 0 0 0 0 0 0 0 0 0
10 34 47 27 11 26 24 38 68 45 0 0 0 0 0 0 0 0 0 0 0 0 0 0 0 0 0 0 0 0 0 0 0 0 0 0 0 0 0 0 0 0 0 0 0 0 0
8 36 53 50 47 22 19 40 62 35 0 0 0 0 0 0 0 0 0 0 0 0 0 0 0 0 0 0 0 0 0 0 0 0 0 0 0 0 0 0 0 0 0 0 0 0 0
16 26 27 23 62 21 47 61 55 51 0 0 0 0 0 0 0 0 0 0 0 0 0 0 0 0 0 0 0 0 0 0 0 0 0 0 0 0 0 0 0 0 0 0 0 0 0
7 17 9 1 55 20 40 16 4 51 0 0 0 0 0 0 0 0 0 0 0 0 0 0 0 0 0 0 0 0 0 0 0 0 0 0 0 0 0 0 0 0 0 0 0 0 0
14 9 6 6 47 33 23 32 41 20 0 0 0 0 0 0 0 0 0 0 0 0 0 0 0 0 0 0 0 0 0 0 0 0 0 0 0 0 0 0 0 0 0 0 0 0 0
1 5 5 2 20 19 5 6 26 6 0 0 0 0 0 0 0 0 0 0 0 0 0 0 0 0 0 0 0 0 0 0 0 0 0 0 0 0 0 0 0 0 0 0 0 0 0

GFSGBSN_con_sbcape_096.txt.gz
CAPE
11 15 17 27 26 18 15 18 35 92 256 15 18 23 17 14 10 18 24 9 8 0 6 44 6 29 0 0 0 0 19 1 11 2 1 0 12 27 21 1 22 17 0 17 2 108 23
32 25 33 24 14 18 21 14 25 31 76 37 18 12 22 17 12 23 1 17 12 0 0 25 2 10 0 0 0 0 0 0 20 0 12 27 20 42 71 4 22 1 0 0 14 4 0
40 27 36 30 21 28 14 16 34 23 52 128 16 11 18 10 15 26 6 7 0 0 0 30 10 0 0 0 0 0 0 46 16 27 7 2 22 72 2 58 1 16 15 0 0 30 0
41 38 38 36 41 22 32 41 55 43 49 70 23 12 19 0 18 8 4 0 0 0 2 29 16 0 0 0 0 0 11 55 33 4 17 38 58 79 107 28 59 4 19 33 0 36 24
42 36 37 39 41 36 36 28 46 45 52 32 41 9 19 6 22 0 0 0 0 4 1 5 0 0 0 0 0 0 0 0 7 17 19 39 14 17 18 118 32 40 3 20 117 16 8
44 40 36 30 27 29 26 38 33 40 52 44 50 20 16 8 12 0 0 0 0 0 0 0 0 0 0 0 0 0 0 0 0 7 21 29 6 31 25 74 3 0 14 10 12 73 17
58 48 41 31 17 16 29 34 34 25 49 24 58 21 15 25 7 0 0 0 0 0 0 0 0 0 0 0 0 0 0 0 1 1 26 12 7 7 2 0 0 0 21 19 41 66 1
57 67 55 23 16 15 14 22 40 24 34 44 47 10 13 31 1 0 0 0 0 0 0 0 0 0 0 0 0 0 0 0 8 1 6 21 11 0 0 10 25 1 50 52 74 5 1
74 62 48 23 19 29 18 11 40 19 29 21 38 11 24 25 7 1 0 0 0 0 0 0 0 0 0 0 0 1 0 0 1 18 0 11 5 0 10 7 22 1 24 62 16 8 18
85 95 81 94 76 40 32 18 30 22 16 18 54 13 31 16 0 0 0 0 0 0 0 0 0 0 0 0 0 0 5 2 7 8 12 12 1 1 3 22 11 2 0 39 9 7 12
100 144 183 86 249 127 92 45 42 23 19 28 68 14 34 3 0 0 0 0 0 0 0 0 0 0 0 0 0 0 0 16 7 12 6 6 8 5 4 47 0 15 62 42 12 2 5
163 184 312 184 238 228 97 101 31 59 22 21 56 18 45 12 0 0 0 0 0 0 0 0 0 0 0 0 0 0 3 5 2 4 6 6 1 1 2 2 3 0 0 0 0 0 0
197 275 258 266 305 162 187 57 58 38 29 35 28 24 40 0 0 0 0 0 0 0 0 0 0 0 0 0 0 0 0 3 1 0 0 0 2 0 0 3 10 0 0 0 1 0 0
191 229 261 300 194 167 55 37 72 46 44 71 18 38 16 0 0 0 0 0 0 0 0 0 0 0 0 0 0 0 0 0 0 0 0 0 0 2 0 0 2 0 0 0 0 0 0
169 120 178 142 112 88 67 75 69 59 73 63 37 12 2 0 0 0 0 0 0 0 0 0 0 0 0 0 0 0 0 0 0 0 0 0 9 0 0 0 0 0 0 0 0 0 0
144 144 112 102 96 81 67 52 41 39 113 45 6 18 3 0 0 0 0 0 0 0 0 0 0 0 0 0 0 0 0 0 0 0 0 0 0 0 0 0 0 0 0 0 0 0 0
165 94 60 57 95 68 32 65 39 72 27 22 5 17 4 0 0 0 0 0 0 0 0 0 0 0 0 0 0 0 0 0 0 0 0 0 0 0 0 0 0 0 0 0 0 0 0
109 46 51 42 48 36 68 22 47 35 49 2 2 0 1 0 1 0 0 0 0 0 0 0 0 0 0 0 0 0 0 0 0 0 0 0 0 0 0 0 0 0 0 0 0 0 0
71 30 28 43 54 63 28 53 27 42 5 0 11 11 2 1 0 1 0 0 0 0 0 0 0 0 0 0 0 0 0 0 0 0 0 0 0 0 0 0 0 0 0 0 0 0 0
21 31 18 23 55 27 17 15 18 25 0 0 2 8 8 25 0 0 0 0 0 0 0 0 0 0 0 0 0 0 0 0 0 0 0 0 0 0 0 0 0 0 0 0 0 0 0
29 29 21 58 38 8 12 16 29 20 0 0 0 0 1 4 4 0 0 0 0 0 0 0 0 0 0 0 0 0 0 0 0 0 0 0 0 0 0 0 0 0 0 0 0 0 0
41 20 50 63 22 7 15 21 49 34 0 0 0 0 0 0 0 0 0 0 0 0 0 0 0 0 0 0 0 0 0 0 0 0 0 0 0 0 0 0 0 0 0 0 0 0 0
6 30 25 37 22 12 13 29 61 0 0 0 0 0 0 0 0 0 0 0 0 0 0 0 0 0 0 0 0 0 0 0 0 0 0 0 0 0 0 0 0 0 0 0 0 0 0
3 19 16 18 20 21 36 45 28 0 0 0 0 0 0 0 0 0 0 0 0 0 0 0 0 0 0 0 0 0 0 0 0 0 0 0 0 0 0 0 0 0 0 0 0 0 0
6 12 13 22 5 11 44 52 4 0 0 0 0 0 0 0 0 0 0 0 0 0 0 0 0 0 0 0 0 0 0 0 0 0 0 0 0 0 0 0 0 0 0 0 0 0 0
11 15 13 3 21 9 18 36 17 0 0 0 0 0 0 0 0 0 0 0 0 0 0 0 0 0 0 0 0 0 0 0 0 0 0 0 0 0 0 0 0 0 0 0 0 0 0
8 5 8 3 24 11 3 19 30 0 0 0 0 0 0 0 0 0 0 0 0 0 0 0 0 0 0 0 0 0 0 0 0 0 0 0 0 0 0 0 0 0 0 0 0 0 0
2 0 3 23 26 6 13 8 2 0 0 0 0 0 0 0 0 0 0 0 0 0 0 0 0 0 0 0 0 0 0 0 0 0 0 0 0 0 0 0 0 0 0 0 0 0 0
0 0 4 35 16 27 7 1 7 0 0 0 0 0 0 0 0 0 0 0 0 0 0 0 0 0 0 0 0 0 0 0 0 0 0 0 0 0 0 0 0 0 0 0 0 0 0

GFSGBSN_con_sbcape_099.txt.gz
CAPE
29 24 17 25 32 30 15 12 12 14 18 15 39 117 22 12 21 0 6 19 11 24 9 39 0 29 0 0 0 0 10 1 0 0 0 0 0 1 0 0 11 42 1 6 13 6 47
48 43 23 38 36 24 20 22 19 21 17 21 37 85 14 12 14 2 22 0 9 26 3 38 0 2 0 0 0 0 0 0 0 0 0 0 0 1 8 3 44 0 0 0 1 27 116
25 62 63 55 48 43 30 17 18 20 17 18 12 59 20 17 27 30 25 8 0 17 3 37 7 0 0 0 0 0 0 0 0 0 0 0 0 0 12 16 44 17 29 14 0 0 99
47 40 33 59 46 38 24 37 17 16 17 21 27 41 31 16 23 30 13 4 0 17 25 30 8 0 0 0 0 0 0 0 0 0 0 1 29 3 15 22 74 64 27 44 0 0 54
77 81 72 63 40 46 45 37 30 24 15 15 12 46 41 10 5 41 1 0 2 32 18 20 0 0 0 0 0 0 0 0 0 0 2 26 27 8 20 86 19 84 33 86 41 2 4
76 73 79 85 73 58 40 33 29 30 9 9 24 52 34 10 12 27 18 4 12 8 2 0 0 0 0 0 0 0 0 0 0 0 31 36 22 22 19 123 1 60 10 36 88 96 0
83 89 82 76 79 79 43 31 28 24 22 7 14 66 10 3 14 32 24 0 0 0 0 0 0 0 0 0 0 0 0 0 0 5 5 14 6 8 0 0 0 16 2 2 50 118 8
78 84 90 85 80 76 82 44 12 29 30 12 21 45 18 3 19 16 2 0 0 0 0 0 0 0 0 0 0 0 0 0 16 1 4 14 26 18 1 0 1 1 0 98 146 106 30
95 98 104 90 107 133 69 78 31 31 45 16 22 41 14 18 25 15 0 0 0 0 0 0 0 0 0 0 0 0 0 1 3 1 1 12 3 13 9 8 17 0 0 54 9 55 14
128 148 173 160 161 201 187 120 44 32 46 14 13 22 18 21 13 0 0 0 0 0 0 0 0 0 0 0 0 0 0 2 8 6 10 13 8 34 9 2 21 4 1 90 65 106 111
140 166 136 241 242 274 257 208 42 28 33 13 28 38 17 1 0 0 0 0 0 0 0 0 0 0 0 0 0 0 0 5 9 7 5 12 30 2 21 1 13 0 11 61 29 48 0
133 144 179 245 177 241 266 240 106 41 5 18 30 66 24 4 1 0 0 0 0 0 0 0 0 0 0 0 0 0 1 4 3 6 4 4 0 0 10 28 1 27 4 1 0 0 0
136 195 135 249 289 277 236 188 99 37 19 30 24 46 19 2 0 0 0 0 0 0 0 0 0 0 0 0 0 0 0 2 0 0 0 7 2 2 0 17 0 0 0 2 0 0 0
186 189 198 124 136 192 125 62 31 53 63 46 40 57 18 0 0 0 0 0 0 0 0 0 0 0 0 0 0 0 0 0 0 0 0 0 4 3 0 0 2 0 0 0 0 0 0
271 184 117 152 135 93 94 55 41 48 3 9 63 2 6 0 0 0 0 0 0 0 0 0 0 0 0 0 0 0 0 0 0 0 0 0 3 1 0 0 0 0 0 0 0 0 0
172 124 112 92 82 84 69 63 58 24 19 12 2 4 12 0 0 0 0 0 0 0 0 0 0 0 0 0 0 0 0 0 0 0 0 0 8 0 0 0 0 0 0 0 0 0 0
161 118 89 73 50 57 45 36 57 54 45 55 1 5 13 0 0 0 0 0 0 0 0 0 0 0 0 0 0 0 0 0 0 0 0 0 0 0 0 0 0 0 0 0 0 0 0
84 82 40 58 66 42 23 10 61 80 45 5 6 0 6 0 5 0 0 0 0 0 0 0 0 0 0 0 0 0 0 0 0 0 0 0 0 0 0 0 0 0 0 0 0 0 0
69 61 61 19 15 17 23 41 10 2 0 0 4 14 4 4 0 1 0 0 0 0 0 0 0 0 0 0 0 0 0 0 0 0 0 0 0 0 0 0 0 0 0 0 0 0 0
70 58 45 55 41 12 15 17 24 20 2 0 1 0 6 21 0 0 0 0 0 0 0 0 0 0 0 0 0 0 0 0 0 0 0 0 0 0 0 0 0 0 0 0 0 0 0
44 36 60 22 47 7 8 31 10 0 0 0 0 2 0 1 8 0 0 0 0 0 0 0 0 0 0 0 0 0 0 0 0 0 0 0 0 0 0 0 0 0 0 0 0 0 0
20 58 31 42 33 7 28 36 8 0 0 0 0 0 0 0 0 0 0 0 0 0 0 0 0 0 0 0 0 0 0 0 0 0 0 0 0 0 0 0 0 0 0 0 0 0 0
41 44 46 54 33 45 37 1 0 0 0 0 0 0 0 1 0 0 0 0 0 0 0 0 0 0 0 0 0 0 0 0 0 0 0 0 0 0 0 0 0 0 0 0 0 0 0
33 38 50 57 54 42 3 0 0 0 0 0 0 0 0 0 0 0 0 0 0 0 0 0 0 0 0 0 0 0 0 0 0 0 0 0 0 0 0 0 0 0 0 0 0 0 0
15 10 25 50 48 21 7 0 0 0 0 0 0 0 0 0 0 0 0 0 0 0 0 0 0 0 0 0 0 0 0 0 0 0 0 0 0 0 0 0 0 0 0 0 0 0 0
11 5 2 23 26 41 37 4 0 0 0 0 0 0 0 0 0 0 0 0 0 0 0 0 0 0 0 0 0 0 0 0 0 0 0 0 0 0 0 0 0 0 0 0 0 0 0
12 4 4 25 31 41 23 14 0 0 0 0 0 0 0 0 0 0 0 0 0 0 0 0 0 0 0 0 0 0 0 0 0 0 0 0 0 0 0 0 0 0 0 0 0 0 0
8 6 10 49 29 25 27 17 0 0 0 0 0 0 0 0 0 0 0 0 0 0 0 0 0 0 0 0 0 0 0 0 0 0 0 0 0 0 0 0 0 0 0 0 0 0 0
6 2 6 29 26 2 20 6 0 0 0 0 0 0 0 0 0 0 0 0 0 0 0 0 0 0 0 0 0 0 0 0 0 0 0 0 0 0 0 0 0 0 0 0 0 0 0

GFSGBSN_con_sbcape_102.txt.gz
CAPE
58 62 68 66 72 65 46 32 26 21 28 21 14 9 26 104 15 15 1 19 12 24 10 15 20 14 0 0 0 0 0 27 0 0 0 0 0 0 0 0 2 13 0 0 14 6 0
75 74 78 77 85 85 80 58 29 28 20 24 22 18 41 88 17 9 0 22 0 19 10 10 19 6 0 0 0 0 0 0 0 2 0 11 8 9 9 6 8 0 0 0 13 9 7
43 69 72 68 64 71 76 72 40 38 29 16 28 22 9 74 11 13 14 23 0 8 12 13 31 0 0 0 0 0 0 0 5 2 0 1 16 15 21 16 16 0 17 18 8 0 10
79 71 71 79 67 64 66 46 36 39 34 13 27 18 48 61 20 18 18 1 8 1 20 34 36 0 0 0 0 0 0 3 7 8 16 23 31 35 25 17 6 85 85 51 9 29 15
81 95 89 91 100 86 82 75 33 32 27 23 15 16 33 73 12 3 0 1 6 1 31 39 6 0 0 0 0 0 0 0 10 29 31 29 43 23 7 41 189 67 40 38 22 52 33
91 102 101 102 93 98 85 71 61 37 18 22 10 10 12 41 8 5 2 17 13 5 8 0 0 0 0 0 0 0 0 0 3 20 44 51 52 19 50 30 114 27 77 40 37 51 110
92 104 103 94 61 75 75 77 68 67 23 25 10 4 27 6 16 10 11 12 0 1 4 0 0 0 0 0 0 0 0 0 0 4 8 14 45 28 15 55 55 67 59 73 93 4 94
105 121 122 117 109 122 123 104 62 64 40 33 14 10 7 48 23 8 0 0 0 0 0 0 0 0 0 0 0 0 0 0 7 11 10 34 17 11 18 13 41 47 111 82 144 145 99
110 119 120 138 129 148 184 151 121 69 55 30 9 1 6 27 21 15 4 0 0 0 0 0 0 0 0 0 0 1 0 1 3 9 11 19 6 6 32 1 18 14 18 60 135 170 202
148 159 172 168 159 169 175 229 171 129 33 17 14 6 94 13 2 1 5 0 0 0 0 0 0 0 0 0 1 0 0 1 10 14 16 23 12 22 27 9 6 7 0 96 194 292 258
162 182 235 213 201 191 248 255 192 90 37 11 15 11 90 0 1 2 0 0 0 0 0 0 0 0 0 1 0 1 0 3 5 5 6 26 8 6 7 3 3 6 0 107 153 131 166
249 239 214 312 174 267 252 226 181 71 15 9 26 16 30 1 0 0 0 0 0 0 0 0 0 0 0 0 0 0 1 3 7 5 8 6 5 7 68 7 0 68 14 38 56 46 31
246 287 267 302 276 189 141 159 32 57 43 62 27 9 14 0 0 0 0 0 1 0 0 0 0 0 0 0 0 0 2 6 13 44 7 5 27 4 36 49 64 44 23 70 38 66 13
137 227 135 115 94 148 162 88 28 16 33 8 1 18 8 1 0 0 0 0 0 0 0 0 0 0 0 0 0 0 0 8 3 2 13 76 96 12 5 55 44 34 1 27 11 10 1
141 137 111 89 112 82 52 48 50 38 22 7 3 7 0 2 0 0 0 3 0 0 0 0 0 0 0 0 0 0 0 2 0 0 0 23 34 1 0 1 23 7 0 0 0 0 2
89 73 60 68 55 44 50 62 28 6 3 0 14 2 11 2 0 0 2 0 0 0 0 0 0 0 0 0 0 0 0 0 0 0 0 0 78 4 0 2 0 0 0 0 0 0 0
82 68 40 32 29 24 41 17 40 51 44 11 0 3 9 0 0 0 1 0 0 0 0 0 0 0 0 0 0 0 0 0 0 0 0 0 0 7 1 0 1 0 0 0 0 0 0
53 57 60 41 11 4 8 9 43 81 62 20 0 6 13 0 10 3 0 0 0 0 0 0 0 0 0 0 0 0 0 0 0 0 0 0 0 8 2 0 0 0 0 0 0 0 0
42 41 35 34 8 8 12 10 11 80 34 0 13 20 14 26 7 1 0 0 0 0 0 0 0 0 0 0 0 0 0 0 0 0 0 0 0 0 3 0 0 0 0 0 0 0 0
31 45 105 12 2 15 15 23 13 5 3 2 6 3 23 32 0 0 1 3 0 0 0 0 0 0 0 0 0 0 0 0 0 0 0 0 0 0 0 0 0 0 0 0 0 0 0
31 59 21 24 30 23 22 12 0 0 0 0 3 11 6 22 12 1 0 0 0 0 0 0 0 0 0 0 0 0 0 0 0 0 0 0 0 0 0 0 0 0 0 0 0 0 0
31 78 40 38 14 8 0 0 0 0 0 0 1 0 0 1 2 0 0 2 0 0 0 0 0 0 0 0 0 0 0 0 0 0 0 0 0 0 0 0 0 0 0 0 0 0 0
36 20 48 11 0 0 0 0 0 0 0 0 0 0 0 1 2 2 1 0 0 0 0 0 0 0 0 0 0 0 0 0 0 0 0 0 0 0 0 0 0 0 0 0 0 0 0
8 20 30 10 0 0 0 0 0 0 0 0 0 0 0 1 2 1 0 0 0 0 0 0 0 0 0 0 0 0 0 0 0 0 0 0 0 0 0 0 0 0 0 0 0 0 0
0 2 10 26 3 0 0 0 0 0 0 0 0 0 0 1 1 0 0 0 0 0 0 0 0 0 0 0 0 0 0 0 0 0 0 0 0 0 0 0 0 0 0 0 0 0 0
0 2 4 38 32 0 0 0 0 0 0 0 0 0 0 1 0 0 0 0 0 0 0 0 0 0 0 0 0 0 0 0 0 0 0 0 0 0 0 0 0 0 0 0 0 0 0
0 0 3 37 38 35 4 0 0 0 0 0 0 0 0 0 0 0 0 0 0 0 0 0 0 0 0 0 0 0 0 0 0 0 0 0 0 0 0 0 0 0 0 0 0 0 0
0 0 1 39 35 52 33 0 0 0 0 0 0 0 0 0 0 0 0 0 0 0 0 0 0 0 0 0 0 0 0 0 0 0 0 0 0 0 0 0 0 0 0 0 0 0 0
0 0 0 15 20 23 53 0 0 0 0 0 0 0 0 0 0 0 0 0 0 0 0 0 0 0 0 0 0 0 0 0 0 0 0 0 0 0 0 0 0 0 0 0 0 0 0

GFSGBSN_con_sbcape_105.txt.gz
CAPE
47 58 55 54 41 31 39 50 54 34 36 19 20 24 15 27 10 75 9 0 16 0 1 2 18 3 0 0 0 0 0 23 13 0 0 0 0 0 0 0 0 5 8 9 19 18 22
40 64 61 66 74 73 67 61 57 27 29 34 23 22 24 13 26 31 0 0 0 0 1 2 9 1 0 0 0 0 0 0 0 0 2 1 1 1 0 0 1 0 1 0 1 9 45
61 60 75 83 85 98 89 75 63 12 14 36 23 18 3 12 34 5 0 7 0 0 6 5 11 5 4 0 0 0 0 0 6 2 9 15 11 10 10 11 9 11 18 1 0 9 22
69 94 102 118 107 122 130 106 82 48 16 21 18 9 0 12 28 6 11 9 0 0 0 0 22 8 7 0 0 0 0 0 12 24 26 33 34 31 25 19 20 25 32 48 0 0 6
91 114 133 153 163 141 135 136 116 92 65 6 5 4 1 0 33 16 17 2 0 0 7 13 19 5 0 0 0 0 0 10 18 36 40 39 42 38 32 30 22 15 46 49 53 10 89
121 152 167 176 196 183 152 135 140 115 83 19 2 0 0 2 42 12 0 0 21 22 10 1 0 0 0 0 0 0 0 2 7 22 32 38 48 22 20 17 14 62 69 62 45 20 118
175 212 217 207 204 190 192 172 159 110 73 42 0 0 0 40 7 2 6 24 0 3 4 0 0 0 0 0 0 0 5 6 10 18 24 32 34 22 10 13 21 49 82 34 45 28 121
250 286 336 322 329 282 250 225 184 112 63 40 1 0 0 10 13 23 2 0 0 0 0 0 0 0 0 0 0 0 0 10 9 14 3 13 12 2 43 37 109 128 0 13 43 23 131
303 362 347 358 233 275 229 239 124 143 27 16 0 0 0 13 23 11 2 0 0 0 0 0 0 0 0 0 3 7 0 4 14 15 18 22 6 2 33 21 11 14 3 30 10 100 145
151 214 241 202 145 105 130 108 217 143 107 13 0 2 52 74 5 8 3 0 0 0 1 0 0 0 0 0 1 1 0 3 10 13 18 23 4 26 29 17 5 5 1 0 11 130 246
89 156 77 134 253 207 163 165 151 80 35 0 0 8 63 0 2 7 0 0 0 0 0 0 0 0 0 1 4 2 0 2 9 18 5 38 6 14 30 9 4 9 34 0 74 108 241
118 160 83 122 121 85 178 140 115 84 12 1 0 18 55 0 0 0 0 0 0 15 0 0 0 0 0 4 1 3 3 0 0 5 7 5 1 8 10 33 1 0 10 2 9 50 76
97 133 79 56 67 94 156 132 9 38 0 5 0 5 13 0 0 0 0 0 19 1 0 0 0 0 3 0 0 2 9 10 24 40 113 15 18 6 19 16 1 4 30 102 73 43 14
80 80 74 55 60 64 48 27 19 22 4 0 1 12 14 1 0 0 0 0 6 0 0 0 0 0 0 0 0 0 10 20 0 1 75 103 21 2 33 47 10 2 14 20 38 10 8
53 40 66 49 54 61 33 42 40 37 13 1 10 8 8 3 0 0 0 17 2 0 0 0 0 0 0 0 0 0 4 8 3 0 53 86 29 8 28 41 28 21 0 0 1 1 2
42 34 5 3 14 44 38 2 3 0 0 5 15 15 7 2 0 1 15 2 0 0 0 0 0 0 0 0 0 0 6 1 2 0 0 1 5 0 3 12 22 0 0 1 5 2 0
33 108 14 5 1 8 21 0 0 3 0 2 0 8 10 0 1 0 17 4 0 0 0 0 0 0 0 0 0 0 0 0 0 0 0 0 16 4 22 1 2 0 0 0 0 0 0
62 59 6 7 0 0 3 5 22 12 9 0 6 10 9 1 18 8 1 0 0 0 0 0 0 0 0 0 0 0 0 0 0 0 0 0 9 8 0 0 0 0 0 0 0 0 0
48 26 17 4 2 0 0 0 5 22 0 2 14 17 17 15 15 4 0 0 0 0 0 0 0 0 0 0 0 0 0 0 0 0 0 0 0 4 0 0 0 0 0 0 0 0 0
64 39 22 17 5 1 2 10 13 3 0 0 7 10 11 16 2 2 0 1 0 0 0 0 0 0 0 0 0 0 0 0 0 0 0 0 0 0 0 0 0 0 0 0 0 8 0
51 15 13 18 8 5 4 11 21 17 0 0 3 3 4 6 3 0 0 2 0 0 0 0 0 0 0 0 0 0 0 0 0 0 0 0 0 0 0 0 0 0 0 0 0 0 0
2 46 2 15 20 10 3 0 0 0 0 0 0 0 4 3 0 0 0 5 0 0 0 0 0 0 0 0 0 0 0 0 0 0 0 0 0 0 0 0 0 0 0 0 0 0 0
3 17 19 0 0 0 0 0 0 0 0 0 0 0 0 1 0 0 0 2 0 0 0 0 0 0 0 0 0 0 0 0 0 0 0 0 0 0 0 0 0 0 0 0 0 0 0
4 3 33 0 0 0 0 0 0 0 0 0 0 0 0 0 0 0 0 0 0 0 0 0 0 0 0 0 0 0 0 0 0 0 0 0 0 0 0 0 0 0 0 0 0 0 0
0 4 9 14 0 0 0 0 0 0 0 0 0 0 0 0 0 0 0 1 0 0 0 0 0 0 0 0 0 0 0 0 0 0 0 0 0 0 0 0 0 0 0 0 0 0 0
0 0 2 25 30 0 0 0 0 0 0 0 0 0 0 0 0 0 1 0 0 0 0 0 0 0 0 0 0 0 0 0 0 0 0 0 0 0 0 0 0 0 0 0 0 0 0
0 0 2 2 31 16 0 0 0 0 0 0 0 0 0 0 0 0 1 1 0 0 0 0 0 0 0 0 0 0 0 0 0 0 0 0 0 0 0 0 0 0 0 0 0 0 0
0 0 2 4 2 18 0 0 0 0 0 0 0 0 0 0 0 0 0 0 0 0 0 0 0 0 0 0 0 0 0 0 0 0 0 0 0 0 0 0 0 0 0 0 0 0 0
0 2 5 0 0 3 5 0 0 0 0 0 0 0 0 0 0 0 0 0 0 0 0 0 0 0 0 0 0 0 0 0 0 0 0 0 0 0 0 0 0 0 0 0 0 0 0

GFSGBSN_con_sbcape_108.txt.gz
CAPE
85 85 76 84 93 102 88 105 71 65 53 16 40 31 29 16 12 27 67 6 0 1 0 0 7 0 0 0 0 0 6 18 17 0 0 0 0 0 0 0 0 0 0 0 0 2 0
103 76 85 109 118 130 130 146 112 69 60 50 8 21 22 13 10 27 37 1 4 2 1 0 7 0 0 0 0 0 0 0 1 0 0 0 0 0 0 0 0 0 0 0 0 0 0
94 89 90 123 142 136 133 174 119 135 84 58 24 6 2 4 0 30 12 10 2 7 0 1 1 0 0 0 0 0 0 0 0 0 0 0 0 0 1 2 1 0 0 0 0 0 0
100 113 117 96 105 83 123 150 190 111 138 60 27 2 0 0 2 45 15 12 3 0 0 0 13 5 0 0 0 0 0 0 0 0 0 0 6 4 5 6 2 9 2 1 0 0 0
79 99 127 198 231 156 137 148 163 144 117 106 47 0 0 0 0 16 30 11 0 0 14 8 18 5 0 0 0 0 0 0 2 0 6 10 28 24 21 7 6 5 0 0 0 1 0
75 89 130 214 315 294 237 204 177 154 142 87 33 0 0 0 4 46 6 1 5 32 33 10 1 0 0 0 0 0 0 0 0 17 17 22 52 26 27 24 0 0 5 9 0 0 23
129 128 145 152 241 229 212 307 224 193 175 105 36 0 1 20 112 4 1 13 10 4 3 0 0 0 0 0 0 0 0 0 0 7 6 22 14 0 0 0 2 2 27 7 3 50 18
144 180 113 192 226 123 121 100 65 160 167 31 5 0 1 37 9 17 0 0 0 0 0 0 0 0 0 0 0 0 0 0 1 2 2 17 10 0 3 10 20 23 12 3 2 33 16
115 142 175 173 217 184 105 58 72 91 134 9 0 3 1 13 30 3 0 0 0 0 0 0 0 0 0 0 0 0 0 2 15 39 30 26 3 3 9 7 19 21 6 0 2 19 21
77 128 70 118 128 129 61 38 0 40 80 4 0 0 0 67 3 4 1 0 0 0 0 0 0 0 0 0 0 0 0 5 10 14 19 14 0 14 22 15 12 6 4 2 0 14 25
78 119 79 37 31 36 57 3 91 37 42 0 0 98 39 18 2 0 0 0 0 0 0 0 0 0 0 0 0 0 0 0 7 15 4 19 19 1 0 2 4 0 0 23 4 26 12
43 14 74 41 55 48 28 26 38 51 9 9 7 20 5 0 0 0 0 0 0 0 0 0 0 0 0 0 1 0 0 0 0 6 5 2 0 0 0 5 24 5 7 3 3 5 7
26 0 2 52 27 56 59 7 13 19 21 13 0 9 1 0 1 0 0 0 0 5 0 0 0 0 0 1 2 3 8 7 8 7 0 4 2 1 0 8 0 1 4 2 13 5 13
191 0 0 3 0 4 0 4 14 4 10 26 14 4 3 4 0 0 0 0 0 0 0 0 0 0 0 0 0 0 1 6 4 3 1 2 0 0 23 1 3 4 12 3 16 11 15
86 2 0 0 0 0 0 12 24 0 0 11 11 3 5 5 0 0 0 17 2 0 0 0 0 0 0 0 0 0 0 1 0 0 2 70 1 0 0 8 12 9 0 0 5 0 0
42 4 0 0 2 0 0 0 0 0 0 8 2 0 8 0 0 0 3 6 0 0 0 0 0 0 1 0 0 0 1 0 0 0 0 0 2 1 4 15 10 0 0 0 2 2 1
33 6 5 0 5 0 0 0 0 0 0 1 1 4 12 0 0 0 16 1 0 0 0 0 0 0 0 0 0 0 0 0 0 0 0 0 1 0 3 0 0 0 0 0 0 0 0
63 3 12 0 5 1 0 0 0 0 0 0 14 2 1 0 3 0 0 0 0 0 0 0 0 0 0 0 0 0 0 0 0 0 0 0 0 0 0 0 0 0 0 0 0 0 0
66 6 7 8 1 0 5 15 3 0 0 0 10 10 7 2 9 0 0 0 0 0 0 0 0 0 0 0 0 0 0 0 0 0 0 0 0 0 3 0 0 0 0 0 0 0 0
29 49 30 0 2 2 5 1 1 0 0 0 2 6 3 1 0 0 0 0 0 0 0 0 0 0 0 0 0 0 0 0 0 0 0 0 0 0 0 0 0 0 0 0 0 0 0
20 23 23 20 7 2 8 9 8 0 0 0 5 1 0 1 0 0 0 0 0 0 0 0 0 0 0 0 0 0 0 0 0 0 0 0 0 0 0 0 0 0 0 0 0 0 0
8 0 1 7 1 9 4 1 14 6 0 0 0 0 0 0 0 0 0 0 0 0 0 0 0 0 0 0 0 0 0 0 0 0 0 0 0 0 0 0 0 0 0 0 0 0 0
0 5 0 0 0 0 0 0 0 0 0 3 0 0 0 0 0 0 0 0 0 0 0 0 0 0 0 0 0 0 0 0 0 0 0 0 0 0 0 0 0 0 0 0 0 0 0
2 1 0 0 0 0 0 0 0 0 0 0 0 0 0 0 0 0 0 0 0 0 0 0 0 0 0 0 0 0 0 0 0 0 0 0 0 0 0 0 0 0 0 0 0 0 0
1 0 4 0 0 0 0 0 0 0 0 0 0 0 0 0 0 0 0 0 0 0 0 0 0 0 0 0 0 0 0 0 0 0 0 0 0 0 0 0 0 0 0 0 0 0 0
0 2 0 2 8 0 0 0 0 0 0 0 0 0 0 0 0 0 0 0 0 0 0 0 0 0 0 0 0 0 0 0 0 0 0 0 0 0 0 0 0 0 0 0 0 0 0
0 0 2 1 0 23 0 0 0 0 0 0 0 0 0 0 0 0 0 0 0 0 0 0 0 0 0 0 0 0 0 0 0 0 0 0 0 0 0 0 0 0 0 0 0 0 0
0 0 2 8 6 20 0 0 0 0 0 0 0 0 0 0 0 0 0 0 0 0 0 0 0 0 0 0 0 0 0 0 0 0 0 0 0 0 0 0 0 0 0 0 0 0 0
0 0 9 0 0 6 0 0 0 0 0 0 0 0 0 0 0 0 0 0 0 0 0 0 0 0 0 0 0 0 0 0 0 0 0 0 0 0 0 0 0 0 0 0 0 0 0

GFSGBSN_con_sbcape_111.txt.gz
CAPE
124 77 73 104 119 131 117 108 90 76 87 72 94 49 36 26 19 8 36 46 24 2 0 0 0 0 0 0 0 11 23 43 0 0 0 0 0 0 0 0 0 0 0 0 0 0 0
142 96 57 74 115 117 125 96 85 63 66 75 102 72 27 21 10 2 0 96 18 4 0 0 3 0 0 0 0 0 0 0 0 0 0 0 0 0 0 0 0 0 0 0 0 0 0
64 114 89 71 76 146 99 97 118 69 60 89 89 76 27 7 1 11 69 62 31 4 0 2 0 0 0 0 0 0 0 0 0 0 0 0 0 0 0 0 0 0 0 0 0 0 0
79 106 141 135 113 123 200 59 121 57 119 132 117 96 11 1 0 5 153 26 5 10 1 0 1 0 0 0 0 0 0 0 0 0 0 0 0 0 0 0 0 0 0 0 0 0 0
122 142 138 157 154 120 251 165 70 64 163 144 89 81 9 0 0 21 35 6 1 0 0 0 0 0 0 0 0 0 0 0 0 0 0 0 0 0 0 0 0 0 0 0 0 0 0
165 162 144 117 208 189 61 154 186 158 173 108 50 25 4 0 0 55 6 4 2 4 1 12 1 0 0 0 0 0 0 1 1 0 0 0 0 0 0 2 0 0 0 1 0 0 0
120 136 167 162 198 200 74 2 0 55 20 32 9 2 1 284 161 0 2 19 8 3 5 0 0 0 0 0 0 0 0 0 0 0 0 3 2 0 0 0 0 0 0 0 0 0 0
81 141 167 119 181 182 36 13 7 0 34 31 3 0 0 99 23 0 0 0 0 0 0 0 0 0 0 0 0 0 0 0 0 0 0 0 3 0 0 0 3 14 29 0 0 0 5
53 31 141 53 110 72 27 2 18 13 36 2 0 0 10 75 2 0 0 0 0 0 0 0 0 0 0 0 0 0 0 0 0 14 6 3 0 4 12 13 13 0 0 0 0 0 0
5 10 28 20 3 41 16 0 3 76 14 0 13 0 1 45 6 0 0 0 0 0 0 0 0 0 0 0 0 0 0 0 4 1 17 2 0 2 18 19 16 3 0 1 5 1 0
5 0 2 1 0 3 19 59 103 61 0 1 38 89 51 4 0 0 0 0 0 0 0 0 0 0 0 0 0 0 0 0 9 11 5 1 1 7 2 0 0 0 0 0 3 6 5
57 0 0 0 0 0 1 23 25 0 0 46 20 18 1 0 0 1 0 0 0 0 0 0 0 0 0 0 0 0 0 0 0 5 5 3 0 0 0 0 0 8 0 1 5 7 4
9 0 0 3 15 4 5 7 2 1 0 1 5 1 0 0 1 0 0 0 0 0 0 0 0 0 0 0 0 0 4 4 9 1 0 2 0 0 0 1 0 1 2 0 0 3 2
0 0 0 4 3 8 25 15 4 0 7 21 0 0 1 2 0 0 0 0 0 0 0 0 0 0 0 0 0 1 3 3 5 1 0 0 0 0 4 1 2 4 6 3 0 0 15
1 0 0 4 2 8 36 21 2 5 6 0 0 0 1 0 0 0 0 0 0 0 0 0 0 0 0 0 0 0 0 0 0 0 0 0 0 0 0 8 6 3 12 0 10 0 0
23 7 8 15 35 21 23 0 0 6 7 0 0 0 2 0 0 0 0 0 0 0 0 0 0 0 0 0 0 0 0 0 0 0 0 0 1 0 14 5 3 8 0 0 0 0 10
12 4 34 30 14 19 6 0 0 11 4 0 0 1 0 0 0 0 0 0 0 0 0 0 0 0 0 0 0 0 0 0 0 0 0 0 0 0 0 0 0 0 0 0 0 0 0
0 2 4 20 17 5 0 0 0 2 0 0 0 0 0 0 0 0 0 0 0 0 0 0 0 0 0 0 0 0 0 0 0 0 0 0 0 0 0 0 0 0 0 0 0 0 0
20 0 0 0 0 2 5 0 0 0 0 0 0 0 0 0 0 0 0 0 0 0 0 0 0 0 0 0 0 0 0 0 0 0 0 0 0 0 0 0 0 0 0 0 0 0 0
0 5 0 0 0 0 0 0 0 0 9 0 0 0 0 0 0 0 0 0 0 0 0 0 0 0 0 0 0 0 0 0 0 0 0 0 0 0 0 0 0 0 0 0 0 0 0
18 0 0 0 0 0 0 0 0 4 17 0 0 0 0 0 0 0 0 0 0 0 0 0 0 0 0 0 0 0 0 0 0 0 0 0 0 0 0 0 0 0 0 0 0 0 0
5 9 0 0 0 0 0 0 0 0 0 0 0 0 0 0 0 0 0 0 0 0 0 0 0 0 0 0 0 0 0 0 0 0 0 0 0 0 0 0 0 0 0 0 0 0 0
0 9 4 0 0 0 0 0 0 0 0 0 0 0 0 0 0 0 0 0 0 0 0 0 0 0 0 0 0 0 0 0 0 0 0 0 0 0 0 0 0 0 0 0 0 0 0
0 0 4 2 0 0 0 0 0 0 0 0 0 0 0 0 0 0 0 0 0 0 0 0 0 0 0 0 0 0 0 0 0 0 0 0 0 0 0 0 0 0 0 0 0 0 0
0 0 0 0 0 0 0 0 0 0 0 0 0 0 0 0 0 0 0 0 0 0 0 0 0 0 0 0 0 0 0 0 0 0 0 0 0 0 0 0 0 0 0 0 0 0 0
0 0 0 0 0 0 0 0 0 0 0 0 0 0 0 0 0 0 0 0 0 0 0 0 0 0 0 0 0 0 0 0 0 0 0 0 0 0 0 0 0 0 0 0 0 0 0
0 0 0 0 1 1 0 0 0 0 0 0 0 0 0 0 0 0 0 0 0 0 0 0 0 0 0 0 0 0 0 0 0 0 0 0 0 0 0 0 0 0 0 0 0 0 0
0 0 1 6 8 3 5 0 0 0 0 0 0 0 0 0 0 0 0 0 0 0 0 0 0 0 0 0 0 0 0 0 0 0 0 0 0 0 0 0 0 0 0 0 0 0 0
0 0 5 7 1 1 8 0 0 0 0 0 0 0 0 0 0 0 0 0 0 0 0 0 0 0 0 0 0 0 0 0 0 0 0 0 0 0 0 0 0 0 0 0 0 0 0

GFSGBSN_con_sbcape_114.txt.gz
CAPE
167 71 74 104 110 84 71 95 114 114 95 81 53 59 22 14 19 13 7 6 145 39 5 0 0 0 0 0 0 0 25 0 0 0 0 0 0 0 0 0 0 0 0 0 0 0 0
63 81 119 140 165 107 71 119 60 71 53 59 75 53 51 14 9 8 1 7 157 12 1 0 0 0 0 0 0 0 0 0 0 0 0 0 0 0 0 0 0 0 0 0 0 0 0
84 147 213 194 170 147 115 129 21 45 35 75 88 53 56 15 8 15 122 176 31 6 0 4 0 0 0 0 0 0 0 0 0 0 0 0 0 0 0 0 0 0 0 0 0 0 0
119 217 271 279 128 128 150 146 26 28 14 97 75 34 16 11 1 22 195 108 14 14 23 11 0 0 0 0 0 0 0 0 0 0 0 0 0 0 0 0 0 0 0 0 0 0 0
121 147 268 216 162 235 160 87 120 40 39 63 63 22 9 15 1 9 93 25 1 24 17 1 0 0 0 0 0 0 0 0 0 0 0 0 0 0 0 0 0 0 0 0 0 0 0
61 66 127 65 197 265 75 52 49 162 106 76 16 4 19 8 27 27 2 1 6 0 0 0 0 0 0 0 0 0 0 0 0 0 0 0 0 0 0 0 0 0 0 0 0 0 0
17 8 55 28 141 124 44 2 22 36 74 30 0 41 287 366 43 20 7 2 0 0 0 0 0 0 0 0 0 0 0 0 0 0 0 0 0 0 0 0 0 0 0 0 0 0 0
5 2 26 13 78 98 56 23 38 42 50 0 0 104 248 142 60 39 0 0 0 0 0 0 0 0 0 0 0 0 0 0 0 0 0 0 0 0 0 0 0 1 12 2 0 0 0
5 1 13 32 64 30 32 45 79 79 7 0 0 1 86 31 0 0 0 0 0 0 0 0 0 0 0 0 0 0 0 0 0 2 5 2 0 4 3 3 4 2 0 0 0 0 0
0 0 18 27 18 30 48 54 24 0 0 6 0 0 12 2 0 0 0 0 0 0 0 0 0 0 0 0 0 0 1 1 1 2 4 2 0 0 4 5 2 2 0 0 0 14 0
0 0 22 27 18 23 10 4 0 0 3 44 0 0 0 0 0 0 0 0 0 0 0 0 0 0 0 0 0 0 0 0 2 2 1 0 0 0 2 0 0 0 0 0 0 28 8
1 12 24 23 17 15 13 1 5 40 22 17 11 2 0 0 0 0 0 0 0 0 0 0 0 0 0 0 0 0 0 0 0 6 2 0 0 0 0 0 0 0 8 0 11 9 0
16 23 18 14 27 14 4 4 0 0 0 6 2 0 0 0 0 0 0 0 0 0 0 0 0 0 0 0 0 0 3 5 5 0 0 0 0 0 0 1 4 11 1 0 0 0 0
24 18 25 9 32 19 12 16 2 4 16 0 0 0 0 1 0 0 0 0 0 0 0 0 0 0 0 0 0 1 2 2 0 1 0 0 0 0 0 3 1 4 4 2 0 0 1
6 27 30 27 30 20 8 23 26 20 0 0 0 0 0 0 0 0 0 0 0 0 0 0 0 0 0 0 0 4 0 0 0 0 0 0 0 0 0 0 1 23 15 3 11 6 0
1 8 1 12 17 0 0 5 21 21 15 0 0 0 0 0 0 0 0 0 0 0 0 0 0 0 0 0 0 0 0 0 0 0 0 0 0 0 0 0 0 5 0 0 0 0 0
0 0 1 0 0 0 0 0 3 7 0 0 0 0 0 0 0 0 0 0 0 0 0 0 0 0 0 0 0 0 0 0 0 0 0 0 0 0 0 0 0 0 0 0 0 0 0
0 0 0 0 0 0 0 0 0 0 4 0 0 0 0 0 0 0 0 0 0 0 0 0 0 0 0 0 0 0 0 0 0 0 0 0 0 0 0 0 0 0 0 0 0 0 0
1 0 0 0 0 0 0 0 0 1 11 0 0 0 0 0 0 0 0 0 0 0 0 0 0 0 0 0 0 0 0 0 0 0 0 0 0 0 0 0 0 0 0 0 0 0 0
6 10 0 0 0 0 0 0 0 0 7 0 0 0 0 0 0 0 0 0 0 0 0 0 0 0 0 0 0 0 0 0 0 0 0 0 0 0 0 0 0 0 0 0 0 0 0
1 1 2 0 0 0 0 0 0 0 0 0 0 0 0 0 0 0 0 0 0 0 0 0 0 0 0 0 0 0 0 0 0 0 0 0 0 0 0 0 0 0 0 0 0 0 0
0 0 0 0 0 0 0 0 0 0 0 0 0 0 0 0 0 0 0 0 0 0 0 0 0 0 0 0 0 0 0 0 0 0 0 0 0 0 0 0 0 0 0 0 0 0 0
0 0 0 0 0 0 0 0 0 0 0 0 0 0 0 0 0 0 0 0 0 0 0 0 0 0 0 0 0 0 0 0 0 0 0 0 0 0 0 0 0 0 0 0 0 0 0
0 0 0 0 0 0 0 0 0 0 0 0 0 0 0 0 0 0 0 0 0 0 0 0 0 0 0 0 0 0 0 0 0 0 0 0 0 0 0 0 0 0 0 0 0 0 0
0 0 0 0 0 0 0 0 0 0 0 0 0 0 0 0 0 0 0 0 0 0 0 0 0 0 0 0 0 0 0 0 0 0 0 0 0 0 0 0 0 0 0 0 0 0 0
0 0 0 0 0 0 0 0 0 0 0 0 0 0 0 0 0 0 0 0 0 0 0 0 0 0 0 0 0 0 0 0 0 0 0 0 0 0 0 0 0 0 0 0 0 0 0
0 0 0 0 1 1 0 0 0 0 0 0 0 0 0 0 0 0 0 0 0 0 0 0 0 0 0 0 0 0 0 0 0 0 0 0 0 0 0 0 0 0 0 0 0 0 0
0 0 0 0 8 3 7 3 0 0 0 0 0 0 0 0 0 0 0 0 0 0 0 0 0 0 0 0 0 0 0 0 0 0 0 0 0 0 0 0 0 0 0 0 0 0 0
0 0 0 0 9 9 1 11 0 0 0 0 0 0 0 0 0 0 0 0 0 0 0 0 0 0 0 0 0 0 0 0 0 0 0 0 0 0 0 0 0 0 0 0 0 0 0

GFSGBSN_con_sbcape_117.txt.gz
CAPE
141 252 332 391 321 276 169 78 100 80 112 55 120 69 56 4 0 10 14 3 4 198 5 0 1 0 0 0 0 0 7 0 0 0 0 0 0 0 0 0 0 0 0 0 0 0 0
241 277 305 346 288 222 189 91 60 38 53 67 54 49 37 18 6 7 2 2 12 99 1 2 2 0 0 0 0 0 0 0 0 0 0 0 0 0 0 0 0 0 0 0 0 0 0
209 247 259 205 203 201 189 197 39 29 46 49 57 39 27 3 5 8 63 58 136 5 4 8 0 0 0 0 0 0 0 0 0 0 0 0 0 0 0 0 0 0 0 0 0 0 0
279 152 180 165 302 297 178 177 58 30 48 38 33 7 7 6 17 48 226 134 16 11 19 2 0 0 0 0 0 0 0 0 0 0 0 0 0 0 0 0 0 0 0 0 0 0 0
185 53 150 164 267 190 84 77 56 34 35 31 24 6 0 7 34 101 90 25 16 14 23 0 0 0 0 0 0 0 0 0 0 0 0 0 0 0 0 0 0 0 0 0 0 0 0
63 22 68 94 168 60 14 75 72 44 67 55 8 0 1 199 262 113 149 26 15 4 1 0 0 0 0 0 0 0 0 0 0 0 0 0 0 0 0 0 0 0 0 0 0 0 0
3 17 78 85 100 24 6 26 23 93 32 15 80 136 63 180 70 35 4 0 0 0 0 0 0 0 0 0 0 0 0 0 0 0 0 0 0 0 0 0 0 0 0 0 0 0 0
3 10 41 35 14 23 1 2 37 34 0 34 236 517 173 91 110 2 0 0 0 0 0 0 0 0 0 0 0 0 0 0 0 0 0 0 0 0 0 0 0 0 1 0 0 0 0
7 8 24 33 16 39 27 21 3 1 0 28 179 176 85 50 0 0 0 0 0 0 0 0 0 0 0 0 0 0 0 0 0 1 4 5 0 0 0 0 5 1 0 0 0 0 0
15 15 10 33 11 30 9 6 9 5 0 0 58 51 16 3 0 0 0 0 0 0 0 0 0 0 0 0 0 0 2 0 0 0 1 1 0 0 0 0 0 0 0 0 0 3 0
22 14 16 14 26 36 13 19 49 18 11 0 0 2 0 0 0 0 0 0 0 0 0 0 0 0 0 0 0 0 0 0 0 1 0 0 0 0 2 0 0 0 0 0 6 11 17
4 16 26 24 13 12 22 45 59 49 23 12 3 0 0 0 0 0 0 0 0 0 0 0 0 0 0 0 0 0 0 0 0 4 2 1 0 2 0 0 0 0 0 3 12 14 0
0 1 28 20 14 12 7 3 26 57 23 7 0 0 0 0 0 0 0 0 0 0 0 0 0 0 0 0 0 0 2 2 4 0 0 0 0 0 0 0 0 4 1 0 0 0 0
0 0 3 13 4 2 7 4 26 6 1 12 0 0 0 0 0 0 0 0 0 0 0 0 0 0 0 0 0 0 8 2 0 2 1 0 0 0 0 0 0 3 5 1 0 0 0
0 0 0 0 1 0 1 1 0 0 1 0 0 0 0 0 0 0 0 0 0 0 0 0 0 0 0 0 0 4 0 0 0 0 0 0 0 0 0 0 0 7 8 6 9 5 0
0 0 0 0 0 0 0 0 0 1 4 0 0 0 0 0 0 0 0 0 0 0 0 0 0 0 0 0 0 0 0 0 0 0 0 0 0 0 0 0 0 1 0 3 0 0 0
0 0 0 0 0 0 0 0 0 0 3 0 0 0 0 0 0 0 0 0 0 0 0 0 0 0 0 0 0 0 0 0 0 0 0 0 0 0 0 0 0 0 0 0 0 0 0
0 0 0 0 0 0 0 0 0 1 0 0 0 0 0 0 0 0 0 0 0 0 0 0 0 0 0 0 0 0 0 0 0 0 0 0 0 0 0 0 0 0 0 0 0 0 0
6 0 0 0 0 0 0 0 0 0 0 0 0 0 0 0 0 0 0 0 0 0 0 0 0 0 0 0 0 0 0 0 0 0 0 0 0 0 0 0 0 0 0 0 0 0 0
1 8 0 0 0 0 0 0 0 0 0 0 0 0 0 0 0 0 0 0 0 0 0 0 0 0 0 0 0 0 0 0 0 0 0 0 0 0 0 0 0 0 0 0 0 0 0
0 0 5 0 0 0 0 0 0 0 0 0 0 0 0 0 0 0 0 0 0 0 0 0 0 0 0 0 0 0 0 0 0 0 0 0 0 0 0 0 0 0 0 0 0 0 0
0 0 0 0 0 0 0 0 0 0 0 0 0 0 0 0 0 0 0 0 0 0 0 0 0 0 0 0 0 0 0 0 0 0 0 0 0 0 0 0 0 0 0 0 0 0 0
0 0 0 0 0 0 0 0 0 0 0 0 0 0 0 0 0 0 0 0 0 0 0 0 0 0 0 0 0 0 0 0 0 0 0 0 0 0 0 0 0 0 0 0 0 0 0
0 0 0 0 0 0 0 0 0 0 0 0 0 0 0 0 0 0 0 0 0 0 0 0 0 0 0 0 0 0 0 0 0 0 0 0 0 0 0 0 0 0 0 0 0 0 0
0 0 0 0 0 0 0 0 0 0 0 0 0 0 0 0 0 0 0 0 0 0 0 0 0 0 0 0 0 0 0 0 0 0 0 0 0 0 0 0 0 0 0 0 0 0 0
0 0 0 0 0 0 0 0 0 0 0 0 0 0 0 0 0 0 0 0 0 0 0 0 0 0 0 0 0 0 0 0 0 0 0 0 0 0 0 0 0 0 0 0 0 0 0
0 0 0 0 0 0 0 0 0 0 0 0 0 0 0 0 0 0 0 0 0 0 0 0 0 0 0 0 0 0 0 0 0 0 0 0 0 0 0 0 0 0 0 0 0 0 0
0 0 0 0 0 3 3 3 0 0 0 0 0 0 0 0 0 0 0 0 0 0 0 0 0 0 0 0 0 0 0 0 0 0 0 0 0 0 0 0 0 0 0 0 0 0 0
0 0 0 0 0 5 17 4 8 0 0 0 0 0 0 0 0 0 0 0 0 0 0 0 0 0 0 0 0 0 0 0 0 0 0 0 0 0 0 0 0 0 0 0 0 0 0